<?xml version="1.0" encoding="UTF-8" standalone="no" ?>
<gpx xmlns="http://www.topografix.com/GPX/1/1" xmlns:xsi="http://www.w3.org/2001/XMLSchema-instance" xsi:schemaLocation="http://www.topografix.com/GPX/1/1 http://www.topografix.com/GPX/1/1/gpx.xsd" version="1.1" creator="VisuGPX - https://www.visugpx.com">
  <metadata>
    <name>Boucle de Cardaillac</name>
    <desc><![CDATA[Trace AlpineQuest 25/05/2018 13:12:24]]></desc>
  </metadata>
  <trk>
    <name><![CDATA[randogps46-247]]></name>
    <trkseg>
      <trkpt lat="44.67962" lon="1.99467">
        <ele>368.102997</ele>
        <time>2018-05-25T11:12:24Z</time>
      </trkpt>
      <trkpt lat="44.67955" lon="1.99471">
        <ele>368.786011</ele>
        <time>2018-05-25T11:13:50Z</time>
      </trkpt>
      <trkpt lat="44.6795" lon="1.9948">
        <ele>367.313995</ele>
        <time>2018-05-25T11:14:03Z</time>
      </trkpt>
      <trkpt lat="44.67947" lon="1.99489">
        <ele>364.362</ele>
        <time>2018-05-25T11:14:11Z</time>
      </trkpt>
      <trkpt lat="44.6794" lon="1.99494">
        <ele>363.949005</ele>
        <time>2018-05-25T11:14:18Z</time>
      </trkpt>
      <trkpt lat="44.67933" lon="1.99491">
        <ele>363.003998</ele>
        <time>2018-05-25T11:14:24Z</time>
      </trkpt>
      <trkpt lat="44.67928" lon="1.99485">
        <ele>361.06601</ele>
        <time>2018-05-25T11:14:30Z</time>
      </trkpt>
      <trkpt lat="44.67921" lon="1.9948">
        <ele>360.07901</ele>
        <time>2018-05-25T11:14:35Z</time>
      </trkpt>
      <trkpt lat="44.67914" lon="1.99475">
        <ele>360.208008</ele>
        <time>2018-05-25T11:14:42Z</time>
      </trkpt>
      <trkpt lat="44.67907" lon="1.9947">
        <ele>359.5</ele>
        <time>2018-05-25T11:14:48Z</time>
      </trkpt>
      <trkpt lat="44.67901" lon="1.99463">
        <ele>358.946014</ele>
        <time>2018-05-25T11:14:55Z</time>
      </trkpt>
      <trkpt lat="44.67895" lon="1.99456">
        <ele>358.165985</ele>
        <time>2018-05-25T11:15:02Z</time>
      </trkpt>
      <trkpt lat="44.67888" lon="1.99452">
        <ele>358.80899</ele>
        <time>2018-05-25T11:15:08Z</time>
      </trkpt>
      <trkpt lat="44.6788" lon="1.99448">
        <ele>356.61499</ele>
        <time>2018-05-25T11:15:15Z</time>
      </trkpt>
      <trkpt lat="44.67874" lon="1.99442">
        <ele>355.011993</ele>
        <time>2018-05-25T11:15:21Z</time>
      </trkpt>
      <trkpt lat="44.6787" lon="1.99434">
        <ele>355.81601</ele>
        <time>2018-05-25T11:15:27Z</time>
      </trkpt>
      <trkpt lat="44.67863" lon="1.99429">
        <ele>356.359985</ele>
        <time>2018-05-25T11:15:33Z</time>
      </trkpt>
      <trkpt lat="44.67857" lon="1.99423">
        <ele>356.257996</ele>
        <time>2018-05-25T11:15:39Z</time>
      </trkpt>
      <trkpt lat="44.6785" lon="1.99419">
        <ele>355.772003</ele>
        <time>2018-05-25T11:15:45Z</time>
      </trkpt>
      <trkpt lat="44.67842" lon="1.99417">
        <ele>354.908997</ele>
        <time>2018-05-25T11:15:50Z</time>
      </trkpt>
      <trkpt lat="44.67834" lon="1.9942">
        <ele>354.101013</ele>
        <time>2018-05-25T11:15:55Z</time>
      </trkpt>
      <trkpt lat="44.67827" lon="1.99425">
        <ele>353.845001</ele>
        <time>2018-05-25T11:16:00Z</time>
      </trkpt>
      <trkpt lat="44.6782" lon="1.99428">
        <ele>354.098999</ele>
        <time>2018-05-25T11:16:05Z</time>
      </trkpt>
      <trkpt lat="44.67813" lon="1.99432">
        <ele>354.936005</ele>
        <time>2018-05-25T11:16:11Z</time>
      </trkpt>
      <trkpt lat="44.67804" lon="1.99435">
        <ele>353.908997</ele>
        <time>2018-05-25T11:16:18Z</time>
      </trkpt>
      <trkpt lat="44.67797" lon="1.99437">
        <ele>353.394989</ele>
        <time>2018-05-25T11:16:24Z</time>
      </trkpt>
      <trkpt lat="44.6779" lon="1.99441">
        <ele>352.652008</ele>
        <time>2018-05-25T11:16:29Z</time>
      </trkpt>
      <trkpt lat="44.67782" lon="1.99442">
        <ele>350.700989</ele>
        <time>2018-05-25T11:16:36Z</time>
      </trkpt>
      <trkpt lat="44.67775" lon="1.99439">
        <ele>349.316986</ele>
        <time>2018-05-25T11:16:43Z</time>
      </trkpt>
      <trkpt lat="44.67768" lon="1.99434">
        <ele>350.07901</ele>
        <time>2018-05-25T11:16:50Z</time>
      </trkpt>
      <trkpt lat="44.67762" lon="1.99426">
        <ele>350.785004</ele>
        <time>2018-05-25T11:16:57Z</time>
      </trkpt>
      <trkpt lat="44.67756" lon="1.99419">
        <ele>350.761993</ele>
        <time>2018-05-25T11:17:02Z</time>
      </trkpt>
      <trkpt lat="44.67751" lon="1.99411">
        <ele>351.954987</ele>
        <time>2018-05-25T11:17:09Z</time>
      </trkpt>
      <trkpt lat="44.67745" lon="1.99406">
        <ele>351.290009</ele>
        <time>2018-05-25T11:17:15Z</time>
      </trkpt>
      <trkpt lat="44.67737" lon="1.99409">
        <ele>351.079987</ele>
        <time>2018-05-25T11:17:23Z</time>
      </trkpt>
      <trkpt lat="44.67731" lon="1.99416">
        <ele>352.597992</ele>
        <time>2018-05-25T11:17:30Z</time>
      </trkpt>
      <trkpt lat="44.67725" lon="1.99424">
        <ele>351.600006</ele>
        <time>2018-05-25T11:17:36Z</time>
      </trkpt>
      <trkpt lat="44.67718" lon="1.99432">
        <ele>352.239014</ele>
        <time>2018-05-25T11:17:43Z</time>
      </trkpt>
      <trkpt lat="44.67712" lon="1.99439">
        <ele>351.385986</ele>
        <time>2018-05-25T11:17:49Z</time>
      </trkpt>
      <trkpt lat="44.67707" lon="1.99446">
        <ele>351.212006</ele>
        <time>2018-05-25T11:17:55Z</time>
      </trkpt>
      <trkpt lat="44.67702" lon="1.99454">
        <ele>351.864014</ele>
        <time>2018-05-25T11:18:01Z</time>
      </trkpt>
      <trkpt lat="44.67698" lon="1.99464">
        <ele>351.131012</ele>
        <time>2018-05-25T11:18:08Z</time>
      </trkpt>
      <trkpt lat="44.67694" lon="1.99473">
        <ele>350.700989</ele>
        <time>2018-05-25T11:18:15Z</time>
      </trkpt>
      <trkpt lat="44.67688" lon="1.9948">
        <ele>348.765991</ele>
        <time>2018-05-25T11:18:22Z</time>
      </trkpt>
      <trkpt lat="44.67683" lon="1.99489">
        <ele>348.460999</ele>
        <time>2018-05-25T11:18:28Z</time>
      </trkpt>
      <trkpt lat="44.67678" lon="1.99497">
        <ele>350.528015</ele>
        <time>2018-05-25T11:18:34Z</time>
      </trkpt>
      <trkpt lat="44.67673" lon="1.99505">
        <ele>353.187012</ele>
        <time>2018-05-25T11:18:40Z</time>
      </trkpt>
      <trkpt lat="44.6767" lon="1.99515">
        <ele>357.545013</ele>
        <time>2018-05-25T11:18:52Z</time>
      </trkpt>
      <trkpt lat="44.67666" lon="1.99525">
        <ele>357.501007</ele>
        <time>2018-05-25T11:18:59Z</time>
      </trkpt>
      <trkpt lat="44.67662" lon="1.99534">
        <ele>356.902008</ele>
        <time>2018-05-25T11:19:05Z</time>
      </trkpt>
      <trkpt lat="44.67658" lon="1.99542">
        <ele>356.029999</ele>
        <time>2018-05-25T11:19:11Z</time>
      </trkpt>
      <trkpt lat="44.67653" lon="1.99551">
        <ele>354.601013</ele>
        <time>2018-05-25T11:19:17Z</time>
      </trkpt>
      <trkpt lat="44.67647" lon="1.9956">
        <ele>353.798004</ele>
        <time>2018-05-25T11:19:23Z</time>
      </trkpt>
      <trkpt lat="44.67641" lon="1.99567">
        <ele>354.488007</ele>
        <time>2018-05-25T11:19:30Z</time>
      </trkpt>
      <trkpt lat="44.67635" lon="1.99575">
        <ele>354.25</ele>
        <time>2018-05-25T11:19:37Z</time>
      </trkpt>
      <trkpt lat="44.67631" lon="1.99584">
        <ele>353.516998</ele>
        <time>2018-05-25T11:19:44Z</time>
      </trkpt>
      <trkpt lat="44.67631" lon="1.99595">
        <ele>352.973999</ele>
        <time>2018-05-25T11:19:51Z</time>
      </trkpt>
      <trkpt lat="44.67635" lon="1.99604">
        <ele>353.362</ele>
        <time>2018-05-25T11:19:57Z</time>
      </trkpt>
      <trkpt lat="44.67639" lon="1.99615">
        <ele>354.377991</ele>
        <time>2018-05-25T11:20:02Z</time>
      </trkpt>
      <trkpt lat="44.67642" lon="1.99624">
        <ele>355.006989</ele>
        <time>2018-05-25T11:20:07Z</time>
      </trkpt>
      <trkpt lat="44.67646" lon="1.99633">
        <ele>354.791992</ele>
        <time>2018-05-25T11:20:13Z</time>
      </trkpt>
      <trkpt lat="44.67641" lon="1.99625">
        <ele>354.953003</ele>
        <time>2018-05-25T11:20:30Z</time>
      </trkpt>
      <trkpt lat="44.67637" lon="1.99615">
        <ele>356.174988</ele>
        <time>2018-05-25T11:20:37Z</time>
      </trkpt>
      <trkpt lat="44.67631" lon="1.99605">
        <ele>355.979004</ele>
        <time>2018-05-25T11:20:43Z</time>
      </trkpt>
      <trkpt lat="44.67626" lon="1.99598">
        <ele>355.450012</ele>
        <time>2018-05-25T11:20:48Z</time>
      </trkpt>
      <trkpt lat="44.6762" lon="1.99592">
        <ele>353.278015</ele>
        <time>2018-05-25T11:20:53Z</time>
      </trkpt>
      <trkpt lat="44.67614" lon="1.99585">
        <ele>352.70401</ele>
        <time>2018-05-25T11:20:59Z</time>
      </trkpt>
      <trkpt lat="44.67609" lon="1.99577">
        <ele>352.359985</ele>
        <time>2018-05-25T11:21:05Z</time>
      </trkpt>
      <trkpt lat="44.67603" lon="1.9957">
        <ele>351.859009</ele>
        <time>2018-05-25T11:21:12Z</time>
      </trkpt>
      <trkpt lat="44.67597" lon="1.99562">
        <ele>351.032013</ele>
        <time>2018-05-25T11:21:18Z</time>
      </trkpt>
      <trkpt lat="44.67592" lon="1.99555">
        <ele>350.240997</ele>
        <time>2018-05-25T11:21:23Z</time>
      </trkpt>
      <trkpt lat="44.67586" lon="1.99547">
        <ele>350.621002</ele>
        <time>2018-05-25T11:21:30Z</time>
      </trkpt>
      <trkpt lat="44.67581" lon="1.99539">
        <ele>350.928009</ele>
        <time>2018-05-25T11:21:36Z</time>
      </trkpt>
      <trkpt lat="44.67575" lon="1.99533">
        <ele>351.643005</ele>
        <time>2018-05-25T11:21:42Z</time>
      </trkpt>
      <trkpt lat="44.67569" lon="1.99526">
        <ele>353.231995</ele>
        <time>2018-05-25T11:21:49Z</time>
      </trkpt>
      <trkpt lat="44.67562" lon="1.99519">
        <ele>354.467987</ele>
        <time>2018-05-25T11:21:56Z</time>
      </trkpt>
      <trkpt lat="44.67555" lon="1.99514">
        <ele>354.334015</ele>
        <time>2018-05-25T11:22:02Z</time>
      </trkpt>
      <trkpt lat="44.67548" lon="1.99508">
        <ele>354.688995</ele>
        <time>2018-05-25T11:22:08Z</time>
      </trkpt>
      <trkpt lat="44.67542" lon="1.99502">
        <ele>355.505005</ele>
        <time>2018-05-25T11:22:14Z</time>
      </trkpt>
      <trkpt lat="44.67536" lon="1.99495">
        <ele>356.535004</ele>
        <time>2018-05-25T11:22:20Z</time>
      </trkpt>
      <trkpt lat="44.6753" lon="1.99487">
        <ele>357.984009</ele>
        <time>2018-05-25T11:22:26Z</time>
      </trkpt>
      <trkpt lat="44.67525" lon="1.99481">
        <ele>358.619995</ele>
        <time>2018-05-25T11:22:32Z</time>
      </trkpt>
      <trkpt lat="44.67518" lon="1.99475">
        <ele>357.996002</ele>
        <time>2018-05-25T11:22:39Z</time>
      </trkpt>
      <trkpt lat="44.67512" lon="1.99471">
        <ele>359.067993</ele>
        <time>2018-05-25T11:22:49Z</time>
      </trkpt>
      <trkpt lat="44.67505" lon="1.99465">
        <ele>359.402008</ele>
        <time>2018-05-25T11:22:56Z</time>
      </trkpt>
      <trkpt lat="44.67498" lon="1.99459">
        <ele>358.932007</ele>
        <time>2018-05-25T11:23:02Z</time>
      </trkpt>
      <trkpt lat="44.67491" lon="1.99453">
        <ele>358.480988</ele>
        <time>2018-05-25T11:23:08Z</time>
      </trkpt>
      <trkpt lat="44.67484" lon="1.99447">
        <ele>358.397003</ele>
        <time>2018-05-25T11:23:15Z</time>
      </trkpt>
      <trkpt lat="44.67478" lon="1.9944">
        <ele>358.197998</ele>
        <time>2018-05-25T11:23:21Z</time>
      </trkpt>
      <trkpt lat="44.67472" lon="1.99435">
        <ele>358.359009</ele>
        <time>2018-05-25T11:23:27Z</time>
      </trkpt>
      <trkpt lat="44.67467" lon="1.99426">
        <ele>358.632996</ele>
        <time>2018-05-25T11:23:34Z</time>
      </trkpt>
      <trkpt lat="44.67462" lon="1.99417">
        <ele>360.505005</ele>
        <time>2018-05-25T11:23:41Z</time>
      </trkpt>
      <trkpt lat="44.67457" lon="1.99408">
        <ele>361.671997</ele>
        <time>2018-05-25T11:23:47Z</time>
      </trkpt>
      <trkpt lat="44.67453" lon="1.99399">
        <ele>362.497986</ele>
        <time>2018-05-25T11:23:54Z</time>
      </trkpt>
      <trkpt lat="44.67447" lon="1.99392">
        <ele>362.023987</ele>
        <time>2018-05-25T11:23:59Z</time>
      </trkpt>
      <trkpt lat="44.67441" lon="1.99385">
        <ele>361.585999</ele>
        <time>2018-05-25T11:24:05Z</time>
      </trkpt>
      <trkpt lat="44.67436" lon="1.99378">
        <ele>362.484009</ele>
        <time>2018-05-25T11:24:11Z</time>
      </trkpt>
      <trkpt lat="44.67431" lon="1.9937">
        <ele>362.037994</ele>
        <time>2018-05-25T11:24:17Z</time>
      </trkpt>
      <trkpt lat="44.67425" lon="1.99364">
        <ele>362.260986</ele>
        <time>2018-05-25T11:24:23Z</time>
      </trkpt>
      <trkpt lat="44.67419" lon="1.99357">
        <ele>361.614014</ele>
        <time>2018-05-25T11:24:32Z</time>
      </trkpt>
      <trkpt lat="44.67414" lon="1.99347">
        <ele>360.822998</ele>
        <time>2018-05-25T11:24:38Z</time>
      </trkpt>
      <trkpt lat="44.6741" lon="1.99338">
        <ele>360.112</ele>
        <time>2018-05-25T11:24:43Z</time>
      </trkpt>
      <trkpt lat="44.67404" lon="1.9933">
        <ele>358.725006</ele>
        <time>2018-05-25T11:24:50Z</time>
      </trkpt>
      <trkpt lat="44.67398" lon="1.99322">
        <ele>356.576996</ele>
        <time>2018-05-25T11:24:57Z</time>
      </trkpt>
      <trkpt lat="44.67392" lon="1.99314">
        <ele>356.313995</ele>
        <time>2018-05-25T11:25:04Z</time>
      </trkpt>
      <trkpt lat="44.67386" lon="1.99305">
        <ele>356.47699</ele>
        <time>2018-05-25T11:25:11Z</time>
      </trkpt>
      <trkpt lat="44.67379" lon="1.99299">
        <ele>355.903992</ele>
        <time>2018-05-25T11:25:17Z</time>
      </trkpt>
      <trkpt lat="44.67375" lon="1.99291">
        <ele>355.225006</ele>
        <time>2018-05-25T11:25:26Z</time>
      </trkpt>
      <trkpt lat="44.67368" lon="1.99285">
        <ele>354.20401</ele>
        <time>2018-05-25T11:25:33Z</time>
      </trkpt>
      <trkpt lat="44.67363" lon="1.99276">
        <ele>353.115997</ele>
        <time>2018-05-25T11:25:42Z</time>
      </trkpt>
      <trkpt lat="44.67357" lon="1.99268">
        <ele>352.80899</ele>
        <time>2018-05-25T11:25:47Z</time>
      </trkpt>
      <trkpt lat="44.67353" lon="1.9926">
        <ele>353.623993</ele>
        <time>2018-05-25T11:25:54Z</time>
      </trkpt>
      <trkpt lat="44.67347" lon="1.99251">
        <ele>353.658997</ele>
        <time>2018-05-25T11:26:01Z</time>
      </trkpt>
      <trkpt lat="44.67344" lon="1.99241">
        <ele>351.946991</ele>
        <time>2018-05-25T11:26:08Z</time>
      </trkpt>
      <trkpt lat="44.6734" lon="1.99232">
        <ele>348.868011</ele>
        <time>2018-05-25T11:26:13Z</time>
      </trkpt>
      <trkpt lat="44.67335" lon="1.99222">
        <ele>348.350006</ele>
        <time>2018-05-25T11:26:20Z</time>
      </trkpt>
      <trkpt lat="44.67332" lon="1.99211">
        <ele>348.11499</ele>
        <time>2018-05-25T11:26:27Z</time>
      </trkpt>
      <trkpt lat="44.67328" lon="1.99202">
        <ele>347.859009</ele>
        <time>2018-05-25T11:26:33Z</time>
      </trkpt>
      <trkpt lat="44.67325" lon="1.99193">
        <ele>347.222992</ele>
        <time>2018-05-25T11:26:38Z</time>
      </trkpt>
      <trkpt lat="44.67321" lon="1.99183">
        <ele>346.674011</ele>
        <time>2018-05-25T11:26:43Z</time>
      </trkpt>
      <trkpt lat="44.67317" lon="1.99174">
        <ele>346.302002</ele>
        <time>2018-05-25T11:26:49Z</time>
      </trkpt>
      <trkpt lat="44.67314" lon="1.99164">
        <ele>346.927002</ele>
        <time>2018-05-25T11:26:55Z</time>
      </trkpt>
      <trkpt lat="44.67312" lon="1.99153">
        <ele>347.68399</ele>
        <time>2018-05-25T11:27:02Z</time>
      </trkpt>
      <trkpt lat="44.67309" lon="1.99143">
        <ele>347.401001</ele>
        <time>2018-05-25T11:27:08Z</time>
      </trkpt>
      <trkpt lat="44.67306" lon="1.99133">
        <ele>346.927002</ele>
        <time>2018-05-25T11:27:15Z</time>
      </trkpt>
      <trkpt lat="44.67303" lon="1.99122">
        <ele>346.321991</ele>
        <time>2018-05-25T11:27:21Z</time>
      </trkpt>
      <trkpt lat="44.673" lon="1.99112">
        <ele>346.203003</ele>
        <time>2018-05-25T11:27:26Z</time>
      </trkpt>
      <trkpt lat="44.67297" lon="1.99102">
        <ele>345.890015</ele>
        <time>2018-05-25T11:27:32Z</time>
      </trkpt>
      <trkpt lat="44.67294" lon="1.99093">
        <ele>344.891998</ele>
        <time>2018-05-25T11:27:38Z</time>
      </trkpt>
      <trkpt lat="44.67292" lon="1.99082">
        <ele>344.684998</ele>
        <time>2018-05-25T11:27:44Z</time>
      </trkpt>
      <trkpt lat="44.6729" lon="1.99072">
        <ele>344.253998</ele>
        <time>2018-05-25T11:27:50Z</time>
      </trkpt>
      <trkpt lat="44.67286" lon="1.99061">
        <ele>342.96701</ele>
        <time>2018-05-25T11:27:59Z</time>
      </trkpt>
      <trkpt lat="44.67283" lon="1.99052">
        <ele>343.598999</ele>
        <time>2018-05-25T11:28:05Z</time>
      </trkpt>
      <trkpt lat="44.67281" lon="1.99041">
        <ele>343.454987</ele>
        <time>2018-05-25T11:28:16Z</time>
      </trkpt>
      <trkpt lat="44.67278" lon="1.99031">
        <ele>342.85199</ele>
        <time>2018-05-25T11:28:22Z</time>
      </trkpt>
      <trkpt lat="44.67275" lon="1.99021">
        <ele>342.342987</ele>
        <time>2018-05-25T11:28:28Z</time>
      </trkpt>
      <trkpt lat="44.67272" lon="1.9901">
        <ele>343.014008</ele>
        <time>2018-05-25T11:28:35Z</time>
      </trkpt>
      <trkpt lat="44.67269" lon="1.99">
        <ele>345.31601</ele>
        <time>2018-05-25T11:28:41Z</time>
      </trkpt>
      <trkpt lat="44.67264" lon="1.98991">
        <ele>344.783997</ele>
        <time>2018-05-25T11:28:48Z</time>
      </trkpt>
      <trkpt lat="44.67258" lon="1.98982">
        <ele>344.886993</ele>
        <time>2018-05-25T11:28:54Z</time>
      </trkpt>
      <trkpt lat="44.67253" lon="1.98973">
        <ele>345.053986</ele>
        <time>2018-05-25T11:29:00Z</time>
      </trkpt>
      <trkpt lat="44.67248" lon="1.98964">
        <ele>345.023987</ele>
        <time>2018-05-25T11:29:06Z</time>
      </trkpt>
      <trkpt lat="44.67244" lon="1.98955">
        <ele>344.481995</ele>
        <time>2018-05-25T11:29:12Z</time>
      </trkpt>
      <trkpt lat="44.67239" lon="1.98947">
        <ele>343.394989</ele>
        <time>2018-05-25T11:29:18Z</time>
      </trkpt>
      <trkpt lat="44.67233" lon="1.98939">
        <ele>342.039001</ele>
        <time>2018-05-25T11:29:24Z</time>
      </trkpt>
      <trkpt lat="44.67228" lon="1.9893">
        <ele>340.859985</ele>
        <time>2018-05-25T11:29:31Z</time>
      </trkpt>
      <trkpt lat="44.67223" lon="1.98921">
        <ele>340.209991</ele>
        <time>2018-05-25T11:29:37Z</time>
      </trkpt>
      <trkpt lat="44.67219" lon="1.98913">
        <ele>340</ele>
        <time>2018-05-25T11:29:42Z</time>
      </trkpt>
      <trkpt lat="44.67216" lon="1.98903">
        <ele>340.338989</ele>
        <time>2018-05-25T11:29:48Z</time>
      </trkpt>
      <trkpt lat="44.67212" lon="1.98893">
        <ele>340.173004</ele>
        <time>2018-05-25T11:29:54Z</time>
      </trkpt>
      <trkpt lat="44.67209" lon="1.98883">
        <ele>340.894012</ele>
        <time>2018-05-25T11:30:00Z</time>
      </trkpt>
      <trkpt lat="44.67203" lon="1.98876">
        <ele>340.77301</ele>
        <time>2018-05-25T11:30:05Z</time>
      </trkpt>
      <trkpt lat="44.67199" lon="1.98867">
        <ele>339.54599</ele>
        <time>2018-05-25T11:30:12Z</time>
      </trkpt>
      <trkpt lat="44.67195" lon="1.98856">
        <ele>341.153015</ele>
        <time>2018-05-25T11:30:19Z</time>
      </trkpt>
      <trkpt lat="44.67191" lon="1.98846">
        <ele>342.359985</ele>
        <time>2018-05-25T11:30:24Z</time>
      </trkpt>
      <trkpt lat="44.67185" lon="1.98838">
        <ele>342.696014</ele>
        <time>2018-05-25T11:30:29Z</time>
      </trkpt>
      <trkpt lat="44.6718" lon="1.98829">
        <ele>343.240997</ele>
        <time>2018-05-25T11:30:37Z</time>
      </trkpt>
      <trkpt lat="44.67176" lon="1.98821">
        <ele>343.734985</ele>
        <time>2018-05-25T11:30:43Z</time>
      </trkpt>
      <trkpt lat="44.67172" lon="1.9881">
        <ele>343.174988</ele>
        <time>2018-05-25T11:30:49Z</time>
      </trkpt>
      <trkpt lat="44.67167" lon="1.988">
        <ele>341.709015</ele>
        <time>2018-05-25T11:30:55Z</time>
      </trkpt>
      <trkpt lat="44.67162" lon="1.98793">
        <ele>340.269012</ele>
        <time>2018-05-25T11:31:02Z</time>
      </trkpt>
      <trkpt lat="44.67157" lon="1.98785">
        <ele>339.278992</ele>
        <time>2018-05-25T11:31:08Z</time>
      </trkpt>
      <trkpt lat="44.67152" lon="1.98777">
        <ele>338.472992</ele>
        <time>2018-05-25T11:31:14Z</time>
      </trkpt>
      <trkpt lat="44.67147" lon="1.98768">
        <ele>338.233002</ele>
        <time>2018-05-25T11:31:20Z</time>
      </trkpt>
      <trkpt lat="44.67142" lon="1.98759">
        <ele>338.21701</ele>
        <time>2018-05-25T11:31:26Z</time>
      </trkpt>
      <trkpt lat="44.67137" lon="1.98751">
        <ele>339.612</ele>
        <time>2018-05-25T11:31:31Z</time>
      </trkpt>
      <trkpt lat="44.67133" lon="1.98742">
        <ele>338.769012</ele>
        <time>2018-05-25T11:31:37Z</time>
      </trkpt>
      <trkpt lat="44.67126" lon="1.98735">
        <ele>338.748993</ele>
        <time>2018-05-25T11:31:43Z</time>
      </trkpt>
      <trkpt lat="44.67121" lon="1.98728">
        <ele>339.196014</ele>
        <time>2018-05-25T11:31:49Z</time>
      </trkpt>
      <trkpt lat="44.67116" lon="1.98719">
        <ele>338.726013</ele>
        <time>2018-05-25T11:31:55Z</time>
      </trkpt>
      <trkpt lat="44.67111" lon="1.98712">
        <ele>337.980011</ele>
        <time>2018-05-25T11:32:01Z</time>
      </trkpt>
      <trkpt lat="44.67105" lon="1.98705">
        <ele>336.730988</ele>
        <time>2018-05-25T11:32:07Z</time>
      </trkpt>
      <trkpt lat="44.671" lon="1.98696">
        <ele>334.575989</ele>
        <time>2018-05-25T11:32:14Z</time>
      </trkpt>
      <trkpt lat="44.67093" lon="1.98689">
        <ele>334.065002</ele>
        <time>2018-05-25T11:32:20Z</time>
      </trkpt>
      <trkpt lat="44.67087" lon="1.98681">
        <ele>334.306</ele>
        <time>2018-05-25T11:32:26Z</time>
      </trkpt>
      <trkpt lat="44.6708" lon="1.98675">
        <ele>334.542999</ele>
        <time>2018-05-25T11:32:35Z</time>
      </trkpt>
      <trkpt lat="44.67074" lon="1.98669">
        <ele>333.98999</ele>
        <time>2018-05-25T11:32:40Z</time>
      </trkpt>
      <trkpt lat="44.67067" lon="1.98662">
        <ele>334.625</ele>
        <time>2018-05-25T11:32:47Z</time>
      </trkpt>
      <trkpt lat="44.67062" lon="1.98655">
        <ele>334.993011</ele>
        <time>2018-05-25T11:32:53Z</time>
      </trkpt>
      <trkpt lat="44.67056" lon="1.98648">
        <ele>335.514008</ele>
        <time>2018-05-25T11:32:58Z</time>
      </trkpt>
      <trkpt lat="44.6705" lon="1.98642">
        <ele>335.639008</ele>
        <time>2018-05-25T11:33:04Z</time>
      </trkpt>
      <trkpt lat="44.67042" lon="1.98639">
        <ele>337.217987</ele>
        <time>2018-05-25T11:33:19Z</time>
      </trkpt>
      <trkpt lat="44.67034" lon="1.98637">
        <ele>336.877991</ele>
        <time>2018-05-25T11:33:25Z</time>
      </trkpt>
      <trkpt lat="44.67027" lon="1.98636">
        <ele>336.556</ele>
        <time>2018-05-25T11:33:31Z</time>
      </trkpt>
      <trkpt lat="44.67019" lon="1.98637">
        <ele>336.118011</ele>
        <time>2018-05-25T11:33:37Z</time>
      </trkpt>
      <trkpt lat="44.67011" lon="1.98638">
        <ele>336.192993</ele>
        <time>2018-05-25T11:33:44Z</time>
      </trkpt>
      <trkpt lat="44.67004" lon="1.9864">
        <ele>335.46701</ele>
        <time>2018-05-25T11:33:49Z</time>
      </trkpt>
      <trkpt lat="44.66996" lon="1.98639">
        <ele>333.026001</ele>
        <time>2018-05-25T11:33:56Z</time>
      </trkpt>
      <trkpt lat="44.66989" lon="1.98636">
        <ele>331.264008</ele>
        <time>2018-05-25T11:34:03Z</time>
      </trkpt>
      <trkpt lat="44.66981" lon="1.98634">
        <ele>329.345001</ele>
        <time>2018-05-25T11:34:11Z</time>
      </trkpt>
      <trkpt lat="44.66974" lon="1.98629">
        <ele>327.768005</ele>
        <time>2018-05-25T11:34:18Z</time>
      </trkpt>
      <trkpt lat="44.66968" lon="1.98625">
        <ele>325.261993</ele>
        <time>2018-05-25T11:34:25Z</time>
      </trkpt>
      <trkpt lat="44.66961" lon="1.9862">
        <ele>325.411011</ele>
        <time>2018-05-25T11:34:32Z</time>
      </trkpt>
      <trkpt lat="44.66956" lon="1.98612">
        <ele>324.049011</ele>
        <time>2018-05-25T11:34:38Z</time>
      </trkpt>
      <trkpt lat="44.66951" lon="1.98604">
        <ele>323.881989</ele>
        <time>2018-05-25T11:34:44Z</time>
      </trkpt>
      <trkpt lat="44.66947" lon="1.98594">
        <ele>322.904999</ele>
        <time>2018-05-25T11:34:51Z</time>
      </trkpt>
      <trkpt lat="44.66945" lon="1.98584">
        <ele>321.998993</ele>
        <time>2018-05-25T11:34:59Z</time>
      </trkpt>
      <trkpt lat="44.66942" lon="1.98574">
        <ele>320.937012</ele>
        <time>2018-05-25T11:35:15Z</time>
      </trkpt>
      <trkpt lat="44.66939" lon="1.98564">
        <ele>320.725006</ele>
        <time>2018-05-25T11:35:21Z</time>
      </trkpt>
      <trkpt lat="44.66934" lon="1.98557">
        <ele>322.296997</ele>
        <time>2018-05-25T11:35:28Z</time>
      </trkpt>
      <trkpt lat="44.6693" lon="1.98547">
        <ele>320.34201</ele>
        <time>2018-05-25T11:35:40Z</time>
      </trkpt>
      <trkpt lat="44.66923" lon="1.98543">
        <ele>318.179993</ele>
        <time>2018-05-25T11:35:53Z</time>
      </trkpt>
      <trkpt lat="44.66916" lon="1.98538">
        <ele>316.933014</ele>
        <time>2018-05-25T11:36:15Z</time>
      </trkpt>
      <trkpt lat="44.66909" lon="1.98535">
        <ele>315.351013</ele>
        <time>2018-05-25T11:36:21Z</time>
      </trkpt>
      <trkpt lat="44.66901" lon="1.9853">
        <ele>314.100006</ele>
        <time>2018-05-25T11:36:28Z</time>
      </trkpt>
      <trkpt lat="44.66894" lon="1.98523">
        <ele>313.960999</ele>
        <time>2018-05-25T11:36:34Z</time>
      </trkpt>
      <trkpt lat="44.66888" lon="1.98516">
        <ele>314.151001</ele>
        <time>2018-05-25T11:36:41Z</time>
      </trkpt>
      <trkpt lat="44.66882" lon="1.9851">
        <ele>314.238007</ele>
        <time>2018-05-25T11:36:47Z</time>
      </trkpt>
      <trkpt lat="44.66876" lon="1.98504">
        <ele>314.595001</ele>
        <time>2018-05-25T11:36:52Z</time>
      </trkpt>
      <trkpt lat="44.66869" lon="1.98499">
        <ele>315.220001</ele>
        <time>2018-05-25T11:36:58Z</time>
      </trkpt>
      <trkpt lat="44.66862" lon="1.98494">
        <ele>315.276001</ele>
        <time>2018-05-25T11:37:04Z</time>
      </trkpt>
      <trkpt lat="44.66855" lon="1.98489">
        <ele>315.743988</ele>
        <time>2018-05-25T11:37:11Z</time>
      </trkpt>
      <trkpt lat="44.66849" lon="1.98483">
        <ele>315.333008</ele>
        <time>2018-05-25T11:37:18Z</time>
      </trkpt>
      <trkpt lat="44.66842" lon="1.98478">
        <ele>315.906006</ele>
        <time>2018-05-25T11:37:25Z</time>
      </trkpt>
      <trkpt lat="44.66835" lon="1.98473">
        <ele>316.105988</ele>
        <time>2018-05-25T11:37:32Z</time>
      </trkpt>
      <trkpt lat="44.66829" lon="1.98467">
        <ele>316.502991</ele>
        <time>2018-05-25T11:37:39Z</time>
      </trkpt>
      <trkpt lat="44.66823" lon="1.9846">
        <ele>316.915009</ele>
        <time>2018-05-25T11:37:46Z</time>
      </trkpt>
      <trkpt lat="44.66817" lon="1.98453">
        <ele>317.276001</ele>
        <time>2018-05-25T11:37:54Z</time>
      </trkpt>
      <trkpt lat="44.6681" lon="1.98447">
        <ele>316.963013</ele>
        <time>2018-05-25T11:38:01Z</time>
      </trkpt>
      <trkpt lat="44.66802" lon="1.98443">
        <ele>316.518005</ele>
        <time>2018-05-25T11:38:07Z</time>
      </trkpt>
      <trkpt lat="44.66795" lon="1.98439">
        <ele>317.266998</ele>
        <time>2018-05-25T11:38:13Z</time>
      </trkpt>
      <trkpt lat="44.66788" lon="1.98435">
        <ele>317.971008</ele>
        <time>2018-05-25T11:38:19Z</time>
      </trkpt>
      <trkpt lat="44.66781" lon="1.98431">
        <ele>316.431</ele>
        <time>2018-05-25T11:38:25Z</time>
      </trkpt>
      <trkpt lat="44.66774" lon="1.98427">
        <ele>316.755005</ele>
        <time>2018-05-25T11:38:31Z</time>
      </trkpt>
      <trkpt lat="44.66766" lon="1.98424">
        <ele>315.829987</ele>
        <time>2018-05-25T11:38:37Z</time>
      </trkpt>
      <trkpt lat="44.6676" lon="1.98419">
        <ele>316.502014</ele>
        <time>2018-05-25T11:38:44Z</time>
      </trkpt>
      <trkpt lat="44.66752" lon="1.98415">
        <ele>317.367004</ele>
        <time>2018-05-25T11:38:51Z</time>
      </trkpt>
      <trkpt lat="44.66745" lon="1.98409">
        <ele>316.804993</ele>
        <time>2018-05-25T11:38:58Z</time>
      </trkpt>
      <trkpt lat="44.66738" lon="1.98404">
        <ele>316.927002</ele>
        <time>2018-05-25T11:39:04Z</time>
      </trkpt>
      <trkpt lat="44.66731" lon="1.98401">
        <ele>314.897003</ele>
        <time>2018-05-25T11:39:12Z</time>
      </trkpt>
      <trkpt lat="44.66724" lon="1.98399">
        <ele>313.144989</ele>
        <time>2018-05-25T11:39:19Z</time>
      </trkpt>
      <trkpt lat="44.66716" lon="1.98403">
        <ele>309.96701</ele>
        <time>2018-05-25T11:39:26Z</time>
      </trkpt>
      <trkpt lat="44.66709" lon="1.98404">
        <ele>308.584991</ele>
        <time>2018-05-25T11:39:32Z</time>
      </trkpt>
      <trkpt lat="44.66701" lon="1.98402">
        <ele>307.652008</ele>
        <time>2018-05-25T11:39:40Z</time>
      </trkpt>
      <trkpt lat="44.66693" lon="1.98401">
        <ele>306.721985</ele>
        <time>2018-05-25T11:39:48Z</time>
      </trkpt>
      <trkpt lat="44.66685" lon="1.984">
        <ele>305.735992</ele>
        <time>2018-05-25T11:39:55Z</time>
      </trkpt>
      <trkpt lat="44.66677" lon="1.98399">
        <ele>305.544006</ele>
        <time>2018-05-25T11:40:02Z</time>
      </trkpt>
      <trkpt lat="44.6667" lon="1.98398">
        <ele>305.233002</ele>
        <time>2018-05-25T11:40:09Z</time>
      </trkpt>
      <trkpt lat="44.66662" lon="1.98395">
        <ele>305.147003</ele>
        <time>2018-05-25T11:40:16Z</time>
      </trkpt>
      <trkpt lat="44.66655" lon="1.98392">
        <ele>303.541992</ele>
        <time>2018-05-25T11:40:23Z</time>
      </trkpt>
      <trkpt lat="44.66649" lon="1.98384">
        <ele>303.424011</ele>
        <time>2018-05-25T11:40:32Z</time>
      </trkpt>
      <trkpt lat="44.66645" lon="1.98376">
        <ele>302.005005</ele>
        <time>2018-05-25T11:40:40Z</time>
      </trkpt>
      <trkpt lat="44.66639" lon="1.9837">
        <ele>301.378998</ele>
        <time>2018-05-25T11:40:47Z</time>
      </trkpt>
      <trkpt lat="44.66633" lon="1.98362">
        <ele>299.118011</ele>
        <time>2018-05-25T11:40:56Z</time>
      </trkpt>
      <trkpt lat="44.66626" lon="1.98356">
        <ele>299.095001</ele>
        <time>2018-05-25T11:41:03Z</time>
      </trkpt>
      <trkpt lat="44.66619" lon="1.98353">
        <ele>298.505005</ele>
        <time>2018-05-25T11:41:09Z</time>
      </trkpt>
      <trkpt lat="44.66613" lon="1.98347">
        <ele>296.977997</ele>
        <time>2018-05-25T11:41:16Z</time>
      </trkpt>
      <trkpt lat="44.66606" lon="1.98341">
        <ele>295.415009</ele>
        <time>2018-05-25T11:41:24Z</time>
      </trkpt>
      <trkpt lat="44.66602" lon="1.98332">
        <ele>294.192993</ele>
        <time>2018-05-25T11:41:33Z</time>
      </trkpt>
      <trkpt lat="44.66599" lon="1.98323">
        <ele>293.209991</ele>
        <time>2018-05-25T11:41:40Z</time>
      </trkpt>
      <trkpt lat="44.66597" lon="1.98312">
        <ele>292.031006</ele>
        <time>2018-05-25T11:41:48Z</time>
      </trkpt>
      <trkpt lat="44.66596" lon="1.98302">
        <ele>289.86499</ele>
        <time>2018-05-25T11:41:56Z</time>
      </trkpt>
      <trkpt lat="44.66594" lon="1.98292">
        <ele>289.200989</ele>
        <time>2018-05-25T11:42:02Z</time>
      </trkpt>
      <trkpt lat="44.66596" lon="1.98282">
        <ele>286.894989</ele>
        <time>2018-05-25T11:42:14Z</time>
      </trkpt>
      <trkpt lat="44.66592" lon="1.98272">
        <ele>284.631012</ele>
        <time>2018-05-25T11:42:26Z</time>
      </trkpt>
      <trkpt lat="44.66585" lon="1.9827">
        <ele>283.908997</ele>
        <time>2018-05-25T11:42:36Z</time>
      </trkpt>
      <trkpt lat="44.66577" lon="1.98266">
        <ele>283.739014</ele>
        <time>2018-05-25T11:42:44Z</time>
      </trkpt>
      <trkpt lat="44.6657" lon="1.98263">
        <ele>283.950012</ele>
        <time>2018-05-25T11:42:56Z</time>
      </trkpt>
      <trkpt lat="44.66563" lon="1.98257">
        <ele>282.255005</ele>
        <time>2018-05-25T11:43:02Z</time>
      </trkpt>
      <trkpt lat="44.66563" lon="1.98247">
        <ele>279.033997</ele>
        <time>2018-05-25T11:43:10Z</time>
      </trkpt>
      <trkpt lat="44.66563" lon="1.98235">
        <ele>276.158997</ele>
        <time>2018-05-25T11:43:27Z</time>
      </trkpt>
      <trkpt lat="44.66561" lon="1.98225">
        <ele>275.975006</ele>
        <time>2018-05-25T11:43:35Z</time>
      </trkpt>
      <trkpt lat="44.66559" lon="1.98215">
        <ele>275.454987</ele>
        <time>2018-05-25T11:43:43Z</time>
      </trkpt>
      <trkpt lat="44.66558" lon="1.98204">
        <ele>274.444</ele>
        <time>2018-05-25T11:43:50Z</time>
      </trkpt>
      <trkpt lat="44.66556" lon="1.98194">
        <ele>272.848999</ele>
        <time>2018-05-25T11:43:57Z</time>
      </trkpt>
      <trkpt lat="44.66556" lon="1.98183">
        <ele>272.02301</ele>
        <time>2018-05-25T11:44:04Z</time>
      </trkpt>
      <trkpt lat="44.66554" lon="1.98171">
        <ele>271.544006</ele>
        <time>2018-05-25T11:44:12Z</time>
      </trkpt>
      <trkpt lat="44.6655" lon="1.98161">
        <ele>270.036987</ele>
        <time>2018-05-25T11:44:22Z</time>
      </trkpt>
      <trkpt lat="44.66544" lon="1.98153">
        <ele>268.915009</ele>
        <time>2018-05-25T11:44:29Z</time>
      </trkpt>
      <trkpt lat="44.6654" lon="1.98144">
        <ele>269.957001</ele>
        <time>2018-05-25T11:44:35Z</time>
      </trkpt>
      <trkpt lat="44.66533" lon="1.98137">
        <ele>269.807007</ele>
        <time>2018-05-25T11:44:41Z</time>
      </trkpt>
      <trkpt lat="44.66527" lon="1.9813">
        <ele>269.127991</ele>
        <time>2018-05-25T11:44:49Z</time>
      </trkpt>
      <trkpt lat="44.66521" lon="1.98123">
        <ele>267.863007</ele>
        <time>2018-05-25T11:44:55Z</time>
      </trkpt>
      <trkpt lat="44.66516" lon="1.98113">
        <ele>266.326996</ele>
        <time>2018-05-25T11:45:02Z</time>
      </trkpt>
      <trkpt lat="44.6651" lon="1.98109">
        <ele>265.528992</ele>
        <time>2018-05-25T11:45:10Z</time>
      </trkpt>
      <trkpt lat="44.66502" lon="1.98107">
        <ele>264.139008</ele>
        <time>2018-05-25T11:45:17Z</time>
      </trkpt>
      <trkpt lat="44.66496" lon="1.98102">
        <ele>262.141998</ele>
        <time>2018-05-25T11:45:23Z</time>
      </trkpt>
      <trkpt lat="44.66489" lon="1.98098">
        <ele>261.582001</ele>
        <time>2018-05-25T11:45:28Z</time>
      </trkpt>
      <trkpt lat="44.66481" lon="1.98094">
        <ele>261.514008</ele>
        <time>2018-05-25T11:45:34Z</time>
      </trkpt>
      <trkpt lat="44.66474" lon="1.98089">
        <ele>261.484009</ele>
        <time>2018-05-25T11:45:40Z</time>
      </trkpt>
      <trkpt lat="44.66466" lon="1.98087">
        <ele>259.972992</ele>
        <time>2018-05-25T11:45:47Z</time>
      </trkpt>
      <trkpt lat="44.66458" lon="1.98082">
        <ele>258.348999</ele>
        <time>2018-05-25T11:45:53Z</time>
      </trkpt>
      <trkpt lat="44.66451" lon="1.98077">
        <ele>257.740997</ele>
        <time>2018-05-25T11:45:59Z</time>
      </trkpt>
      <trkpt lat="44.66445" lon="1.98071">
        <ele>258.606995</ele>
        <time>2018-05-25T11:46:04Z</time>
      </trkpt>
      <trkpt lat="44.66437" lon="1.98068">
        <ele>258.946014</ele>
        <time>2018-05-25T11:46:11Z</time>
      </trkpt>
      <trkpt lat="44.66429" lon="1.98065">
        <ele>258.052002</ele>
        <time>2018-05-25T11:46:17Z</time>
      </trkpt>
      <trkpt lat="44.66422" lon="1.98062">
        <ele>256.716003</ele>
        <time>2018-05-25T11:46:25Z</time>
      </trkpt>
      <trkpt lat="44.66414" lon="1.9806">
        <ele>254.755005</ele>
        <time>2018-05-25T11:46:31Z</time>
      </trkpt>
      <trkpt lat="44.66406" lon="1.98063">
        <ele>252.313004</ele>
        <time>2018-05-25T11:46:37Z</time>
      </trkpt>
      <trkpt lat="44.66399" lon="1.98061">
        <ele>251.013</ele>
        <time>2018-05-25T11:46:43Z</time>
      </trkpt>
      <trkpt lat="44.66391" lon="1.98059">
        <ele>251.091003</ele>
        <time>2018-05-25T11:46:49Z</time>
      </trkpt>
      <trkpt lat="44.66383" lon="1.98057">
        <ele>250.988998</ele>
        <time>2018-05-25T11:46:54Z</time>
      </trkpt>
      <trkpt lat="44.66376" lon="1.98059">
        <ele>249.921005</ele>
        <time>2018-05-25T11:47:01Z</time>
      </trkpt>
      <trkpt lat="44.66368" lon="1.9806">
        <ele>248.363007</ele>
        <time>2018-05-25T11:47:09Z</time>
      </trkpt>
      <trkpt lat="44.66361" lon="1.9806">
        <ele>247.341003</ele>
        <time>2018-05-25T11:47:15Z</time>
      </trkpt>
      <trkpt lat="44.66353" lon="1.98061">
        <ele>246.891006</ele>
        <time>2018-05-25T11:47:21Z</time>
      </trkpt>
      <trkpt lat="44.66345" lon="1.98061">
        <ele>246.386993</ele>
        <time>2018-05-25T11:47:28Z</time>
      </trkpt>
      <trkpt lat="44.66337" lon="1.9806">
        <ele>244.951004</ele>
        <time>2018-05-25T11:47:34Z</time>
      </trkpt>
      <trkpt lat="44.66329" lon="1.9806">
        <ele>245.457001</ele>
        <time>2018-05-25T11:47:40Z</time>
      </trkpt>
      <trkpt lat="44.66321" lon="1.9806">
        <ele>243.408997</ele>
        <time>2018-05-25T11:47:46Z</time>
      </trkpt>
      <trkpt lat="44.66313" lon="1.98062">
        <ele>243.158997</ele>
        <time>2018-05-25T11:47:53Z</time>
      </trkpt>
      <trkpt lat="44.66306" lon="1.98062">
        <ele>243.335007</ele>
        <time>2018-05-25T11:47:58Z</time>
      </trkpt>
      <trkpt lat="44.66298" lon="1.98062">
        <ele>242.445007</ele>
        <time>2018-05-25T11:48:04Z</time>
      </trkpt>
      <trkpt lat="44.66289" lon="1.98062">
        <ele>242.639008</ele>
        <time>2018-05-25T11:48:12Z</time>
      </trkpt>
      <trkpt lat="44.66281" lon="1.98062">
        <ele>242.087006</ele>
        <time>2018-05-25T11:48:18Z</time>
      </trkpt>
      <trkpt lat="44.66279" lon="1.98072">
        <ele>242.802994</ele>
        <time>2018-05-25T11:48:30Z</time>
      </trkpt>
      <trkpt lat="44.66282" lon="1.98082">
        <ele>241.246994</ele>
        <time>2018-05-25T11:48:36Z</time>
      </trkpt>
      <trkpt lat="44.66285" lon="1.98091">
        <ele>240.677994</ele>
        <time>2018-05-25T11:48:43Z</time>
      </trkpt>
      <trkpt lat="44.66285" lon="1.98103">
        <ele>240.255005</ele>
        <time>2018-05-25T11:48:50Z</time>
      </trkpt>
      <trkpt lat="44.66288" lon="1.98113">
        <ele>238.770996</ele>
        <time>2018-05-25T11:48:56Z</time>
      </trkpt>
      <trkpt lat="44.66288" lon="1.98125">
        <ele>238.966003</ele>
        <time>2018-05-25T11:49:02Z</time>
      </trkpt>
      <trkpt lat="44.66289" lon="1.98136">
        <ele>240.184006</ele>
        <time>2018-05-25T11:49:08Z</time>
      </trkpt>
      <trkpt lat="44.66291" lon="1.98147">
        <ele>243.169998</ele>
        <time>2018-05-25T11:49:15Z</time>
      </trkpt>
      <trkpt lat="44.66294" lon="1.98158">
        <ele>247.057999</ele>
        <time>2018-05-25T11:49:22Z</time>
      </trkpt>
      <trkpt lat="44.66296" lon="1.98168">
        <ele>247.903</ele>
        <time>2018-05-25T11:49:28Z</time>
      </trkpt>
      <trkpt lat="44.66298" lon="1.98179">
        <ele>247.391006</ele>
        <time>2018-05-25T11:49:35Z</time>
      </trkpt>
      <trkpt lat="44.66301" lon="1.9819">
        <ele>246.873993</ele>
        <time>2018-05-25T11:49:41Z</time>
      </trkpt>
      <trkpt lat="44.66296" lon="1.98198">
        <ele>246.468994</ele>
        <time>2018-05-25T11:49:47Z</time>
      </trkpt>
      <trkpt lat="44.66289" lon="1.982">
        <ele>246.923996</ele>
        <time>2018-05-25T11:49:53Z</time>
      </trkpt>
      <trkpt lat="44.66281" lon="1.98199">
        <ele>246.662994</ele>
        <time>2018-05-25T11:50:00Z</time>
      </trkpt>
      <trkpt lat="44.66273" lon="1.98198">
        <ele>246.227005</ele>
        <time>2018-05-25T11:50:07Z</time>
      </trkpt>
      <trkpt lat="44.66265" lon="1.982">
        <ele>245.565994</ele>
        <time>2018-05-25T11:50:13Z</time>
      </trkpt>
      <trkpt lat="44.66257" lon="1.98203">
        <ele>244.115005</ele>
        <time>2018-05-25T11:50:20Z</time>
      </trkpt>
      <trkpt lat="44.66248" lon="1.98204">
        <ele>243.311996</ele>
        <time>2018-05-25T11:50:27Z</time>
      </trkpt>
      <trkpt lat="44.6624" lon="1.98204">
        <ele>242.432999</ele>
        <time>2018-05-25T11:50:42Z</time>
      </trkpt>
      <trkpt lat="44.66232" lon="1.98205">
        <ele>241.496994</ele>
        <time>2018-05-25T11:50:50Z</time>
      </trkpt>
      <trkpt lat="44.66224" lon="1.98205">
        <ele>241.722</ele>
        <time>2018-05-25T11:50:55Z</time>
      </trkpt>
      <trkpt lat="44.66217" lon="1.98205">
        <ele>240.682007</ele>
        <time>2018-05-25T11:51:02Z</time>
      </trkpt>
      <trkpt lat="44.66209" lon="1.98202">
        <ele>240.559006</ele>
        <time>2018-05-25T11:51:09Z</time>
      </trkpt>
      <trkpt lat="44.66202" lon="1.98197">
        <ele>239.233994</ele>
        <time>2018-05-25T11:51:17Z</time>
      </trkpt>
      <trkpt lat="44.66195" lon="1.98192">
        <ele>238.417007</ele>
        <time>2018-05-25T11:51:23Z</time>
      </trkpt>
      <trkpt lat="44.66187" lon="1.9819">
        <ele>237.263</ele>
        <time>2018-05-25T11:51:29Z</time>
      </trkpt>
      <trkpt lat="44.6618" lon="1.98187">
        <ele>236.095993</ele>
        <time>2018-05-25T11:51:35Z</time>
      </trkpt>
      <trkpt lat="44.66172" lon="1.98187">
        <ele>235.699997</ele>
        <time>2018-05-25T11:51:41Z</time>
      </trkpt>
      <trkpt lat="44.66164" lon="1.98189">
        <ele>235.085999</ele>
        <time>2018-05-25T11:51:47Z</time>
      </trkpt>
      <trkpt lat="44.66156" lon="1.98191">
        <ele>235.789001</ele>
        <time>2018-05-25T11:51:54Z</time>
      </trkpt>
      <trkpt lat="44.66148" lon="1.9819">
        <ele>235.606995</ele>
        <time>2018-05-25T11:52:00Z</time>
      </trkpt>
      <trkpt lat="44.6614" lon="1.98191">
        <ele>234.141006</ele>
        <time>2018-05-25T11:52:05Z</time>
      </trkpt>
      <trkpt lat="44.66132" lon="1.98193">
        <ele>234.378006</ele>
        <time>2018-05-25T11:52:10Z</time>
      </trkpt>
      <trkpt lat="44.66124" lon="1.98196">
        <ele>234.492996</ele>
        <time>2018-05-25T11:52:17Z</time>
      </trkpt>
      <trkpt lat="44.66116" lon="1.98197">
        <ele>234.813004</ele>
        <time>2018-05-25T11:52:23Z</time>
      </trkpt>
      <trkpt lat="44.66109" lon="1.982">
        <ele>233.882004</ele>
        <time>2018-05-25T11:52:30Z</time>
      </trkpt>
      <trkpt lat="44.66101" lon="1.98203">
        <ele>232.658997</ele>
        <time>2018-05-25T11:52:38Z</time>
      </trkpt>
      <trkpt lat="44.66093" lon="1.98206">
        <ele>231.755005</ele>
        <time>2018-05-25T11:52:45Z</time>
      </trkpt>
      <trkpt lat="44.66085" lon="1.98208">
        <ele>230.477997</ele>
        <time>2018-05-25T11:52:52Z</time>
      </trkpt>
      <trkpt lat="44.66077" lon="1.98209">
        <ele>231.457001</ele>
        <time>2018-05-25T11:52:59Z</time>
      </trkpt>
      <trkpt lat="44.6607" lon="1.98211">
        <ele>230.940002</ele>
        <time>2018-05-25T11:53:05Z</time>
      </trkpt>
      <trkpt lat="44.66062" lon="1.98215">
        <ele>229.348007</ele>
        <time>2018-05-25T11:53:12Z</time>
      </trkpt>
      <trkpt lat="44.66056" lon="1.9822">
        <ele>228.744995</ele>
        <time>2018-05-25T11:53:17Z</time>
      </trkpt>
      <trkpt lat="44.66051" lon="1.98229">
        <ele>227.785004</ele>
        <time>2018-05-25T11:53:23Z</time>
      </trkpt>
      <trkpt lat="44.66049" lon="1.9824">
        <ele>226.867996</ele>
        <time>2018-05-25T11:53:29Z</time>
      </trkpt>
      <trkpt lat="44.66046" lon="1.9825">
        <ele>225.994003</ele>
        <time>2018-05-25T11:53:35Z</time>
      </trkpt>
      <trkpt lat="44.66042" lon="1.9826">
        <ele>225.076004</ele>
        <time>2018-05-25T11:53:41Z</time>
      </trkpt>
      <trkpt lat="44.66038" lon="1.9827">
        <ele>225.235992</ele>
        <time>2018-05-25T11:53:47Z</time>
      </trkpt>
      <trkpt lat="44.66035" lon="1.98281">
        <ele>224.617996</ele>
        <time>2018-05-25T11:53:53Z</time>
      </trkpt>
      <trkpt lat="44.66034" lon="1.98292">
        <ele>223.847</ele>
        <time>2018-05-25T11:53:59Z</time>
      </trkpt>
      <trkpt lat="44.66035" lon="1.98302">
        <ele>223.813995</ele>
        <time>2018-05-25T11:54:05Z</time>
      </trkpt>
      <trkpt lat="44.66035" lon="1.98313">
        <ele>223.654999</ele>
        <time>2018-05-25T11:54:11Z</time>
      </trkpt>
      <trkpt lat="44.66035" lon="1.98324">
        <ele>223.061005</ele>
        <time>2018-05-25T11:54:18Z</time>
      </trkpt>
      <trkpt lat="44.66033" lon="1.98335">
        <ele>223.283005</ele>
        <time>2018-05-25T11:54:25Z</time>
      </trkpt>
      <trkpt lat="44.66031" lon="1.98345">
        <ele>222.722</ele>
        <time>2018-05-25T11:54:31Z</time>
      </trkpt>
      <trkpt lat="44.66027" lon="1.98355">
        <ele>222.050003</ele>
        <time>2018-05-25T11:54:36Z</time>
      </trkpt>
      <trkpt lat="44.66023" lon="1.98365">
        <ele>221.266998</ele>
        <time>2018-05-25T11:54:42Z</time>
      </trkpt>
      <trkpt lat="44.6602" lon="1.98375">
        <ele>222.050995</ele>
        <time>2018-05-25T11:54:48Z</time>
      </trkpt>
      <trkpt lat="44.66017" lon="1.98385">
        <ele>222.839996</ele>
        <time>2018-05-25T11:54:54Z</time>
      </trkpt>
      <trkpt lat="44.66012" lon="1.98395">
        <ele>223.628006</ele>
        <time>2018-05-25T11:55:00Z</time>
      </trkpt>
      <trkpt lat="44.66009" lon="1.98406">
        <ele>224.348999</ele>
        <time>2018-05-25T11:55:06Z</time>
      </trkpt>
      <trkpt lat="44.66004" lon="1.98415">
        <ele>226.772003</ele>
        <time>2018-05-25T11:55:12Z</time>
      </trkpt>
      <trkpt lat="44.66001" lon="1.98425">
        <ele>228.789001</ele>
        <time>2018-05-25T11:55:18Z</time>
      </trkpt>
      <trkpt lat="44.65997" lon="1.98434">
        <ele>229.927002</ele>
        <time>2018-05-25T11:55:26Z</time>
      </trkpt>
      <trkpt lat="44.65994" lon="1.98445">
        <ele>231.647003</ele>
        <time>2018-05-25T11:55:33Z</time>
      </trkpt>
      <trkpt lat="44.65991" lon="1.98454">
        <ele>231.927994</ele>
        <time>2018-05-25T11:55:41Z</time>
      </trkpt>
      <trkpt lat="44.65987" lon="1.98463">
        <ele>231.628006</ele>
        <time>2018-05-25T11:55:48Z</time>
      </trkpt>
      <trkpt lat="44.65986" lon="1.98474">
        <ele>231.078995</ele>
        <time>2018-05-25T11:56:06Z</time>
      </trkpt>
      <trkpt lat="44.65985" lon="1.98484">
        <ele>232.414993</ele>
        <time>2018-05-25T11:56:15Z</time>
      </trkpt>
      <trkpt lat="44.65983" lon="1.98494">
        <ele>232.800995</ele>
        <time>2018-05-25T11:56:23Z</time>
      </trkpt>
      <trkpt lat="44.65981" lon="1.98504">
        <ele>233.343002</ele>
        <time>2018-05-25T11:56:30Z</time>
      </trkpt>
      <trkpt lat="44.6598" lon="1.98514">
        <ele>233.108002</ele>
        <time>2018-05-25T11:56:36Z</time>
      </trkpt>
      <trkpt lat="44.65978" lon="1.98525">
        <ele>233.751999</ele>
        <time>2018-05-25T11:56:43Z</time>
      </trkpt>
      <trkpt lat="44.65976" lon="1.98537">
        <ele>234.451996</ele>
        <time>2018-05-25T11:56:50Z</time>
      </trkpt>
      <trkpt lat="44.65974" lon="1.98546">
        <ele>234.552994</ele>
        <time>2018-05-25T11:57:15Z</time>
      </trkpt>
      <trkpt lat="44.65974" lon="1.98557">
        <ele>236.817993</ele>
        <time>2018-05-25T11:57:30Z</time>
      </trkpt>
      <trkpt lat="44.65973" lon="1.98567">
        <ele>237.712006</ele>
        <time>2018-05-25T11:57:40Z</time>
      </trkpt>
      <trkpt lat="44.6597" lon="1.98577">
        <ele>238.557007</ele>
        <time>2018-05-25T11:57:52Z</time>
      </trkpt>
      <trkpt lat="44.65965" lon="1.98584">
        <ele>239.080002</ele>
        <time>2018-05-25T11:57:58Z</time>
      </trkpt>
      <trkpt lat="44.65963" lon="1.98594">
        <ele>240.212006</ele>
        <time>2018-05-25T11:58:07Z</time>
      </trkpt>
      <trkpt lat="44.65956" lon="1.98596">
        <ele>240.932007</ele>
        <time>2018-05-25T11:58:13Z</time>
      </trkpt>
      <trkpt lat="44.65948" lon="1.986">
        <ele>241.345993</ele>
        <time>2018-05-25T11:58:19Z</time>
      </trkpt>
      <trkpt lat="44.65942" lon="1.98605">
        <ele>241.910004</ele>
        <time>2018-05-25T11:58:25Z</time>
      </trkpt>
      <trkpt lat="44.65935" lon="1.98609">
        <ele>240.169998</ele>
        <time>2018-05-25T11:58:33Z</time>
      </trkpt>
      <trkpt lat="44.65929" lon="1.98616">
        <ele>239.792007</ele>
        <time>2018-05-25T11:58:40Z</time>
      </trkpt>
      <trkpt lat="44.65924" lon="1.98624">
        <ele>242.358002</ele>
        <time>2018-05-25T11:58:47Z</time>
      </trkpt>
      <trkpt lat="44.65917" lon="1.9863">
        <ele>245.257996</ele>
        <time>2018-05-25T11:58:52Z</time>
      </trkpt>
      <trkpt lat="44.65911" lon="1.98636">
        <ele>247.235001</ele>
        <time>2018-05-25T11:58:57Z</time>
      </trkpt>
      <trkpt lat="44.65904" lon="1.98642">
        <ele>247.789001</ele>
        <time>2018-05-25T11:59:05Z</time>
      </trkpt>
      <trkpt lat="44.65897" lon="1.98647">
        <ele>248.085007</ele>
        <time>2018-05-25T11:59:12Z</time>
      </trkpt>
      <trkpt lat="44.6589" lon="1.98653">
        <ele>248.625</ele>
        <time>2018-05-25T11:59:18Z</time>
      </trkpt>
      <trkpt lat="44.65884" lon="1.98658">
        <ele>248.860992</ele>
        <time>2018-05-25T11:59:24Z</time>
      </trkpt>
      <trkpt lat="44.65878" lon="1.98663">
        <ele>249.020004</ele>
        <time>2018-05-25T11:59:30Z</time>
      </trkpt>
      <trkpt lat="44.65871" lon="1.98668">
        <ele>249.188995</ele>
        <time>2018-05-25T11:59:37Z</time>
      </trkpt>
      <trkpt lat="44.65865" lon="1.98674">
        <ele>248.313995</ele>
        <time>2018-05-25T11:59:44Z</time>
      </trkpt>
      <trkpt lat="44.65859" lon="1.98682">
        <ele>246.356003</ele>
        <time>2018-05-25T11:59:51Z</time>
      </trkpt>
      <trkpt lat="44.65852" lon="1.98689">
        <ele>245.162003</ele>
        <time>2018-05-25T11:59:58Z</time>
      </trkpt>
      <trkpt lat="44.65846" lon="1.98695">
        <ele>244.557999</ele>
        <time>2018-05-25T12:00:05Z</time>
      </trkpt>
      <trkpt lat="44.65839" lon="1.98703">
        <ele>244.563004</ele>
        <time>2018-05-25T12:00:12Z</time>
      </trkpt>
      <trkpt lat="44.65833" lon="1.98709">
        <ele>244.606995</ele>
        <time>2018-05-25T12:00:18Z</time>
      </trkpt>
      <trkpt lat="44.65827" lon="1.98714">
        <ele>246.574997</ele>
        <time>2018-05-25T12:00:41Z</time>
      </trkpt>
      <trkpt lat="44.65821" lon="1.98722">
        <ele>246.770004</ele>
        <time>2018-05-25T12:00:48Z</time>
      </trkpt>
      <trkpt lat="44.65816" lon="1.98729">
        <ele>247.511993</ele>
        <time>2018-05-25T12:00:55Z</time>
      </trkpt>
      <trkpt lat="44.65811" lon="1.98737">
        <ele>248.537003</ele>
        <time>2018-05-25T12:01:01Z</time>
      </trkpt>
      <trkpt lat="44.65806" lon="1.98746">
        <ele>250.104004</ele>
        <time>2018-05-25T12:01:08Z</time>
      </trkpt>
      <trkpt lat="44.65804" lon="1.98756">
        <ele>251.098007</ele>
        <time>2018-05-25T12:01:14Z</time>
      </trkpt>
      <trkpt lat="44.65801" lon="1.98766">
        <ele>252.322998</ele>
        <time>2018-05-25T12:01:26Z</time>
      </trkpt>
      <trkpt lat="44.65798" lon="1.98777">
        <ele>256.593994</ele>
        <time>2018-05-25T12:01:33Z</time>
      </trkpt>
      <trkpt lat="44.65799" lon="1.98788">
        <ele>258.513</ele>
        <time>2018-05-25T12:01:42Z</time>
      </trkpt>
      <trkpt lat="44.65801" lon="1.98799">
        <ele>258.902008</ele>
        <time>2018-05-25T12:01:50Z</time>
      </trkpt>
      <trkpt lat="44.658" lon="1.9881">
        <ele>258.667999</ele>
        <time>2018-05-25T12:01:59Z</time>
      </trkpt>
      <trkpt lat="44.65802" lon="1.98821">
        <ele>259.161011</ele>
        <time>2018-05-25T12:02:08Z</time>
      </trkpt>
      <trkpt lat="44.65805" lon="1.98832">
        <ele>259.881989</ele>
        <time>2018-05-25T12:02:17Z</time>
      </trkpt>
      <trkpt lat="44.65802" lon="1.98842">
        <ele>260.666992</ele>
        <time>2018-05-25T12:02:24Z</time>
      </trkpt>
      <trkpt lat="44.658" lon="1.98853">
        <ele>262.490997</ele>
        <time>2018-05-25T12:02:31Z</time>
      </trkpt>
      <trkpt lat="44.65799" lon="1.98863">
        <ele>264.072998</ele>
        <time>2018-05-25T12:02:38Z</time>
      </trkpt>
      <trkpt lat="44.65798" lon="1.98873">
        <ele>267.653015</ele>
        <time>2018-05-25T12:02:46Z</time>
      </trkpt>
      <trkpt lat="44.65797" lon="1.98883">
        <ele>269.540985</ele>
        <time>2018-05-25T12:02:57Z</time>
      </trkpt>
      <trkpt lat="44.65795" lon="1.98893">
        <ele>269.77301</ele>
        <time>2018-05-25T12:03:05Z</time>
      </trkpt>
      <trkpt lat="44.65792" lon="1.98903">
        <ele>269.503998</ele>
        <time>2018-05-25T12:03:12Z</time>
      </trkpt>
      <trkpt lat="44.6579" lon="1.98913">
        <ele>268.910004</ele>
        <time>2018-05-25T12:03:19Z</time>
      </trkpt>
      <trkpt lat="44.65787" lon="1.98923">
        <ele>268.898987</ele>
        <time>2018-05-25T12:03:25Z</time>
      </trkpt>
      <trkpt lat="44.65784" lon="1.98932">
        <ele>268.963989</ele>
        <time>2018-05-25T12:03:31Z</time>
      </trkpt>
      <trkpt lat="44.65781" lon="1.98942">
        <ele>269.785004</ele>
        <time>2018-05-25T12:03:38Z</time>
      </trkpt>
      <trkpt lat="44.65778" lon="1.98953">
        <ele>270.67099</ele>
        <time>2018-05-25T12:03:45Z</time>
      </trkpt>
      <trkpt lat="44.65775" lon="1.98963">
        <ele>272.352997</ele>
        <time>2018-05-25T12:03:53Z</time>
      </trkpt>
      <trkpt lat="44.65772" lon="1.98973">
        <ele>273.820007</ele>
        <time>2018-05-25T12:04:00Z</time>
      </trkpt>
      <trkpt lat="44.6577" lon="1.98983">
        <ele>274.877991</ele>
        <time>2018-05-25T12:04:21Z</time>
      </trkpt>
      <trkpt lat="44.65769" lon="1.98994">
        <ele>274.234009</ele>
        <time>2018-05-25T12:04:29Z</time>
      </trkpt>
      <trkpt lat="44.65768" lon="1.99005">
        <ele>274.934998</ele>
        <time>2018-05-25T12:04:37Z</time>
      </trkpt>
      <trkpt lat="44.65766" lon="1.99016">
        <ele>274.96701</ele>
        <time>2018-05-25T12:04:44Z</time>
      </trkpt>
      <trkpt lat="44.65762" lon="1.99024">
        <ele>275.092987</ele>
        <time>2018-05-25T12:04:50Z</time>
      </trkpt>
      <trkpt lat="44.65758" lon="1.99034">
        <ele>274.877014</ele>
        <time>2018-05-25T12:04:59Z</time>
      </trkpt>
      <trkpt lat="44.65754" lon="1.99042">
        <ele>274.65799</ele>
        <time>2018-05-25T12:05:06Z</time>
      </trkpt>
      <trkpt lat="44.6575" lon="1.9905">
        <ele>274.833008</ele>
        <time>2018-05-25T12:05:14Z</time>
      </trkpt>
      <trkpt lat="44.65747" lon="1.99061">
        <ele>274.537994</ele>
        <time>2018-05-25T12:05:22Z</time>
      </trkpt>
      <trkpt lat="44.65745" lon="1.99072">
        <ele>274.903015</ele>
        <time>2018-05-25T12:05:29Z</time>
      </trkpt>
      <trkpt lat="44.65741" lon="1.99083">
        <ele>275.503998</ele>
        <time>2018-05-25T12:05:36Z</time>
      </trkpt>
      <trkpt lat="44.65737" lon="1.99092">
        <ele>278.963989</ele>
        <time>2018-05-25T12:05:48Z</time>
      </trkpt>
      <trkpt lat="44.65735" lon="1.99102">
        <ele>279.438995</ele>
        <time>2018-05-25T12:05:55Z</time>
      </trkpt>
      <trkpt lat="44.65733" lon="1.99112">
        <ele>280.39801</ele>
        <time>2018-05-25T12:06:02Z</time>
      </trkpt>
      <trkpt lat="44.6573" lon="1.99122">
        <ele>282.053009</ele>
        <time>2018-05-25T12:06:10Z</time>
      </trkpt>
      <trkpt lat="44.65727" lon="1.99131">
        <ele>282.721985</ele>
        <time>2018-05-25T12:06:17Z</time>
      </trkpt>
      <trkpt lat="44.65722" lon="1.99138">
        <ele>283.359009</ele>
        <time>2018-05-25T12:06:22Z</time>
      </trkpt>
      <trkpt lat="44.65717" lon="1.99147">
        <ele>283.894989</ele>
        <time>2018-05-25T12:06:29Z</time>
      </trkpt>
      <trkpt lat="44.65712" lon="1.99155">
        <ele>284.483002</ele>
        <time>2018-05-25T12:06:36Z</time>
      </trkpt>
      <trkpt lat="44.65708" lon="1.99164">
        <ele>284.69101</ele>
        <time>2018-05-25T12:06:42Z</time>
      </trkpt>
      <trkpt lat="44.65706" lon="1.99174">
        <ele>284.233002</ele>
        <time>2018-05-25T12:06:48Z</time>
      </trkpt>
      <trkpt lat="44.65702" lon="1.99184">
        <ele>284.950989</ele>
        <time>2018-05-25T12:06:57Z</time>
      </trkpt>
      <trkpt lat="44.65697" lon="1.99192">
        <ele>286.34201</ele>
        <time>2018-05-25T12:07:03Z</time>
      </trkpt>
      <trkpt lat="44.65693" lon="1.99201">
        <ele>284.752014</ele>
        <time>2018-05-25T12:07:09Z</time>
      </trkpt>
      <trkpt lat="44.65689" lon="1.99211">
        <ele>282.657013</ele>
        <time>2018-05-25T12:07:15Z</time>
      </trkpt>
      <trkpt lat="44.65686" lon="1.99221">
        <ele>282.269989</ele>
        <time>2018-05-25T12:07:39Z</time>
      </trkpt>
      <trkpt lat="44.65683" lon="1.99231">
        <ele>282.774994</ele>
        <time>2018-05-25T12:07:44Z</time>
      </trkpt>
      <trkpt lat="44.65679" lon="1.99239">
        <ele>283.640991</ele>
        <time>2018-05-25T12:07:50Z</time>
      </trkpt>
      <trkpt lat="44.65674" lon="1.99249">
        <ele>283.950989</ele>
        <time>2018-05-25T12:07:56Z</time>
      </trkpt>
      <trkpt lat="44.65677" lon="1.99258">
        <ele>282.598999</ele>
        <time>2018-05-25T12:08:12Z</time>
      </trkpt>
      <trkpt lat="44.65685" lon="1.99257">
        <ele>283.092987</ele>
        <time>2018-05-25T12:08:19Z</time>
      </trkpt>
      <trkpt lat="44.65692" lon="1.99253">
        <ele>282.553986</ele>
        <time>2018-05-25T12:08:26Z</time>
      </trkpt>
      <trkpt lat="44.657" lon="1.9925">
        <ele>282.197998</ele>
        <time>2018-05-25T12:08:35Z</time>
      </trkpt>
      <trkpt lat="44.65708" lon="1.9925">
        <ele>281.977997</ele>
        <time>2018-05-25T12:08:42Z</time>
      </trkpt>
      <trkpt lat="44.65716" lon="1.99249">
        <ele>282.739014</ele>
        <time>2018-05-25T12:08:49Z</time>
      </trkpt>
      <trkpt lat="44.65724" lon="1.99246">
        <ele>282.76001</ele>
        <time>2018-05-25T12:08:56Z</time>
      </trkpt>
      <trkpt lat="44.65731" lon="1.99245">
        <ele>283.699005</ele>
        <time>2018-05-25T12:09:02Z</time>
      </trkpt>
      <trkpt lat="44.65738" lon="1.99249">
        <ele>283.885986</ele>
        <time>2018-05-25T12:09:09Z</time>
      </trkpt>
      <trkpt lat="44.65746" lon="1.99251">
        <ele>284.966003</ele>
        <time>2018-05-25T12:09:17Z</time>
      </trkpt>
      <trkpt lat="44.65753" lon="1.99252">
        <ele>285.579987</ele>
        <time>2018-05-25T12:09:23Z</time>
      </trkpt>
      <trkpt lat="44.65761" lon="1.99254">
        <ele>286.391998</ele>
        <time>2018-05-25T12:09:29Z</time>
      </trkpt>
      <trkpt lat="44.65769" lon="1.99252">
        <ele>287.735992</ele>
        <time>2018-05-25T12:09:36Z</time>
      </trkpt>
      <trkpt lat="44.65776" lon="1.99248">
        <ele>288.554993</ele>
        <time>2018-05-25T12:09:42Z</time>
      </trkpt>
      <trkpt lat="44.65783" lon="1.99243">
        <ele>289.450989</ele>
        <time>2018-05-25T12:09:48Z</time>
      </trkpt>
      <trkpt lat="44.6579" lon="1.99239">
        <ele>289.752014</ele>
        <time>2018-05-25T12:09:55Z</time>
      </trkpt>
      <trkpt lat="44.65798" lon="1.99236">
        <ele>290.980988</ele>
        <time>2018-05-25T12:10:02Z</time>
      </trkpt>
      <trkpt lat="44.65806" lon="1.99233">
        <ele>292.368988</ele>
        <time>2018-05-25T12:10:11Z</time>
      </trkpt>
      <trkpt lat="44.65812" lon="1.99227">
        <ele>291.424011</ele>
        <time>2018-05-25T12:10:17Z</time>
      </trkpt>
      <trkpt lat="44.6582" lon="1.99227">
        <ele>293.147003</ele>
        <time>2018-05-25T12:10:24Z</time>
      </trkpt>
      <trkpt lat="44.65828" lon="1.99226">
        <ele>294.115997</ele>
        <time>2018-05-25T12:10:30Z</time>
      </trkpt>
      <trkpt lat="44.65835" lon="1.99223">
        <ele>296.652008</ele>
        <time>2018-05-25T12:10:37Z</time>
      </trkpt>
      <trkpt lat="44.65841" lon="1.99218">
        <ele>298.907013</ele>
        <time>2018-05-25T12:10:45Z</time>
      </trkpt>
      <trkpt lat="44.65848" lon="1.99212">
        <ele>299.454987</ele>
        <time>2018-05-25T12:10:52Z</time>
      </trkpt>
      <trkpt lat="44.65855" lon="1.9921">
        <ele>298.800995</ele>
        <time>2018-05-25T12:10:59Z</time>
      </trkpt>
      <trkpt lat="44.65863" lon="1.99206">
        <ele>298.825012</ele>
        <time>2018-05-25T12:11:06Z</time>
      </trkpt>
      <trkpt lat="44.6587" lon="1.99203">
        <ele>299.04599</ele>
        <time>2018-05-25T12:11:13Z</time>
      </trkpt>
      <trkpt lat="44.65877" lon="1.992">
        <ele>299.335999</ele>
        <time>2018-05-25T12:11:20Z</time>
      </trkpt>
      <trkpt lat="44.65885" lon="1.99198">
        <ele>298.785004</ele>
        <time>2018-05-25T12:11:28Z</time>
      </trkpt>
      <trkpt lat="44.65892" lon="1.99195">
        <ele>297.475006</ele>
        <time>2018-05-25T12:11:39Z</time>
      </trkpt>
      <trkpt lat="44.659" lon="1.99192">
        <ele>297.093994</ele>
        <time>2018-05-25T12:11:47Z</time>
      </trkpt>
      <trkpt lat="44.65908" lon="1.99188">
        <ele>297.843994</ele>
        <time>2018-05-25T12:11:55Z</time>
      </trkpt>
      <trkpt lat="44.65916" lon="1.99185">
        <ele>299.852997</ele>
        <time>2018-05-25T12:12:02Z</time>
      </trkpt>
      <trkpt lat="44.65923" lon="1.99183">
        <ele>301.746002</ele>
        <time>2018-05-25T12:12:10Z</time>
      </trkpt>
      <trkpt lat="44.6593" lon="1.99181">
        <ele>302.677002</ele>
        <time>2018-05-25T12:12:54Z</time>
      </trkpt>
      <trkpt lat="44.65938" lon="1.9918">
        <ele>302.674011</ele>
        <time>2018-05-25T12:13:01Z</time>
      </trkpt>
      <trkpt lat="44.65946" lon="1.9918">
        <ele>303.196991</ele>
        <time>2018-05-25T12:13:09Z</time>
      </trkpt>
      <trkpt lat="44.65953" lon="1.9918">
        <ele>303.104004</ele>
        <time>2018-05-25T12:13:15Z</time>
      </trkpt>
      <trkpt lat="44.65961" lon="1.99179">
        <ele>302.950989</ele>
        <time>2018-05-25T12:13:21Z</time>
      </trkpt>
      <trkpt lat="44.65968" lon="1.99183">
        <ele>302.686005</ele>
        <time>2018-05-25T12:13:28Z</time>
      </trkpt>
      <trkpt lat="44.65974" lon="1.99187">
        <ele>302.884003</ele>
        <time>2018-05-25T12:13:34Z</time>
      </trkpt>
      <trkpt lat="44.6598" lon="1.99194">
        <ele>302.858002</ele>
        <time>2018-05-25T12:13:40Z</time>
      </trkpt>
      <trkpt lat="44.65986" lon="1.99201">
        <ele>303.97699</ele>
        <time>2018-05-25T12:13:48Z</time>
      </trkpt>
      <trkpt lat="44.65994" lon="1.99204">
        <ele>304.911011</ele>
        <time>2018-05-25T12:13:54Z</time>
      </trkpt>
      <trkpt lat="44.66" lon="1.9921">
        <ele>305.272003</ele>
        <time>2018-05-25T12:14:01Z</time>
      </trkpt>
      <trkpt lat="44.66008" lon="1.99215">
        <ele>306.10199</ele>
        <time>2018-05-25T12:14:08Z</time>
      </trkpt>
      <trkpt lat="44.66015" lon="1.99219">
        <ele>307.040985</ele>
        <time>2018-05-25T12:14:14Z</time>
      </trkpt>
      <trkpt lat="44.66022" lon="1.99222">
        <ele>308.446014</ele>
        <time>2018-05-25T12:14:20Z</time>
      </trkpt>
      <trkpt lat="44.66029" lon="1.99224">
        <ele>309.796997</ele>
        <time>2018-05-25T12:14:27Z</time>
      </trkpt>
      <trkpt lat="44.66037" lon="1.99226">
        <ele>311.085999</ele>
        <time>2018-05-25T12:14:36Z</time>
      </trkpt>
      <trkpt lat="44.66045" lon="1.99226">
        <ele>311.105988</ele>
        <time>2018-05-25T12:14:42Z</time>
      </trkpt>
      <trkpt lat="44.66052" lon="1.99227">
        <ele>309.627991</ele>
        <time>2018-05-25T12:14:55Z</time>
      </trkpt>
      <trkpt lat="44.6606" lon="1.99226">
        <ele>308.722992</ele>
        <time>2018-05-25T12:15:02Z</time>
      </trkpt>
      <trkpt lat="44.66068" lon="1.99227">
        <ele>307.81601</ele>
        <time>2018-05-25T12:15:11Z</time>
      </trkpt>
      <trkpt lat="44.66075" lon="1.99226">
        <ele>308.536011</ele>
        <time>2018-05-25T12:15:20Z</time>
      </trkpt>
      <trkpt lat="44.66083" lon="1.99226">
        <ele>310.686005</ele>
        <time>2018-05-25T12:15:27Z</time>
      </trkpt>
      <trkpt lat="44.6609" lon="1.99228">
        <ele>312.987</ele>
        <time>2018-05-25T12:15:33Z</time>
      </trkpt>
      <trkpt lat="44.66099" lon="1.99228">
        <ele>314.696014</ele>
        <time>2018-05-25T12:15:39Z</time>
      </trkpt>
      <trkpt lat="44.66106" lon="1.99227">
        <ele>316.502991</ele>
        <time>2018-05-25T12:15:47Z</time>
      </trkpt>
      <trkpt lat="44.66114" lon="1.99228">
        <ele>317.345001</ele>
        <time>2018-05-25T12:15:55Z</time>
      </trkpt>
      <trkpt lat="44.66121" lon="1.99228">
        <ele>317.533997</ele>
        <time>2018-05-25T12:16:03Z</time>
      </trkpt>
      <trkpt lat="44.66129" lon="1.9923">
        <ele>317.834991</ele>
        <time>2018-05-25T12:16:10Z</time>
      </trkpt>
      <trkpt lat="44.66137" lon="1.99229">
        <ele>318.503998</ele>
        <time>2018-05-25T12:16:20Z</time>
      </trkpt>
      <trkpt lat="44.66145" lon="1.99229">
        <ele>318.563995</ele>
        <time>2018-05-25T12:16:26Z</time>
      </trkpt>
      <trkpt lat="44.66153" lon="1.99229">
        <ele>318.196991</ele>
        <time>2018-05-25T12:16:32Z</time>
      </trkpt>
      <trkpt lat="44.6616" lon="1.99229">
        <ele>319.05899</ele>
        <time>2018-05-25T12:16:39Z</time>
      </trkpt>
      <trkpt lat="44.66168" lon="1.99228">
        <ele>319.830994</ele>
        <time>2018-05-25T12:16:45Z</time>
      </trkpt>
      <trkpt lat="44.66176" lon="1.99228">
        <ele>319.049011</ele>
        <time>2018-05-25T12:16:52Z</time>
      </trkpt>
      <trkpt lat="44.66183" lon="1.99228">
        <ele>319.665009</ele>
        <time>2018-05-25T12:17:00Z</time>
      </trkpt>
      <trkpt lat="44.66191" lon="1.99227">
        <ele>321.605011</ele>
        <time>2018-05-25T12:17:07Z</time>
      </trkpt>
      <trkpt lat="44.66198" lon="1.99226">
        <ele>324.072998</ele>
        <time>2018-05-25T12:17:14Z</time>
      </trkpt>
      <trkpt lat="44.66205" lon="1.99225">
        <ele>324.705994</ele>
        <time>2018-05-25T12:17:20Z</time>
      </trkpt>
      <trkpt lat="44.66213" lon="1.99226">
        <ele>324.635986</ele>
        <time>2018-05-25T12:17:26Z</time>
      </trkpt>
      <trkpt lat="44.66221" lon="1.99227">
        <ele>325.335999</ele>
        <time>2018-05-25T12:17:34Z</time>
      </trkpt>
      <trkpt lat="44.66229" lon="1.99229">
        <ele>326.697998</ele>
        <time>2018-05-25T12:17:48Z</time>
      </trkpt>
      <trkpt lat="44.66237" lon="1.99227">
        <ele>326.380005</ele>
        <time>2018-05-25T12:17:55Z</time>
      </trkpt>
      <trkpt lat="44.66244" lon="1.99227">
        <ele>327.338013</ele>
        <time>2018-05-25T12:18:02Z</time>
      </trkpt>
      <trkpt lat="44.66252" lon="1.99226">
        <ele>328.90799</ele>
        <time>2018-05-25T12:18:09Z</time>
      </trkpt>
      <trkpt lat="44.6626" lon="1.99226">
        <ele>329.798004</ele>
        <time>2018-05-25T12:18:17Z</time>
      </trkpt>
      <trkpt lat="44.66267" lon="1.99226">
        <ele>330.65799</ele>
        <time>2018-05-25T12:18:23Z</time>
      </trkpt>
      <trkpt lat="44.66275" lon="1.99227">
        <ele>331.565002</ele>
        <time>2018-05-25T12:18:31Z</time>
      </trkpt>
      <trkpt lat="44.66283" lon="1.99228">
        <ele>331.441986</ele>
        <time>2018-05-25T12:18:39Z</time>
      </trkpt>
      <trkpt lat="44.6629" lon="1.99228">
        <ele>330.848999</ele>
        <time>2018-05-25T12:18:46Z</time>
      </trkpt>
      <trkpt lat="44.66297" lon="1.99227">
        <ele>330.035004</ele>
        <time>2018-05-25T12:18:51Z</time>
      </trkpt>
      <trkpt lat="44.66306" lon="1.99227">
        <ele>331.790985</ele>
        <time>2018-05-25T12:18:57Z</time>
      </trkpt>
      <trkpt lat="44.66313" lon="1.99227">
        <ele>331.953003</ele>
        <time>2018-05-25T12:19:04Z</time>
      </trkpt>
      <trkpt lat="44.66321" lon="1.99224">
        <ele>331.766998</ele>
        <time>2018-05-25T12:19:11Z</time>
      </trkpt>
      <trkpt lat="44.66328" lon="1.9922">
        <ele>332.536011</ele>
        <time>2018-05-25T12:19:16Z</time>
      </trkpt>
      <trkpt lat="44.66335" lon="1.99214">
        <ele>332.976013</ele>
        <time>2018-05-25T12:19:23Z</time>
      </trkpt>
      <trkpt lat="44.66342" lon="1.99208">
        <ele>333.233002</ele>
        <time>2018-05-25T12:19:29Z</time>
      </trkpt>
      <trkpt lat="44.66349" lon="1.99202">
        <ele>334.165009</ele>
        <time>2018-05-25T12:19:35Z</time>
      </trkpt>
      <trkpt lat="44.66356" lon="1.99197">
        <ele>333.679993</ele>
        <time>2018-05-25T12:19:43Z</time>
      </trkpt>
      <trkpt lat="44.66363" lon="1.99193">
        <ele>332.359985</ele>
        <time>2018-05-25T12:19:53Z</time>
      </trkpt>
      <trkpt lat="44.66371" lon="1.99191">
        <ele>333.377014</ele>
        <time>2018-05-25T12:19:59Z</time>
      </trkpt>
      <trkpt lat="44.66378" lon="1.99189">
        <ele>334.390015</ele>
        <time>2018-05-25T12:20:13Z</time>
      </trkpt>
      <trkpt lat="44.66385" lon="1.99188">
        <ele>334.485992</ele>
        <time>2018-05-25T12:20:18Z</time>
      </trkpt>
      <trkpt lat="44.66393" lon="1.99189">
        <ele>333.636993</ele>
        <time>2018-05-25T12:20:25Z</time>
      </trkpt>
      <trkpt lat="44.66401" lon="1.99191">
        <ele>333.148987</ele>
        <time>2018-05-25T12:20:31Z</time>
      </trkpt>
      <trkpt lat="44.66408" lon="1.99194">
        <ele>332.511993</ele>
        <time>2018-05-25T12:20:37Z</time>
      </trkpt>
      <trkpt lat="44.66416" lon="1.99195">
        <ele>330.597992</ele>
        <time>2018-05-25T12:20:43Z</time>
      </trkpt>
      <trkpt lat="44.66423" lon="1.99196">
        <ele>330.919006</ele>
        <time>2018-05-25T12:20:49Z</time>
      </trkpt>
      <trkpt lat="44.66432" lon="1.99195">
        <ele>331.403992</ele>
        <time>2018-05-25T12:20:56Z</time>
      </trkpt>
      <trkpt lat="44.66439" lon="1.99198">
        <ele>330.994995</ele>
        <time>2018-05-25T12:21:02Z</time>
      </trkpt>
      <trkpt lat="44.66446" lon="1.99202">
        <ele>330.660004</ele>
        <time>2018-05-25T12:21:09Z</time>
      </trkpt>
      <trkpt lat="44.66453" lon="1.99207">
        <ele>329.734009</ele>
        <time>2018-05-25T12:21:15Z</time>
      </trkpt>
      <trkpt lat="44.6646" lon="1.99212">
        <ele>329.92099</ele>
        <time>2018-05-25T12:21:22Z</time>
      </trkpt>
      <trkpt lat="44.66468" lon="1.99215">
        <ele>330.204987</ele>
        <time>2018-05-25T12:21:28Z</time>
      </trkpt>
      <trkpt lat="44.66476" lon="1.99218">
        <ele>329.808014</ele>
        <time>2018-05-25T12:21:34Z</time>
      </trkpt>
      <trkpt lat="44.66483" lon="1.99223">
        <ele>329.459015</ele>
        <time>2018-05-25T12:21:39Z</time>
      </trkpt>
      <trkpt lat="44.6649" lon="1.99227">
        <ele>329.162994</ele>
        <time>2018-05-25T12:21:46Z</time>
      </trkpt>
      <trkpt lat="44.66498" lon="1.99231">
        <ele>329.882996</ele>
        <time>2018-05-25T12:21:53Z</time>
      </trkpt>
      <trkpt lat="44.66505" lon="1.99236">
        <ele>331.364014</ele>
        <time>2018-05-25T12:22:00Z</time>
      </trkpt>
      <trkpt lat="44.66511" lon="1.99242">
        <ele>332.522003</ele>
        <time>2018-05-25T12:22:07Z</time>
      </trkpt>
      <trkpt lat="44.66518" lon="1.99245">
        <ele>333.016998</ele>
        <time>2018-05-25T12:22:13Z</time>
      </trkpt>
      <trkpt lat="44.66525" lon="1.99249">
        <ele>332.200012</ele>
        <time>2018-05-25T12:22:19Z</time>
      </trkpt>
      <trkpt lat="44.66533" lon="1.99252">
        <ele>332.209991</ele>
        <time>2018-05-25T12:22:26Z</time>
      </trkpt>
      <trkpt lat="44.66541" lon="1.99256">
        <ele>331.964996</ele>
        <time>2018-05-25T12:22:33Z</time>
      </trkpt>
      <trkpt lat="44.66549" lon="1.9926">
        <ele>332.449005</ele>
        <time>2018-05-25T12:22:40Z</time>
      </trkpt>
      <trkpt lat="44.66556" lon="1.99263">
        <ele>331.714996</ele>
        <time>2018-05-25T12:22:46Z</time>
      </trkpt>
      <trkpt lat="44.66564" lon="1.99265">
        <ele>331.307007</ele>
        <time>2018-05-25T12:22:52Z</time>
      </trkpt>
      <trkpt lat="44.66572" lon="1.99269">
        <ele>331.304993</ele>
        <time>2018-05-25T12:22:59Z</time>
      </trkpt>
      <trkpt lat="44.66579" lon="1.99273">
        <ele>330.69101</ele>
        <time>2018-05-25T12:23:06Z</time>
      </trkpt>
      <trkpt lat="44.66586" lon="1.99279">
        <ele>331.494995</ele>
        <time>2018-05-25T12:23:17Z</time>
      </trkpt>
      <trkpt lat="44.66593" lon="1.99283">
        <ele>332.25</ele>
        <time>2018-05-25T12:23:23Z</time>
      </trkpt>
      <trkpt lat="44.666" lon="1.99286">
        <ele>332.973999</ele>
        <time>2018-05-25T12:23:28Z</time>
      </trkpt>
      <trkpt lat="44.66606" lon="1.9929">
        <ele>332.813995</ele>
        <time>2018-05-25T12:23:34Z</time>
      </trkpt>
      <trkpt lat="44.66613" lon="1.99295">
        <ele>333.737</ele>
        <time>2018-05-25T12:23:41Z</time>
      </trkpt>
      <trkpt lat="44.66621" lon="1.99295">
        <ele>333.915985</ele>
        <time>2018-05-25T12:23:59Z</time>
      </trkpt>
      <trkpt lat="44.66628" lon="1.99298">
        <ele>334.001007</ele>
        <time>2018-05-25T12:24:06Z</time>
      </trkpt>
      <trkpt lat="44.66635" lon="1.99301">
        <ele>333.166992</ele>
        <time>2018-05-25T12:24:12Z</time>
      </trkpt>
      <trkpt lat="44.66642" lon="1.99303">
        <ele>332.877991</ele>
        <time>2018-05-25T12:24:18Z</time>
      </trkpt>
      <trkpt lat="44.6665" lon="1.99307">
        <ele>331.934998</ele>
        <time>2018-05-25T12:24:26Z</time>
      </trkpt>
      <trkpt lat="44.66658" lon="1.99308">
        <ele>330.996002</ele>
        <time>2018-05-25T12:24:33Z</time>
      </trkpt>
      <trkpt lat="44.66666" lon="1.99309">
        <ele>331.234985</ele>
        <time>2018-05-25T12:24:39Z</time>
      </trkpt>
      <trkpt lat="44.66673" lon="1.99312">
        <ele>332.838013</ele>
        <time>2018-05-25T12:24:46Z</time>
      </trkpt>
      <trkpt lat="44.66681" lon="1.99312">
        <ele>331.862</ele>
        <time>2018-05-25T12:24:52Z</time>
      </trkpt>
      <trkpt lat="44.66688" lon="1.99317">
        <ele>331.687988</ele>
        <time>2018-05-25T12:25:43Z</time>
      </trkpt>
      <trkpt lat="44.66695" lon="1.99319">
        <ele>330.375</ele>
        <time>2018-05-25T12:26:09Z</time>
      </trkpt>
      <trkpt lat="44.66702" lon="1.9932">
        <ele>329.554993</ele>
        <time>2018-05-25T12:26:16Z</time>
      </trkpt>
      <trkpt lat="44.6671" lon="1.99323">
        <ele>329.221008</ele>
        <time>2018-05-25T12:26:22Z</time>
      </trkpt>
      <trkpt lat="44.66718" lon="1.99325">
        <ele>328.647003</ele>
        <time>2018-05-25T12:26:28Z</time>
      </trkpt>
      <trkpt lat="44.66725" lon="1.99329">
        <ele>328.368988</ele>
        <time>2018-05-25T12:26:33Z</time>
      </trkpt>
      <trkpt lat="44.66732" lon="1.99332">
        <ele>328.217987</ele>
        <time>2018-05-25T12:26:39Z</time>
      </trkpt>
      <trkpt lat="44.66739" lon="1.99335">
        <ele>329.746002</ele>
        <time>2018-05-25T12:26:46Z</time>
      </trkpt>
      <trkpt lat="44.66747" lon="1.9934">
        <ele>330.119995</ele>
        <time>2018-05-25T12:26:54Z</time>
      </trkpt>
      <trkpt lat="44.66754" lon="1.99343">
        <ele>331.035004</ele>
        <time>2018-05-25T12:27:01Z</time>
      </trkpt>
      <trkpt lat="44.66761" lon="1.99347">
        <ele>330.558014</ele>
        <time>2018-05-25T12:27:07Z</time>
      </trkpt>
      <trkpt lat="44.6677" lon="1.9935">
        <ele>330.321014</ele>
        <time>2018-05-25T12:27:13Z</time>
      </trkpt>
      <trkpt lat="44.66777" lon="1.99352">
        <ele>329.42099</ele>
        <time>2018-05-25T12:27:18Z</time>
      </trkpt>
      <trkpt lat="44.66785" lon="1.99354">
        <ele>331.695007</ele>
        <time>2018-05-25T12:27:28Z</time>
      </trkpt>
      <trkpt lat="44.66801" lon="1.99357">
        <ele>329.445007</ele>
        <time>2018-05-25T12:27:40Z</time>
      </trkpt>
      <trkpt lat="44.66809" lon="1.9936">
        <ele>329.56601</ele>
        <time>2018-05-25T12:27:48Z</time>
      </trkpt>
      <trkpt lat="44.66817" lon="1.99364">
        <ele>330.158997</ele>
        <time>2018-05-25T12:27:59Z</time>
      </trkpt>
      <trkpt lat="44.66824" lon="1.99369">
        <ele>331.677002</ele>
        <time>2018-05-25T12:28:05Z</time>
      </trkpt>
      <trkpt lat="44.66832" lon="1.99373">
        <ele>333.157013</ele>
        <time>2018-05-25T12:28:10Z</time>
      </trkpt>
      <trkpt lat="44.66839" lon="1.99379">
        <ele>333.078003</ele>
        <time>2018-05-25T12:28:15Z</time>
      </trkpt>
      <trkpt lat="44.66845" lon="1.99385">
        <ele>331.227997</ele>
        <time>2018-05-25T12:28:21Z</time>
      </trkpt>
      <trkpt lat="44.66853" lon="1.99387">
        <ele>329.38501</ele>
        <time>2018-05-25T12:28:36Z</time>
      </trkpt>
      <trkpt lat="44.66861" lon="1.99392">
        <ele>328.869995</ele>
        <time>2018-05-25T12:28:42Z</time>
      </trkpt>
      <trkpt lat="44.66867" lon="1.99397">
        <ele>328.445007</ele>
        <time>2018-05-25T12:28:48Z</time>
      </trkpt>
      <trkpt lat="44.66875" lon="1.99401">
        <ele>326.348999</ele>
        <time>2018-05-25T12:28:56Z</time>
      </trkpt>
      <trkpt lat="44.66882" lon="1.99405">
        <ele>327.227997</ele>
        <time>2018-05-25T12:29:03Z</time>
      </trkpt>
      <trkpt lat="44.66889" lon="1.9941">
        <ele>327.002991</ele>
        <time>2018-05-25T12:29:09Z</time>
      </trkpt>
      <trkpt lat="44.66896" lon="1.99417">
        <ele>329.320007</ele>
        <time>2018-05-25T12:29:16Z</time>
      </trkpt>
      <trkpt lat="44.66903" lon="1.99423">
        <ele>329.727997</ele>
        <time>2018-05-25T12:29:22Z</time>
      </trkpt>
      <trkpt lat="44.6691" lon="1.99429">
        <ele>330.277008</ele>
        <time>2018-05-25T12:29:28Z</time>
      </trkpt>
      <trkpt lat="44.66917" lon="1.99433">
        <ele>330.394012</ele>
        <time>2018-05-25T12:29:36Z</time>
      </trkpt>
      <trkpt lat="44.66923" lon="1.99439">
        <ele>331.428986</ele>
        <time>2018-05-25T12:29:42Z</time>
      </trkpt>
      <trkpt lat="44.6693" lon="1.99446">
        <ele>330.901001</ele>
        <time>2018-05-25T12:29:50Z</time>
      </trkpt>
      <trkpt lat="44.66936" lon="1.99452">
        <ele>330.498993</ele>
        <time>2018-05-25T12:29:56Z</time>
      </trkpt>
      <trkpt lat="44.66942" lon="1.99458">
        <ele>330.072998</ele>
        <time>2018-05-25T12:30:01Z</time>
      </trkpt>
      <trkpt lat="44.66947" lon="1.99465">
        <ele>329.260986</ele>
        <time>2018-05-25T12:30:06Z</time>
      </trkpt>
      <trkpt lat="44.66954" lon="1.99472">
        <ele>329.213013</ele>
        <time>2018-05-25T12:30:12Z</time>
      </trkpt>
      <trkpt lat="44.66961" lon="1.99477">
        <ele>328.053986</ele>
        <time>2018-05-25T12:30:18Z</time>
      </trkpt>
      <trkpt lat="44.66969" lon="1.99481">
        <ele>326.829987</ele>
        <time>2018-05-25T12:30:24Z</time>
      </trkpt>
      <trkpt lat="44.66976" lon="1.99483">
        <ele>325.351013</ele>
        <time>2018-05-25T12:30:30Z</time>
      </trkpt>
      <trkpt lat="44.66983" lon="1.99486">
        <ele>325.114014</ele>
        <time>2018-05-25T12:30:36Z</time>
      </trkpt>
      <trkpt lat="44.66992" lon="1.99487">
        <ele>325.117004</ele>
        <time>2018-05-25T12:30:44Z</time>
      </trkpt>
      <trkpt lat="44.66999" lon="1.9949">
        <ele>324.747009</ele>
        <time>2018-05-25T12:30:50Z</time>
      </trkpt>
      <trkpt lat="44.67007" lon="1.99493">
        <ele>324.018005</ele>
        <time>2018-05-25T12:30:57Z</time>
      </trkpt>
      <trkpt lat="44.67014" lon="1.99498">
        <ele>324.352997</ele>
        <time>2018-05-25T12:31:11Z</time>
      </trkpt>
      <trkpt lat="44.6702" lon="1.99505">
        <ele>325.881989</ele>
        <time>2018-05-25T12:31:16Z</time>
      </trkpt>
      <trkpt lat="44.67025" lon="1.99513">
        <ele>327.06601</ele>
        <time>2018-05-25T12:31:23Z</time>
      </trkpt>
      <trkpt lat="44.67031" lon="1.9952">
        <ele>325.756012</ele>
        <time>2018-05-25T12:31:31Z</time>
      </trkpt>
      <trkpt lat="44.67038" lon="1.99527">
        <ele>325.416992</ele>
        <time>2018-05-25T12:31:39Z</time>
      </trkpt>
      <trkpt lat="44.67044" lon="1.99532">
        <ele>325.746002</ele>
        <time>2018-05-25T12:31:46Z</time>
      </trkpt>
      <trkpt lat="44.67052" lon="1.99536">
        <ele>324.916992</ele>
        <time>2018-05-25T12:31:52Z</time>
      </trkpt>
      <trkpt lat="44.67059" lon="1.9954">
        <ele>324.726013</ele>
        <time>2018-05-25T12:31:59Z</time>
      </trkpt>
      <trkpt lat="44.67067" lon="1.99542">
        <ele>324.052002</ele>
        <time>2018-05-25T12:32:05Z</time>
      </trkpt>
      <trkpt lat="44.67074" lon="1.99547">
        <ele>323.451996</ele>
        <time>2018-05-25T12:32:12Z</time>
      </trkpt>
      <trkpt lat="44.67082" lon="1.9955">
        <ele>323.049011</ele>
        <time>2018-05-25T12:32:19Z</time>
      </trkpt>
      <trkpt lat="44.67089" lon="1.99555">
        <ele>323.041992</ele>
        <time>2018-05-25T12:32:25Z</time>
      </trkpt>
      <trkpt lat="44.67096" lon="1.99559">
        <ele>323.985992</ele>
        <time>2018-05-25T12:32:32Z</time>
      </trkpt>
      <trkpt lat="44.67103" lon="1.99564">
        <ele>325.735992</ele>
        <time>2018-05-25T12:32:40Z</time>
      </trkpt>
      <trkpt lat="44.67109" lon="1.99569">
        <ele>326.492004</ele>
        <time>2018-05-25T12:32:47Z</time>
      </trkpt>
      <trkpt lat="44.67117" lon="1.99574">
        <ele>326.19101</ele>
        <time>2018-05-25T12:32:54Z</time>
      </trkpt>
      <trkpt lat="44.67124" lon="1.99577">
        <ele>326.157013</ele>
        <time>2018-05-25T12:32:59Z</time>
      </trkpt>
      <trkpt lat="44.67131" lon="1.99583">
        <ele>327.209015</ele>
        <time>2018-05-25T12:33:05Z</time>
      </trkpt>
      <trkpt lat="44.67138" lon="1.99589">
        <ele>328.677002</ele>
        <time>2018-05-25T12:33:10Z</time>
      </trkpt>
      <trkpt lat="44.67144" lon="1.99594">
        <ele>328.359985</ele>
        <time>2018-05-25T12:33:15Z</time>
      </trkpt>
      <trkpt lat="44.67151" lon="1.99599">
        <ele>327.51001</ele>
        <time>2018-05-25T12:33:21Z</time>
      </trkpt>
      <trkpt lat="44.67157" lon="1.99605">
        <ele>327.792999</ele>
        <time>2018-05-25T12:33:27Z</time>
      </trkpt>
      <trkpt lat="44.67162" lon="1.99613">
        <ele>328.368011</ele>
        <time>2018-05-25T12:33:34Z</time>
      </trkpt>
      <trkpt lat="44.67165" lon="1.99623">
        <ele>329.319</ele>
        <time>2018-05-25T12:33:40Z</time>
      </trkpt>
      <trkpt lat="44.6717" lon="1.9963">
        <ele>329.440002</ele>
        <time>2018-05-25T12:33:47Z</time>
      </trkpt>
      <trkpt lat="44.67176" lon="1.99637">
        <ele>329.554993</ele>
        <time>2018-05-25T12:33:54Z</time>
      </trkpt>
      <trkpt lat="44.67181" lon="1.99646">
        <ele>328.919006</ele>
        <time>2018-05-25T12:34:02Z</time>
      </trkpt>
      <trkpt lat="44.67186" lon="1.99655">
        <ele>328.705994</ele>
        <time>2018-05-25T12:34:09Z</time>
      </trkpt>
      <trkpt lat="44.67192" lon="1.9966">
        <ele>328.786011</ele>
        <time>2018-05-25T12:34:16Z</time>
      </trkpt>
      <trkpt lat="44.67199" lon="1.99666">
        <ele>328.721008</ele>
        <time>2018-05-25T12:34:22Z</time>
      </trkpt>
      <trkpt lat="44.67204" lon="1.99675">
        <ele>328.338989</ele>
        <time>2018-05-25T12:34:29Z</time>
      </trkpt>
      <trkpt lat="44.67211" lon="1.9968">
        <ele>328.700012</ele>
        <time>2018-05-25T12:34:40Z</time>
      </trkpt>
      <trkpt lat="44.67217" lon="1.99686">
        <ele>328.735992</ele>
        <time>2018-05-25T12:34:46Z</time>
      </trkpt>
      <trkpt lat="44.67223" lon="1.99691">
        <ele>328.252991</ele>
        <time>2018-05-25T12:34:53Z</time>
      </trkpt>
      <trkpt lat="44.67228" lon="1.99698">
        <ele>328.807007</ele>
        <time>2018-05-25T12:34:59Z</time>
      </trkpt>
      <trkpt lat="44.67235" lon="1.99704">
        <ele>328.667999</ele>
        <time>2018-05-25T12:35:05Z</time>
      </trkpt>
      <trkpt lat="44.67241" lon="1.99711">
        <ele>329.765015</ele>
        <time>2018-05-25T12:35:12Z</time>
      </trkpt>
      <trkpt lat="44.67247" lon="1.99717">
        <ele>330.910004</ele>
        <time>2018-05-25T12:35:18Z</time>
      </trkpt>
      <trkpt lat="44.67253" lon="1.99722">
        <ele>333.028992</ele>
        <time>2018-05-25T12:35:23Z</time>
      </trkpt>
      <trkpt lat="44.67261" lon="1.99728">
        <ele>334.947998</ele>
        <time>2018-05-25T12:35:29Z</time>
      </trkpt>
      <trkpt lat="44.67268" lon="1.99732">
        <ele>336.567993</ele>
        <time>2018-05-25T12:35:36Z</time>
      </trkpt>
      <trkpt lat="44.67275" lon="1.99738">
        <ele>338.252991</ele>
        <time>2018-05-25T12:35:43Z</time>
      </trkpt>
      <trkpt lat="44.6728" lon="1.99745">
        <ele>340.661987</ele>
        <time>2018-05-25T12:35:51Z</time>
      </trkpt>
      <trkpt lat="44.67287" lon="1.9975">
        <ele>340.460999</ele>
        <time>2018-05-25T12:35:58Z</time>
      </trkpt>
      <trkpt lat="44.67292" lon="1.99758">
        <ele>339.319</ele>
        <time>2018-05-25T12:36:05Z</time>
      </trkpt>
      <trkpt lat="44.67298" lon="1.99767">
        <ele>339.173004</ele>
        <time>2018-05-25T12:36:13Z</time>
      </trkpt>
      <trkpt lat="44.67303" lon="1.99776">
        <ele>339.631012</ele>
        <time>2018-05-25T12:36:28Z</time>
      </trkpt>
      <trkpt lat="44.67307" lon="1.99785">
        <ele>339.871002</ele>
        <time>2018-05-25T12:36:42Z</time>
      </trkpt>
      <trkpt lat="44.67311" lon="1.99795">
        <ele>340.381012</ele>
        <time>2018-05-25T12:36:49Z</time>
      </trkpt>
      <trkpt lat="44.67317" lon="1.99804">
        <ele>340.088989</ele>
        <time>2018-05-25T12:36:57Z</time>
      </trkpt>
      <trkpt lat="44.67322" lon="1.99813">
        <ele>340.368988</ele>
        <time>2018-05-25T12:37:03Z</time>
      </trkpt>
      <trkpt lat="44.67329" lon="1.99819">
        <ele>340.721985</ele>
        <time>2018-05-25T12:37:09Z</time>
      </trkpt>
      <trkpt lat="44.67336" lon="1.99823">
        <ele>341.489014</ele>
        <time>2018-05-25T12:37:15Z</time>
      </trkpt>
      <trkpt lat="44.67342" lon="1.99829">
        <ele>341.416992</ele>
        <time>2018-05-25T12:37:21Z</time>
      </trkpt>
      <trkpt lat="44.67348" lon="1.99834">
        <ele>342.157013</ele>
        <time>2018-05-25T12:37:26Z</time>
      </trkpt>
      <trkpt lat="44.6735" lon="1.99844">
        <ele>342.140015</ele>
        <time>2018-05-25T12:37:33Z</time>
      </trkpt>
      <trkpt lat="44.67343" lon="1.99849">
        <ele>341.867004</ele>
        <time>2018-05-25T12:37:39Z</time>
      </trkpt>
      <trkpt lat="44.67337" lon="1.99854">
        <ele>342.299988</ele>
        <time>2018-05-25T12:37:48Z</time>
      </trkpt>
      <trkpt lat="44.6733" lon="1.99859">
        <ele>342.585999</ele>
        <time>2018-05-25T12:37:53Z</time>
      </trkpt>
      <trkpt lat="44.67324" lon="1.99864">
        <ele>343.945007</ele>
        <time>2018-05-25T12:37:59Z</time>
      </trkpt>
      <trkpt lat="44.67317" lon="1.99869">
        <ele>344.381012</ele>
        <time>2018-05-25T12:38:05Z</time>
      </trkpt>
      <trkpt lat="44.67311" lon="1.99877">
        <ele>342.994995</ele>
        <time>2018-05-25T12:38:11Z</time>
      </trkpt>
      <trkpt lat="44.67305" lon="1.99884">
        <ele>339.466003</ele>
        <time>2018-05-25T12:38:19Z</time>
      </trkpt>
      <trkpt lat="44.67298" lon="1.99889">
        <ele>337.756012</ele>
        <time>2018-05-25T12:38:29Z</time>
      </trkpt>
      <trkpt lat="44.67291" lon="1.99895">
        <ele>337.559998</ele>
        <time>2018-05-25T12:38:35Z</time>
      </trkpt>
      <trkpt lat="44.67284" lon="1.99902">
        <ele>337.433014</ele>
        <time>2018-05-25T12:38:41Z</time>
      </trkpt>
      <trkpt lat="44.67281" lon="1.99911">
        <ele>336.649994</ele>
        <time>2018-05-25T12:39:08Z</time>
      </trkpt>
      <trkpt lat="44.67281" lon="1.99921">
        <ele>334.769989</ele>
        <time>2018-05-25T12:39:30Z</time>
      </trkpt>
      <trkpt lat="44.67281" lon="1.99931">
        <ele>333.269989</ele>
        <time>2018-05-25T12:39:54Z</time>
      </trkpt>
      <trkpt lat="44.67281" lon="1.99941">
        <ele>333.806</ele>
        <time>2018-05-25T12:40:04Z</time>
      </trkpt>
      <trkpt lat="44.67279" lon="1.99951">
        <ele>333.234985</ele>
        <time>2018-05-25T12:40:10Z</time>
      </trkpt>
      <trkpt lat="44.67276" lon="1.99961">
        <ele>332.38501</ele>
        <time>2018-05-25T12:40:16Z</time>
      </trkpt>
      <trkpt lat="44.67272" lon="1.99971">
        <ele>331.713013</ele>
        <time>2018-05-25T12:40:24Z</time>
      </trkpt>
      <trkpt lat="44.67267" lon="1.99978">
        <ele>332.539001</ele>
        <time>2018-05-25T12:40:42Z</time>
      </trkpt>
      <trkpt lat="44.67262" lon="1.99987">
        <ele>332.404999</ele>
        <time>2018-05-25T12:40:48Z</time>
      </trkpt>
      <trkpt lat="44.67257" lon="1.99995">
        <ele>332.071991</ele>
        <time>2018-05-25T12:40:54Z</time>
      </trkpt>
      <trkpt lat="44.67252" lon="2.00002">
        <ele>331.299988</ele>
        <time>2018-05-25T12:40:59Z</time>
      </trkpt>
      <trkpt lat="44.67247" lon="2.00011">
        <ele>330.803986</ele>
        <time>2018-05-25T12:41:05Z</time>
      </trkpt>
      <trkpt lat="44.67243" lon="2.00019">
        <ele>331.084991</ele>
        <time>2018-05-25T12:41:11Z</time>
      </trkpt>
      <trkpt lat="44.67237" lon="2.00028">
        <ele>330.584991</ele>
        <time>2018-05-25T12:41:17Z</time>
      </trkpt>
      <trkpt lat="44.67235" lon="2.00038">
        <ele>325.785004</ele>
        <time>2018-05-25T12:41:25Z</time>
      </trkpt>
      <trkpt lat="44.67229" lon="2.00046">
        <ele>324.102997</ele>
        <time>2018-05-25T12:41:33Z</time>
      </trkpt>
      <trkpt lat="44.67224" lon="2.00054">
        <ele>322.786987</ele>
        <time>2018-05-25T12:41:40Z</time>
      </trkpt>
      <trkpt lat="44.67219" lon="2.00063">
        <ele>323.519989</ele>
        <time>2018-05-25T12:41:46Z</time>
      </trkpt>
      <trkpt lat="44.67214" lon="2.00071">
        <ele>323.25</ele>
        <time>2018-05-25T12:41:52Z</time>
      </trkpt>
      <trkpt lat="44.67211" lon="2.0008">
        <ele>322.901001</ele>
        <time>2018-05-25T12:41:59Z</time>
      </trkpt>
      <trkpt lat="44.67206" lon="2.00089">
        <ele>322.244995</ele>
        <time>2018-05-25T12:42:05Z</time>
      </trkpt>
      <trkpt lat="44.67201" lon="2.00097">
        <ele>321.664001</ele>
        <time>2018-05-25T12:42:11Z</time>
      </trkpt>
      <trkpt lat="44.67196" lon="2.00104">
        <ele>321.149994</ele>
        <time>2018-05-25T12:42:17Z</time>
      </trkpt>
      <trkpt lat="44.67191" lon="2.00113">
        <ele>320.470001</ele>
        <time>2018-05-25T12:42:24Z</time>
      </trkpt>
      <trkpt lat="44.67185" lon="2.0012">
        <ele>320.57901</ele>
        <time>2018-05-25T12:42:30Z</time>
      </trkpt>
      <trkpt lat="44.67179" lon="2.00126">
        <ele>320.398987</ele>
        <time>2018-05-25T12:42:36Z</time>
      </trkpt>
      <trkpt lat="44.67172" lon="2.00129">
        <ele>320.946014</ele>
        <time>2018-05-25T12:42:43Z</time>
      </trkpt>
      <trkpt lat="44.67164" lon="2.00128">
        <ele>321.259003</ele>
        <time>2018-05-25T12:42:51Z</time>
      </trkpt>
      <trkpt lat="44.67156" lon="2.00127">
        <ele>321.520996</ele>
        <time>2018-05-25T12:42:58Z</time>
      </trkpt>
      <trkpt lat="44.67149" lon="2.00123">
        <ele>321.622009</ele>
        <time>2018-05-25T12:43:04Z</time>
      </trkpt>
      <trkpt lat="44.67141" lon="2.00121">
        <ele>320.001007</ele>
        <time>2018-05-25T12:43:10Z</time>
      </trkpt>
      <trkpt lat="44.67134" lon="2.00119">
        <ele>319.739014</ele>
        <time>2018-05-25T12:43:18Z</time>
      </trkpt>
      <trkpt lat="44.67126" lon="2.00118">
        <ele>320.362</ele>
        <time>2018-05-25T12:43:24Z</time>
      </trkpt>
      <trkpt lat="44.67118" lon="2.00116">
        <ele>321.656006</ele>
        <time>2018-05-25T12:43:31Z</time>
      </trkpt>
      <trkpt lat="44.6711" lon="2.00112">
        <ele>323.020996</ele>
        <time>2018-05-25T12:43:37Z</time>
      </trkpt>
      <trkpt lat="44.67101" lon="2.00113">
        <ele>324.490997</ele>
        <time>2018-05-25T12:43:43Z</time>
      </trkpt>
      <trkpt lat="44.67094" lon="2.00116">
        <ele>324.804993</ele>
        <time>2018-05-25T12:43:49Z</time>
      </trkpt>
      <trkpt lat="44.67086" lon="2.00118">
        <ele>324.450989</ele>
        <time>2018-05-25T12:43:55Z</time>
      </trkpt>
      <trkpt lat="44.67079" lon="2.00122">
        <ele>325.343994</ele>
        <time>2018-05-25T12:44:02Z</time>
      </trkpt>
      <trkpt lat="44.67071" lon="2.00124">
        <ele>324.951996</ele>
        <time>2018-05-25T12:44:09Z</time>
      </trkpt>
      <trkpt lat="44.67065" lon="2.00128">
        <ele>324.493988</ele>
        <time>2018-05-25T12:44:16Z</time>
      </trkpt>
      <trkpt lat="44.67058" lon="2.00133">
        <ele>323.601013</ele>
        <time>2018-05-25T12:44:32Z</time>
      </trkpt>
      <trkpt lat="44.67051" lon="2.00139">
        <ele>323.57901</ele>
        <time>2018-05-25T12:44:39Z</time>
      </trkpt>
      <trkpt lat="44.67044" lon="2.00143">
        <ele>324.084991</ele>
        <time>2018-05-25T12:45:19Z</time>
      </trkpt>
      <trkpt lat="44.67038" lon="2.00148">
        <ele>323.855011</ele>
        <time>2018-05-25T12:45:25Z</time>
      </trkpt>
      <trkpt lat="44.6703" lon="2.00151">
        <ele>323.744995</ele>
        <time>2018-05-25T12:45:31Z</time>
      </trkpt>
      <trkpt lat="44.67023" lon="2.00155">
        <ele>324.079987</ele>
        <time>2018-05-25T12:45:37Z</time>
      </trkpt>
      <trkpt lat="44.67015" lon="2.00158">
        <ele>324.503998</ele>
        <time>2018-05-25T12:45:44Z</time>
      </trkpt>
      <trkpt lat="44.67007" lon="2.00161">
        <ele>324.743011</ele>
        <time>2018-05-25T12:45:50Z</time>
      </trkpt>
      <trkpt lat="44.67" lon="2.00166">
        <ele>325.782013</ele>
        <time>2018-05-25T12:45:55Z</time>
      </trkpt>
      <trkpt lat="44.66994" lon="2.00173">
        <ele>326.325989</ele>
        <time>2018-05-25T12:46:00Z</time>
      </trkpt>
      <trkpt lat="44.66988" lon="2.0018">
        <ele>327.108002</ele>
        <time>2018-05-25T12:46:06Z</time>
      </trkpt>
      <trkpt lat="44.66982" lon="2.00188">
        <ele>327.651001</ele>
        <time>2018-05-25T12:46:13Z</time>
      </trkpt>
      <trkpt lat="44.66976" lon="2.00195">
        <ele>326.140015</ele>
        <time>2018-05-25T12:46:19Z</time>
      </trkpt>
      <trkpt lat="44.66971" lon="2.00204">
        <ele>325.951996</ele>
        <time>2018-05-25T12:46:25Z</time>
      </trkpt>
      <trkpt lat="44.66968" lon="2.00216">
        <ele>325.751007</ele>
        <time>2018-05-25T12:46:31Z</time>
      </trkpt>
      <trkpt lat="44.66969" lon="2.00226">
        <ele>326.60199</ele>
        <time>2018-05-25T12:46:37Z</time>
      </trkpt>
      <trkpt lat="44.66969" lon="2.00237">
        <ele>327.618011</ele>
        <time>2018-05-25T12:46:43Z</time>
      </trkpt>
      <trkpt lat="44.66968" lon="2.00248">
        <ele>329.15799</ele>
        <time>2018-05-25T12:46:49Z</time>
      </trkpt>
      <trkpt lat="44.66965" lon="2.00258">
        <ele>329.682007</ele>
        <time>2018-05-25T12:46:55Z</time>
      </trkpt>
      <trkpt lat="44.6696" lon="2.00266">
        <ele>330.114014</ele>
        <time>2018-05-25T12:47:01Z</time>
      </trkpt>
      <trkpt lat="44.66954" lon="2.00274">
        <ele>329.920013</ele>
        <time>2018-05-25T12:47:08Z</time>
      </trkpt>
      <trkpt lat="44.66949" lon="2.00281">
        <ele>330.576996</ele>
        <time>2018-05-25T12:47:14Z</time>
      </trkpt>
      <trkpt lat="44.66944" lon="2.00289">
        <ele>330.885986</ele>
        <time>2018-05-25T12:47:20Z</time>
      </trkpt>
      <trkpt lat="44.6694" lon="2.00298">
        <ele>329.808014</ele>
        <time>2018-05-25T12:47:27Z</time>
      </trkpt>
      <trkpt lat="44.66936" lon="2.00308">
        <ele>329.333008</ele>
        <time>2018-05-25T12:47:34Z</time>
      </trkpt>
      <trkpt lat="44.66931" lon="2.00315">
        <ele>329.522003</ele>
        <time>2018-05-25T12:47:39Z</time>
      </trkpt>
      <trkpt lat="44.66928" lon="2.00325">
        <ele>329.063995</ele>
        <time>2018-05-25T12:47:46Z</time>
      </trkpt>
      <trkpt lat="44.66923" lon="2.00335">
        <ele>328.902008</ele>
        <time>2018-05-25T12:47:52Z</time>
      </trkpt>
      <trkpt lat="44.66919" lon="2.00343">
        <ele>329.622009</ele>
        <time>2018-05-25T12:47:57Z</time>
      </trkpt>
      <trkpt lat="44.66914" lon="2.00352">
        <ele>327.462006</ele>
        <time>2018-05-25T12:48:03Z</time>
      </trkpt>
      <trkpt lat="44.66909" lon="2.00361">
        <ele>326.032013</ele>
        <time>2018-05-25T12:48:09Z</time>
      </trkpt>
      <trkpt lat="44.66904" lon="2.0037">
        <ele>325.093994</ele>
        <time>2018-05-25T12:48:15Z</time>
      </trkpt>
      <trkpt lat="44.669" lon="2.0038">
        <ele>323.994995</ele>
        <time>2018-05-25T12:48:21Z</time>
      </trkpt>
      <trkpt lat="44.66894" lon="2.00388">
        <ele>323.244995</ele>
        <time>2018-05-25T12:48:27Z</time>
      </trkpt>
      <trkpt lat="44.66891" lon="2.00397">
        <ele>322.167999</ele>
        <time>2018-05-25T12:48:33Z</time>
      </trkpt>
      <trkpt lat="44.6689" lon="2.00409">
        <ele>321.110992</ele>
        <time>2018-05-25T12:48:40Z</time>
      </trkpt>
      <trkpt lat="44.66892" lon="2.00419">
        <ele>320.979004</ele>
        <time>2018-05-25T12:48:46Z</time>
      </trkpt>
      <trkpt lat="44.66894" lon="2.00429">
        <ele>321.333008</ele>
        <time>2018-05-25T12:48:52Z</time>
      </trkpt>
      <trkpt lat="44.66898" lon="2.00439">
        <ele>322.317993</ele>
        <time>2018-05-25T12:48:58Z</time>
      </trkpt>
      <trkpt lat="44.66901" lon="2.0045">
        <ele>324.063995</ele>
        <time>2018-05-25T12:49:04Z</time>
      </trkpt>
      <trkpt lat="44.66904" lon="2.00459">
        <ele>325.105011</ele>
        <time>2018-05-25T12:49:10Z</time>
      </trkpt>
      <trkpt lat="44.66906" lon="2.00469">
        <ele>325.592987</ele>
        <time>2018-05-25T12:49:17Z</time>
      </trkpt>
      <trkpt lat="44.6691" lon="2.00479">
        <ele>326.355011</ele>
        <time>2018-05-25T12:49:23Z</time>
      </trkpt>
      <trkpt lat="44.66915" lon="2.00487">
        <ele>327.561005</ele>
        <time>2018-05-25T12:49:29Z</time>
      </trkpt>
      <trkpt lat="44.66922" lon="2.00494">
        <ele>328.247986</ele>
        <time>2018-05-25T12:49:35Z</time>
      </trkpt>
      <trkpt lat="44.66929" lon="2.00496">
        <ele>327.261993</ele>
        <time>2018-05-25T12:49:42Z</time>
      </trkpt>
      <trkpt lat="44.66936" lon="2.005">
        <ele>327.454987</ele>
        <time>2018-05-25T12:49:48Z</time>
      </trkpt>
      <trkpt lat="44.66944" lon="2.00503">
        <ele>328.765991</ele>
        <time>2018-05-25T12:49:55Z</time>
      </trkpt>
      <trkpt lat="44.66951" lon="2.00506">
        <ele>330.179993</ele>
        <time>2018-05-25T12:50:01Z</time>
      </trkpt>
      <trkpt lat="44.66957" lon="2.00512">
        <ele>330.721985</ele>
        <time>2018-05-25T12:50:09Z</time>
      </trkpt>
      <trkpt lat="44.66964" lon="2.00517">
        <ele>331.097992</ele>
        <time>2018-05-25T12:50:16Z</time>
      </trkpt>
      <trkpt lat="44.66971" lon="2.00517">
        <ele>330.863007</ele>
        <time>2018-05-25T12:50:23Z</time>
      </trkpt>
      <trkpt lat="44.66979" lon="2.0052">
        <ele>330.406006</ele>
        <time>2018-05-25T12:50:47Z</time>
      </trkpt>
      <trkpt lat="44.66987" lon="2.00522">
        <ele>331.688995</ele>
        <time>2018-05-25T12:50:52Z</time>
      </trkpt>
      <trkpt lat="44.66994" lon="2.00527">
        <ele>332.381012</ele>
        <time>2018-05-25T12:50:59Z</time>
      </trkpt>
      <trkpt lat="44.67002" lon="2.0053">
        <ele>333.131012</ele>
        <time>2018-05-25T12:51:04Z</time>
      </trkpt>
      <trkpt lat="44.67007" lon="2.00538">
        <ele>332.415985</ele>
        <time>2018-05-25T12:51:10Z</time>
      </trkpt>
      <trkpt lat="44.67014" lon="2.00542">
        <ele>332.868011</ele>
        <time>2018-05-25T12:51:15Z</time>
      </trkpt>
      <trkpt lat="44.6702" lon="2.00549">
        <ele>334.165009</ele>
        <time>2018-05-25T12:51:23Z</time>
      </trkpt>
      <trkpt lat="44.67024" lon="2.00559">
        <ele>334.368011</ele>
        <time>2018-05-25T12:51:31Z</time>
      </trkpt>
      <trkpt lat="44.67023" lon="2.00569">
        <ele>335.737</ele>
        <time>2018-05-25T12:51:38Z</time>
      </trkpt>
      <trkpt lat="44.67023" lon="2.00579">
        <ele>337.817993</ele>
        <time>2018-05-25T12:51:45Z</time>
      </trkpt>
      <trkpt lat="44.6702" lon="2.00589">
        <ele>340.381012</ele>
        <time>2018-05-25T12:51:57Z</time>
      </trkpt>
      <trkpt lat="44.6702" lon="2.006">
        <ele>341.039001</ele>
        <time>2018-05-25T12:52:04Z</time>
      </trkpt>
      <trkpt lat="44.6702" lon="2.0061">
        <ele>343.760986</ele>
        <time>2018-05-25T12:52:32Z</time>
      </trkpt>
      <trkpt lat="44.67024" lon="2.00619">
        <ele>344.562988</ele>
        <time>2018-05-25T12:52:39Z</time>
      </trkpt>
      <trkpt lat="44.67027" lon="2.00628">
        <ele>345.187012</ele>
        <time>2018-05-25T12:52:46Z</time>
      </trkpt>
      <trkpt lat="44.67032" lon="2.00637">
        <ele>347.225006</ele>
        <time>2018-05-25T12:52:53Z</time>
      </trkpt>
      <trkpt lat="44.67035" lon="2.00646">
        <ele>349.872986</ele>
        <time>2018-05-25T12:53:00Z</time>
      </trkpt>
      <trkpt lat="44.67037" lon="2.00657">
        <ele>354.093994</ele>
        <time>2018-05-25T12:53:09Z</time>
      </trkpt>
      <trkpt lat="44.6704" lon="2.00668">
        <ele>355.391998</ele>
        <time>2018-05-25T12:53:16Z</time>
      </trkpt>
      <trkpt lat="44.67043" lon="2.00677">
        <ele>355.197998</ele>
        <time>2018-05-25T12:53:22Z</time>
      </trkpt>
      <trkpt lat="44.67046" lon="2.00687">
        <ele>354.130005</ele>
        <time>2018-05-25T12:53:30Z</time>
      </trkpt>
      <trkpt lat="44.6705" lon="2.00696">
        <ele>354.053986</ele>
        <time>2018-05-25T12:53:36Z</time>
      </trkpt>
      <trkpt lat="44.67058" lon="2.00699">
        <ele>355.828003</ele>
        <time>2018-05-25T12:53:45Z</time>
      </trkpt>
      <trkpt lat="44.67073" lon="2.00698">
        <ele>355.941986</ele>
        <time>2018-05-25T12:53:52Z</time>
      </trkpt>
      <trkpt lat="44.6708" lon="2.00692">
        <ele>356.572998</ele>
        <time>2018-05-25T12:53:57Z</time>
      </trkpt>
      <trkpt lat="44.67085" lon="2.00684">
        <ele>357.002991</ele>
        <time>2018-05-25T12:54:02Z</time>
      </trkpt>
      <trkpt lat="44.67089" lon="2.00674">
        <ele>357.776001</ele>
        <time>2018-05-25T12:54:08Z</time>
      </trkpt>
      <trkpt lat="44.67097" lon="2.00678">
        <ele>362.381989</ele>
        <time>2018-05-25T12:54:50Z</time>
      </trkpt>
      <trkpt lat="44.67099" lon="2.00689">
        <ele>366.212006</ele>
        <time>2018-05-25T13:06:55Z</time>
      </trkpt>
      <trkpt lat="44.67104" lon="2.00699">
        <ele>365.809998</ele>
        <time>2018-05-25T13:07:00Z</time>
      </trkpt>
      <trkpt lat="44.67104" lon="2.00709">
        <ele>366.5</ele>
        <time>2018-05-25T13:07:06Z</time>
      </trkpt>
      <trkpt lat="44.67108" lon="2.00718">
        <ele>367.824005</ele>
        <time>2018-05-25T13:07:13Z</time>
      </trkpt>
      <trkpt lat="44.67109" lon="2.00729">
        <ele>367.860992</ele>
        <time>2018-05-25T13:07:18Z</time>
      </trkpt>
      <trkpt lat="44.67109" lon="2.00739">
        <ele>368.013</ele>
        <time>2018-05-25T13:07:24Z</time>
      </trkpt>
      <trkpt lat="44.67107" lon="2.00749">
        <ele>368.554993</ele>
        <time>2018-05-25T13:07:29Z</time>
      </trkpt>
      <trkpt lat="44.67106" lon="2.0076">
        <ele>369.742004</ele>
        <time>2018-05-25T13:07:36Z</time>
      </trkpt>
      <trkpt lat="44.67099" lon="2.00764">
        <ele>374.033997</ele>
        <time>2018-05-25T13:07:44Z</time>
      </trkpt>
      <trkpt lat="44.67092" lon="2.00769">
        <ele>374.062988</ele>
        <time>2018-05-25T13:07:52Z</time>
      </trkpt>
      <trkpt lat="44.67085" lon="2.00774">
        <ele>372.826996</ele>
        <time>2018-05-25T13:07:59Z</time>
      </trkpt>
      <trkpt lat="44.67077" lon="2.00779">
        <ele>369.753998</ele>
        <time>2018-05-25T13:08:05Z</time>
      </trkpt>
      <trkpt lat="44.67064" lon="2.0079">
        <ele>365.949005</ele>
        <time>2018-05-25T13:08:16Z</time>
      </trkpt>
      <trkpt lat="44.67057" lon="2.00794">
        <ele>363.367004</ele>
        <time>2018-05-25T13:08:22Z</time>
      </trkpt>
      <trkpt lat="44.6705" lon="2.00798">
        <ele>362.29599</ele>
        <time>2018-05-25T13:08:28Z</time>
      </trkpt>
      <trkpt lat="44.67043" lon="2.00801">
        <ele>360.859985</ele>
        <time>2018-05-25T13:08:36Z</time>
      </trkpt>
      <trkpt lat="44.67035" lon="2.00799">
        <ele>360.648987</ele>
        <time>2018-05-25T13:08:43Z</time>
      </trkpt>
      <trkpt lat="44.67028" lon="2.00801">
        <ele>359.359009</ele>
        <time>2018-05-25T13:08:48Z</time>
      </trkpt>
      <trkpt lat="44.6702" lon="2.00804">
        <ele>358.700989</ele>
        <time>2018-05-25T13:08:53Z</time>
      </trkpt>
      <trkpt lat="44.67013" lon="2.00803">
        <ele>358.678986</ele>
        <time>2018-05-25T13:08:59Z</time>
      </trkpt>
      <trkpt lat="44.67005" lon="2.00803">
        <ele>359.424988</ele>
        <time>2018-05-25T13:09:05Z</time>
      </trkpt>
      <trkpt lat="44.66997" lon="2.00802">
        <ele>359.612</ele>
        <time>2018-05-25T13:09:11Z</time>
      </trkpt>
      <trkpt lat="44.66989" lon="2.00801">
        <ele>360.54599</ele>
        <time>2018-05-25T13:09:17Z</time>
      </trkpt>
      <trkpt lat="44.66981" lon="2.00799">
        <ele>362.838989</ele>
        <time>2018-05-25T13:09:23Z</time>
      </trkpt>
      <trkpt lat="44.66974" lon="2.00798">
        <ele>364.710999</ele>
        <time>2018-05-25T13:09:28Z</time>
      </trkpt>
      <trkpt lat="44.66966" lon="2.008">
        <ele>364.65799</ele>
        <time>2018-05-25T13:09:34Z</time>
      </trkpt>
      <trkpt lat="44.66958" lon="2.00799">
        <ele>364.808014</ele>
        <time>2018-05-25T13:09:40Z</time>
      </trkpt>
      <trkpt lat="44.6695" lon="2.00803">
        <ele>365.109009</ele>
        <time>2018-05-25T13:09:49Z</time>
      </trkpt>
      <trkpt lat="44.66935" lon="2.00812">
        <ele>367.60199</ele>
        <time>2018-05-25T13:09:59Z</time>
      </trkpt>
      <trkpt lat="44.66929" lon="2.00817">
        <ele>367.050995</ele>
        <time>2018-05-25T13:10:05Z</time>
      </trkpt>
      <trkpt lat="44.66922" lon="2.00823">
        <ele>366.566986</ele>
        <time>2018-05-25T13:10:10Z</time>
      </trkpt>
      <trkpt lat="44.66915" lon="2.0083">
        <ele>365.993011</ele>
        <time>2018-05-25T13:10:16Z</time>
      </trkpt>
      <trkpt lat="44.66908" lon="2.00837">
        <ele>365.838013</ele>
        <time>2018-05-25T13:10:23Z</time>
      </trkpt>
      <trkpt lat="44.66903" lon="2.00843">
        <ele>365.264008</ele>
        <time>2018-05-25T13:10:29Z</time>
      </trkpt>
      <trkpt lat="44.66896" lon="2.00851">
        <ele>363.562012</ele>
        <time>2018-05-25T13:10:35Z</time>
      </trkpt>
      <trkpt lat="44.66892" lon="2.00859">
        <ele>362.61499</ele>
        <time>2018-05-25T13:10:41Z</time>
      </trkpt>
      <trkpt lat="44.66886" lon="2.00867">
        <ele>361.204987</ele>
        <time>2018-05-25T13:10:47Z</time>
      </trkpt>
      <trkpt lat="44.6688" lon="2.00874">
        <ele>361.425995</ele>
        <time>2018-05-25T13:10:54Z</time>
      </trkpt>
      <trkpt lat="44.66875" lon="2.00883">
        <ele>362.710999</ele>
        <time>2018-05-25T13:11:02Z</time>
      </trkpt>
      <trkpt lat="44.66868" lon="2.00891">
        <ele>365.044006</ele>
        <time>2018-05-25T13:11:08Z</time>
      </trkpt>
      <trkpt lat="44.66862" lon="2.00897">
        <ele>367.179993</ele>
        <time>2018-05-25T13:11:13Z</time>
      </trkpt>
      <trkpt lat="44.66857" lon="2.00904">
        <ele>370.369995</ele>
        <time>2018-05-25T13:11:19Z</time>
      </trkpt>
      <trkpt lat="44.66851" lon="2.00912">
        <ele>370.868988</ele>
        <time>2018-05-25T13:11:25Z</time>
      </trkpt>
      <trkpt lat="44.66846" lon="2.00921">
        <ele>369.68399</ele>
        <time>2018-05-25T13:11:31Z</time>
      </trkpt>
      <trkpt lat="44.66841" lon="2.00929">
        <ele>368.36499</ele>
        <time>2018-05-25T13:11:39Z</time>
      </trkpt>
      <trkpt lat="44.66836" lon="2.00937">
        <ele>366.38501</ele>
        <time>2018-05-25T13:11:47Z</time>
      </trkpt>
      <trkpt lat="44.6683" lon="2.00944">
        <ele>365.917999</ele>
        <time>2018-05-25T13:11:53Z</time>
      </trkpt>
      <trkpt lat="44.66826" lon="2.00953">
        <ele>364.286987</ele>
        <time>2018-05-25T13:11:59Z</time>
      </trkpt>
      <trkpt lat="44.66821" lon="2.00962">
        <ele>362.356995</ele>
        <time>2018-05-25T13:12:05Z</time>
      </trkpt>
      <trkpt lat="44.66817" lon="2.0097">
        <ele>360.730988</ele>
        <time>2018-05-25T13:12:10Z</time>
      </trkpt>
      <trkpt lat="44.66811" lon="2.00977">
        <ele>359.769012</ele>
        <time>2018-05-25T13:12:17Z</time>
      </trkpt>
      <trkpt lat="44.66804" lon="2.00974">
        <ele>363.64801</ele>
        <time>2018-05-25T13:12:26Z</time>
      </trkpt>
      <trkpt lat="44.66799" lon="2.00965">
        <ele>365.852997</ele>
        <time>2018-05-25T13:12:33Z</time>
      </trkpt>
      <trkpt lat="44.66795" lon="2.00956">
        <ele>367.382996</ele>
        <time>2018-05-25T13:12:39Z</time>
      </trkpt>
      <trkpt lat="44.66791" lon="2.00948">
        <ele>369.061005</ele>
        <time>2018-05-25T13:12:45Z</time>
      </trkpt>
      <trkpt lat="44.66785" lon="2.00941">
        <ele>368.140015</ele>
        <time>2018-05-25T13:13:05Z</time>
      </trkpt>
      <trkpt lat="44.66775" lon="2.00924">
        <ele>366.062988</ele>
        <time>2018-05-25T13:13:14Z</time>
      </trkpt>
      <trkpt lat="44.66768" lon="2.00918">
        <ele>365.720001</ele>
        <time>2018-05-25T13:13:21Z</time>
      </trkpt>
      <trkpt lat="44.66761" lon="2.00912">
        <ele>363.598999</ele>
        <time>2018-05-25T13:13:28Z</time>
      </trkpt>
      <trkpt lat="44.66755" lon="2.00904">
        <ele>363.674988</ele>
        <time>2018-05-25T13:13:38Z</time>
      </trkpt>
      <trkpt lat="44.66748" lon="2.009">
        <ele>363.302002</ele>
        <time>2018-05-25T13:13:45Z</time>
      </trkpt>
      <trkpt lat="44.66741" lon="2.00897">
        <ele>360.53299</ele>
        <time>2018-05-25T13:13:52Z</time>
      </trkpt>
      <trkpt lat="44.66733" lon="2.00897">
        <ele>358.678009</ele>
        <time>2018-05-25T13:13:57Z</time>
      </trkpt>
      <trkpt lat="44.66726" lon="2.00898">
        <ele>357.053986</ele>
        <time>2018-05-25T13:14:02Z</time>
      </trkpt>
      <trkpt lat="44.66718" lon="2.00902">
        <ele>355.027008</ele>
        <time>2018-05-25T13:14:08Z</time>
      </trkpt>
      <trkpt lat="44.66711" lon="2.00905">
        <ele>353.923004</ele>
        <time>2018-05-25T13:14:13Z</time>
      </trkpt>
      <trkpt lat="44.66703" lon="2.0091">
        <ele>353.007996</ele>
        <time>2018-05-25T13:14:20Z</time>
      </trkpt>
      <trkpt lat="44.66697" lon="2.00916">
        <ele>351.979004</ele>
        <time>2018-05-25T13:14:28Z</time>
      </trkpt>
      <trkpt lat="44.66691" lon="2.00921">
        <ele>351.480011</ele>
        <time>2018-05-25T13:14:40Z</time>
      </trkpt>
      <trkpt lat="44.66683" lon="2.00923">
        <ele>350.700989</ele>
        <time>2018-05-25T13:14:47Z</time>
      </trkpt>
      <trkpt lat="44.66675" lon="2.00924">
        <ele>349.992004</ele>
        <time>2018-05-25T13:14:58Z</time>
      </trkpt>
      <trkpt lat="44.66668" lon="2.00929">
        <ele>349.618011</ele>
        <time>2018-05-25T13:15:33Z</time>
      </trkpt>
      <trkpt lat="44.66662" lon="2.00936">
        <ele>349.218994</ele>
        <time>2018-05-25T13:15:41Z</time>
      </trkpt>
      <trkpt lat="44.66656" lon="2.00943">
        <ele>349.549011</ele>
        <time>2018-05-25T13:15:47Z</time>
      </trkpt>
      <trkpt lat="44.66649" lon="2.00949">
        <ele>350.309998</ele>
        <time>2018-05-25T13:15:52Z</time>
      </trkpt>
      <trkpt lat="44.66646" lon="2.00959">
        <ele>350.632996</ele>
        <time>2018-05-25T13:15:58Z</time>
      </trkpt>
      <trkpt lat="44.6664" lon="2.00968">
        <ele>351.640015</ele>
        <time>2018-05-25T13:16:04Z</time>
      </trkpt>
      <trkpt lat="44.66635" lon="2.00976">
        <ele>350.737</ele>
        <time>2018-05-25T13:16:11Z</time>
      </trkpt>
      <trkpt lat="44.66628" lon="2.00979">
        <ele>349.541992</ele>
        <time>2018-05-25T13:16:18Z</time>
      </trkpt>
      <trkpt lat="44.6662" lon="2.00979">
        <ele>349.572998</ele>
        <time>2018-05-25T13:16:25Z</time>
      </trkpt>
      <trkpt lat="44.66613" lon="2.00978">
        <ele>348.593994</ele>
        <time>2018-05-25T13:16:32Z</time>
      </trkpt>
      <trkpt lat="44.66606" lon="2.00972">
        <ele>349.964996</ele>
        <time>2018-05-25T13:16:55Z</time>
      </trkpt>
      <trkpt lat="44.66598" lon="2.00974">
        <ele>349.118011</ele>
        <time>2018-05-25T13:17:04Z</time>
      </trkpt>
      <trkpt lat="44.66591" lon="2.00978">
        <ele>347.710999</ele>
        <time>2018-05-25T13:17:10Z</time>
      </trkpt>
      <trkpt lat="44.66583" lon="2.00981">
        <ele>347.035004</ele>
        <time>2018-05-25T13:17:16Z</time>
      </trkpt>
      <trkpt lat="44.66575" lon="2.00983">
        <ele>345.330994</ele>
        <time>2018-05-25T13:17:22Z</time>
      </trkpt>
      <trkpt lat="44.66567" lon="2.00986">
        <ele>343.321014</ele>
        <time>2018-05-25T13:17:28Z</time>
      </trkpt>
      <trkpt lat="44.66559" lon="2.00986">
        <ele>342.859009</ele>
        <time>2018-05-25T13:17:35Z</time>
      </trkpt>
      <trkpt lat="44.66551" lon="2.00989">
        <ele>341.77301</ele>
        <time>2018-05-25T13:17:41Z</time>
      </trkpt>
      <trkpt lat="44.66544" lon="2.0099">
        <ele>340.391998</ele>
        <time>2018-05-25T13:17:47Z</time>
      </trkpt>
      <trkpt lat="44.66536" lon="2.00992">
        <ele>339.664001</ele>
        <time>2018-05-25T13:17:53Z</time>
      </trkpt>
      <trkpt lat="44.66528" lon="2.00994">
        <ele>338.884003</ele>
        <time>2018-05-25T13:17:59Z</time>
      </trkpt>
      <trkpt lat="44.66521" lon="2.00997">
        <ele>338.035004</ele>
        <time>2018-05-25T13:18:06Z</time>
      </trkpt>
      <trkpt lat="44.66514" lon="2.00999">
        <ele>338.5</ele>
        <time>2018-05-25T13:18:12Z</time>
      </trkpt>
      <trkpt lat="44.66506" lon="2.01001">
        <ele>338.01001</ele>
        <time>2018-05-25T13:18:18Z</time>
      </trkpt>
      <trkpt lat="44.66498" lon="2.01001">
        <ele>337.726013</ele>
        <time>2018-05-25T13:18:25Z</time>
      </trkpt>
      <trkpt lat="44.6649" lon="2.01">
        <ele>337.778015</ele>
        <time>2018-05-25T13:18:31Z</time>
      </trkpt>
      <trkpt lat="44.66482" lon="2.00997">
        <ele>339.809998</ele>
        <time>2018-05-25T13:18:37Z</time>
      </trkpt>
      <trkpt lat="44.66474" lon="2.00995">
        <ele>341.312988</ele>
        <time>2018-05-25T13:18:43Z</time>
      </trkpt>
      <trkpt lat="44.66466" lon="2.00992">
        <ele>341.14801</ele>
        <time>2018-05-25T13:18:50Z</time>
      </trkpt>
      <trkpt lat="44.6646" lon="2.00986">
        <ele>341.536987</ele>
        <time>2018-05-25T13:18:56Z</time>
      </trkpt>
      <trkpt lat="44.66454" lon="2.00978">
        <ele>341.363007</ele>
        <time>2018-05-25T13:19:01Z</time>
      </trkpt>
      <trkpt lat="44.66448" lon="2.00972">
        <ele>341.44101</ele>
        <time>2018-05-25T13:19:07Z</time>
      </trkpt>
      <trkpt lat="44.66442" lon="2.00965">
        <ele>342.274994</ele>
        <time>2018-05-25T13:19:13Z</time>
      </trkpt>
      <trkpt lat="44.66435" lon="2.0096">
        <ele>343.312988</ele>
        <time>2018-05-25T13:19:21Z</time>
      </trkpt>
      <trkpt lat="44.66428" lon="2.00955">
        <ele>343.955994</ele>
        <time>2018-05-25T13:19:27Z</time>
      </trkpt>
      <trkpt lat="44.6642" lon="2.00952">
        <ele>344.324005</ele>
        <time>2018-05-25T13:19:34Z</time>
      </trkpt>
      <trkpt lat="44.66413" lon="2.00952">
        <ele>344.412994</ele>
        <time>2018-05-25T13:19:43Z</time>
      </trkpt>
      <trkpt lat="44.66409" lon="2.00943">
        <ele>346.221008</ele>
        <time>2018-05-25T13:19:51Z</time>
      </trkpt>
      <trkpt lat="44.66407" lon="2.00933">
        <ele>349.946991</ele>
        <time>2018-05-25T13:19:58Z</time>
      </trkpt>
      <trkpt lat="44.66401" lon="2.00925">
        <ele>352.881989</ele>
        <time>2018-05-25T13:20:06Z</time>
      </trkpt>
      <trkpt lat="44.66397" lon="2.00916">
        <ele>352.903015</ele>
        <time>2018-05-25T13:20:12Z</time>
      </trkpt>
      <trkpt lat="44.66392" lon="2.00907">
        <ele>353.404999</ele>
        <time>2018-05-25T13:20:18Z</time>
      </trkpt>
      <trkpt lat="44.66388" lon="2.00899">
        <ele>353.632996</ele>
        <time>2018-05-25T13:20:25Z</time>
      </trkpt>
      <trkpt lat="44.66383" lon="2.0089">
        <ele>353.132996</ele>
        <time>2018-05-25T13:20:32Z</time>
      </trkpt>
      <trkpt lat="44.66378" lon="2.00882">
        <ele>354.951996</ele>
        <time>2018-05-25T13:20:41Z</time>
      </trkpt>
      <trkpt lat="44.66374" lon="2.00873">
        <ele>356.016998</ele>
        <time>2018-05-25T13:20:47Z</time>
      </trkpt>
      <trkpt lat="44.66369" lon="2.00865">
        <ele>356.860992</ele>
        <time>2018-05-25T13:20:54Z</time>
      </trkpt>
      <trkpt lat="44.66363" lon="2.00856">
        <ele>357.286987</ele>
        <time>2018-05-25T13:21:02Z</time>
      </trkpt>
      <trkpt lat="44.66358" lon="2.00848">
        <ele>356.675995</ele>
        <time>2018-05-25T13:21:07Z</time>
      </trkpt>
      <trkpt lat="44.66352" lon="2.0084">
        <ele>357.161987</ele>
        <time>2018-05-25T13:21:14Z</time>
      </trkpt>
      <trkpt lat="44.66346" lon="2.00834">
        <ele>357.665009</ele>
        <time>2018-05-25T13:21:22Z</time>
      </trkpt>
      <trkpt lat="44.66341" lon="2.00827">
        <ele>358.067993</ele>
        <time>2018-05-25T13:21:28Z</time>
      </trkpt>
      <trkpt lat="44.66333" lon="2.00821">
        <ele>359.322998</ele>
        <time>2018-05-25T13:21:37Z</time>
      </trkpt>
      <trkpt lat="44.66327" lon="2.00815">
        <ele>360.953003</ele>
        <time>2018-05-25T13:21:46Z</time>
      </trkpt>
      <trkpt lat="44.66321" lon="2.00807">
        <ele>363.354004</ele>
        <time>2018-05-25T13:21:53Z</time>
      </trkpt>
      <trkpt lat="44.66315" lon="2.00802">
        <ele>364.518005</ele>
        <time>2018-05-25T13:22:00Z</time>
      </trkpt>
      <trkpt lat="44.66308" lon="2.00798">
        <ele>363.760986</ele>
        <time>2018-05-25T13:22:08Z</time>
      </trkpt>
      <trkpt lat="44.66302" lon="2.00792">
        <ele>363.528992</ele>
        <time>2018-05-25T13:22:26Z</time>
      </trkpt>
      <trkpt lat="44.66294" lon="2.00791">
        <ele>363.501007</ele>
        <time>2018-05-25T13:22:52Z</time>
      </trkpt>
      <trkpt lat="44.66287" lon="2.00784">
        <ele>362.927002</ele>
        <time>2018-05-25T13:23:02Z</time>
      </trkpt>
      <trkpt lat="44.6628" lon="2.00778">
        <ele>363.191986</ele>
        <time>2018-05-25T13:23:12Z</time>
      </trkpt>
      <trkpt lat="44.66274" lon="2.00773">
        <ele>364.56601</ele>
        <time>2018-05-25T13:23:19Z</time>
      </trkpt>
      <trkpt lat="44.66267" lon="2.00766">
        <ele>365.945007</ele>
        <time>2018-05-25T13:23:26Z</time>
      </trkpt>
      <trkpt lat="44.66261" lon="2.00758">
        <ele>367.825012</ele>
        <time>2018-05-25T13:23:32Z</time>
      </trkpt>
      <trkpt lat="44.66255" lon="2.0075">
        <ele>370.149994</ele>
        <time>2018-05-25T13:23:37Z</time>
      </trkpt>
      <trkpt lat="44.6625" lon="2.00743">
        <ele>372.140015</ele>
        <time>2018-05-25T13:23:45Z</time>
      </trkpt>
      <trkpt lat="44.66245" lon="2.00735">
        <ele>373.653992</ele>
        <time>2018-05-25T13:23:52Z</time>
      </trkpt>
      <trkpt lat="44.66238" lon="2.0073">
        <ele>373.717987</ele>
        <time>2018-05-25T13:24:00Z</time>
      </trkpt>
      <trkpt lat="44.66231" lon="2.00727">
        <ele>373.559998</ele>
        <time>2018-05-25T13:24:07Z</time>
      </trkpt>
      <trkpt lat="44.66225" lon="2.0072">
        <ele>372.881012</ele>
        <time>2018-05-25T13:24:21Z</time>
      </trkpt>
      <trkpt lat="44.66218" lon="2.00714">
        <ele>374.553986</ele>
        <time>2018-05-25T13:24:26Z</time>
      </trkpt>
      <trkpt lat="44.66211" lon="2.00709">
        <ele>374.726013</ele>
        <time>2018-05-25T13:24:31Z</time>
      </trkpt>
      <trkpt lat="44.66205" lon="2.00702">
        <ele>374.76001</ele>
        <time>2018-05-25T13:24:37Z</time>
      </trkpt>
      <trkpt lat="44.66198" lon="2.00697">
        <ele>375.678986</ele>
        <time>2018-05-25T13:24:43Z</time>
      </trkpt>
      <trkpt lat="44.66189" lon="2.00695">
        <ele>377.06601</ele>
        <time>2018-05-25T13:24:50Z</time>
      </trkpt>
      <trkpt lat="44.66182" lon="2.00694">
        <ele>377.539001</ele>
        <time>2018-05-25T13:24:56Z</time>
      </trkpt>
      <trkpt lat="44.66174" lon="2.00691">
        <ele>377.994995</ele>
        <time>2018-05-25T13:25:02Z</time>
      </trkpt>
      <trkpt lat="44.66167" lon="2.00687">
        <ele>378.737</ele>
        <time>2018-05-25T13:25:09Z</time>
      </trkpt>
      <trkpt lat="44.66159" lon="2.00691">
        <ele>378.588989</ele>
        <time>2018-05-25T13:25:20Z</time>
      </trkpt>
      <trkpt lat="44.66154" lon="2.00699">
        <ele>378.688995</ele>
        <time>2018-05-25T13:25:31Z</time>
      </trkpt>
      <trkpt lat="44.66151" lon="2.00708">
        <ele>378.441986</ele>
        <time>2018-05-25T13:25:41Z</time>
      </trkpt>
      <trkpt lat="44.66148" lon="2.00718">
        <ele>378.55899</ele>
        <time>2018-05-25T13:25:47Z</time>
      </trkpt>
      <trkpt lat="44.66147" lon="2.00729">
        <ele>378.863007</ele>
        <time>2018-05-25T13:25:54Z</time>
      </trkpt>
      <trkpt lat="44.66147" lon="2.0074">
        <ele>380.113007</ele>
        <time>2018-05-25T13:26:00Z</time>
      </trkpt>
      <trkpt lat="44.66146" lon="2.0075">
        <ele>381.44101</ele>
        <time>2018-05-25T13:26:08Z</time>
      </trkpt>
      <trkpt lat="44.66146" lon="2.00762">
        <ele>382.147003</ele>
        <time>2018-05-25T13:26:19Z</time>
      </trkpt>
      <trkpt lat="44.66145" lon="2.00773">
        <ele>381.743011</ele>
        <time>2018-05-25T13:26:26Z</time>
      </trkpt>
      <trkpt lat="44.66146" lon="2.00784">
        <ele>381.237</ele>
        <time>2018-05-25T13:26:32Z</time>
      </trkpt>
      <trkpt lat="44.66145" lon="2.00795">
        <ele>382.338989</ele>
        <time>2018-05-25T13:26:39Z</time>
      </trkpt>
      <trkpt lat="44.66147" lon="2.00805">
        <ele>381.813995</ele>
        <time>2018-05-25T13:26:47Z</time>
      </trkpt>
      <trkpt lat="44.66149" lon="2.00816">
        <ele>381.877991</ele>
        <time>2018-05-25T13:26:56Z</time>
      </trkpt>
      <trkpt lat="44.66147" lon="2.00826">
        <ele>381.626007</ele>
        <time>2018-05-25T13:27:02Z</time>
      </trkpt>
      <trkpt lat="44.66149" lon="2.00836">
        <ele>383.270996</ele>
        <time>2018-05-25T13:27:08Z</time>
      </trkpt>
      <trkpt lat="44.6615" lon="2.00847">
        <ele>384.095001</ele>
        <time>2018-05-25T13:27:15Z</time>
      </trkpt>
      <trkpt lat="44.66153" lon="2.00857">
        <ele>385.334015</ele>
        <time>2018-05-25T13:27:23Z</time>
      </trkpt>
      <trkpt lat="44.66154" lon="2.00867">
        <ele>386.485992</ele>
        <time>2018-05-25T13:27:33Z</time>
      </trkpt>
      <trkpt lat="44.66155" lon="2.00878">
        <ele>385.714996</ele>
        <time>2018-05-25T13:27:59Z</time>
      </trkpt>
      <trkpt lat="44.66159" lon="2.00888">
        <ele>385.589996</ele>
        <time>2018-05-25T13:28:07Z</time>
      </trkpt>
      <trkpt lat="44.66162" lon="2.00897">
        <ele>388.007996</ele>
        <time>2018-05-25T13:28:15Z</time>
      </trkpt>
      <trkpt lat="44.66164" lon="2.00908">
        <ele>389.041992</ele>
        <time>2018-05-25T13:28:25Z</time>
      </trkpt>
      <trkpt lat="44.66167" lon="2.00918">
        <ele>389.48999</ele>
        <time>2018-05-25T13:28:32Z</time>
      </trkpt>
      <trkpt lat="44.66165" lon="2.00928">
        <ele>389.558014</ele>
        <time>2018-05-25T13:28:38Z</time>
      </trkpt>
      <trkpt lat="44.66166" lon="2.0094">
        <ele>391.251007</ele>
        <time>2018-05-25T13:28:46Z</time>
      </trkpt>
      <trkpt lat="44.66167" lon="2.00951">
        <ele>393.996002</ele>
        <time>2018-05-25T13:28:56Z</time>
      </trkpt>
      <trkpt lat="44.66167" lon="2.00962">
        <ele>395.033997</ele>
        <time>2018-05-25T13:29:02Z</time>
      </trkpt>
      <trkpt lat="44.6617" lon="2.00971">
        <ele>395.679993</ele>
        <time>2018-05-25T13:29:07Z</time>
      </trkpt>
      <trkpt lat="44.66173" lon="2.00981">
        <ele>395.125</ele>
        <time>2018-05-25T13:29:16Z</time>
      </trkpt>
      <trkpt lat="44.66176" lon="2.00991">
        <ele>396.199005</ele>
        <time>2018-05-25T13:29:24Z</time>
      </trkpt>
      <trkpt lat="44.66178" lon="2.01001">
        <ele>396.328003</ele>
        <time>2018-05-25T13:29:29Z</time>
      </trkpt>
      <trkpt lat="44.6618" lon="2.01012">
        <ele>395.593994</ele>
        <time>2018-05-25T13:29:34Z</time>
      </trkpt>
      <trkpt lat="44.66186" lon="2.01017">
        <ele>397.074005</ele>
        <time>2018-05-25T13:29:51Z</time>
      </trkpt>
      <trkpt lat="44.66191" lon="2.01026">
        <ele>397.735992</ele>
        <time>2018-05-25T13:29:58Z</time>
      </trkpt>
      <trkpt lat="44.66195" lon="2.01034">
        <ele>397.096008</ele>
        <time>2018-05-25T13:30:06Z</time>
      </trkpt>
      <trkpt lat="44.662" lon="2.01044">
        <ele>396.846985</ele>
        <time>2018-05-25T13:30:13Z</time>
      </trkpt>
      <trkpt lat="44.66202" lon="2.01054">
        <ele>397.053986</ele>
        <time>2018-05-25T13:30:19Z</time>
      </trkpt>
      <trkpt lat="44.66207" lon="2.01063">
        <ele>397.25</ele>
        <time>2018-05-25T13:30:25Z</time>
      </trkpt>
      <trkpt lat="44.66211" lon="2.01072">
        <ele>396.345001</ele>
        <time>2018-05-25T13:30:32Z</time>
      </trkpt>
      <trkpt lat="44.66216" lon="2.0108">
        <ele>395.626007</ele>
        <time>2018-05-25T13:30:38Z</time>
      </trkpt>
      <trkpt lat="44.66219" lon="2.01089">
        <ele>395.289001</ele>
        <time>2018-05-25T13:30:45Z</time>
      </trkpt>
      <trkpt lat="44.66224" lon="2.01098">
        <ele>394.273987</ele>
        <time>2018-05-25T13:30:53Z</time>
      </trkpt>
      <trkpt lat="44.66229" lon="2.01106">
        <ele>391.424011</ele>
        <time>2018-05-25T13:31:00Z</time>
      </trkpt>
      <trkpt lat="44.66233" lon="2.01117">
        <ele>390.39801</ele>
        <time>2018-05-25T13:31:08Z</time>
      </trkpt>
      <trkpt lat="44.66237" lon="2.01127">
        <ele>388.328003</ele>
        <time>2018-05-25T13:31:16Z</time>
      </trkpt>
      <trkpt lat="44.66241" lon="2.01136">
        <ele>387.610992</ele>
        <time>2018-05-25T13:31:23Z</time>
      </trkpt>
      <trkpt lat="44.66244" lon="2.01146">
        <ele>386.822998</ele>
        <time>2018-05-25T13:31:30Z</time>
      </trkpt>
      <trkpt lat="44.66247" lon="2.01156">
        <ele>385.369995</ele>
        <time>2018-05-25T13:31:36Z</time>
      </trkpt>
      <trkpt lat="44.66252" lon="2.01166">
        <ele>383.881989</ele>
        <time>2018-05-25T13:31:42Z</time>
      </trkpt>
      <trkpt lat="44.66253" lon="2.01176">
        <ele>381.625</ele>
        <time>2018-05-25T13:31:48Z</time>
      </trkpt>
      <trkpt lat="44.66253" lon="2.01188">
        <ele>381.673004</ele>
        <time>2018-05-25T13:31:53Z</time>
      </trkpt>
      <trkpt lat="44.66252" lon="2.01198">
        <ele>382.122009</ele>
        <time>2018-05-25T13:31:58Z</time>
      </trkpt>
      <trkpt lat="44.6625" lon="2.01208">
        <ele>382.519012</ele>
        <time>2018-05-25T13:32:03Z</time>
      </trkpt>
      <trkpt lat="44.66248" lon="2.01218">
        <ele>383.17099</ele>
        <time>2018-05-25T13:32:08Z</time>
      </trkpt>
      <trkpt lat="44.66247" lon="2.01229">
        <ele>384.248993</ele>
        <time>2018-05-25T13:32:14Z</time>
      </trkpt>
      <trkpt lat="44.66248" lon="2.0124">
        <ele>385.925995</ele>
        <time>2018-05-25T13:32:21Z</time>
      </trkpt>
      <trkpt lat="44.66246" lon="2.01251">
        <ele>385.973999</ele>
        <time>2018-05-25T13:32:28Z</time>
      </trkpt>
      <trkpt lat="44.66242" lon="2.01261">
        <ele>385.860992</ele>
        <time>2018-05-25T13:32:35Z</time>
      </trkpt>
      <trkpt lat="44.66238" lon="2.01271">
        <ele>386.321991</ele>
        <time>2018-05-25T13:32:52Z</time>
      </trkpt>
      <trkpt lat="44.66236" lon="2.01281">
        <ele>385.390991</ele>
        <time>2018-05-25T13:33:00Z</time>
      </trkpt>
      <trkpt lat="44.66236" lon="2.01292">
        <ele>384.674011</ele>
        <time>2018-05-25T13:33:06Z</time>
      </trkpt>
      <trkpt lat="44.66235" lon="2.01302">
        <ele>384.894012</ele>
        <time>2018-05-25T13:33:11Z</time>
      </trkpt>
      <trkpt lat="44.66236" lon="2.01314">
        <ele>384.053009</ele>
        <time>2018-05-25T13:33:18Z</time>
      </trkpt>
      <trkpt lat="44.66241" lon="2.01322">
        <ele>384.609009</ele>
        <time>2018-05-25T13:33:28Z</time>
      </trkpt>
      <trkpt lat="44.66247" lon="2.01328">
        <ele>385.019989</ele>
        <time>2018-05-25T13:33:35Z</time>
      </trkpt>
      <trkpt lat="44.66254" lon="2.01327">
        <ele>384.915009</ele>
        <time>2018-05-25T13:33:40Z</time>
      </trkpt>
      <trkpt lat="44.66261" lon="2.01332">
        <ele>387.355988</ele>
        <time>2018-05-25T13:33:51Z</time>
      </trkpt>
      <trkpt lat="44.66269" lon="2.01333">
        <ele>386.850006</ele>
        <time>2018-05-25T13:33:57Z</time>
      </trkpt>
      <trkpt lat="44.66276" lon="2.01337">
        <ele>385.895996</ele>
        <time>2018-05-25T13:34:04Z</time>
      </trkpt>
      <trkpt lat="44.66283" lon="2.0134">
        <ele>385.046997</ele>
        <time>2018-05-25T13:34:11Z</time>
      </trkpt>
      <trkpt lat="44.66291" lon="2.01343">
        <ele>384.287994</ele>
        <time>2018-05-25T13:34:17Z</time>
      </trkpt>
      <trkpt lat="44.66297" lon="2.0135">
        <ele>384.643005</ele>
        <time>2018-05-25T13:34:23Z</time>
      </trkpt>
      <trkpt lat="44.66303" lon="2.01357">
        <ele>385.131012</ele>
        <time>2018-05-25T13:34:28Z</time>
      </trkpt>
      <trkpt lat="44.66309" lon="2.01363">
        <ele>385.489014</ele>
        <time>2018-05-25T13:34:36Z</time>
      </trkpt>
      <trkpt lat="44.66317" lon="2.01368">
        <ele>382.631989</ele>
        <time>2018-05-25T13:34:57Z</time>
      </trkpt>
      <trkpt lat="44.66324" lon="2.01373">
        <ele>384.057007</ele>
        <time>2018-05-25T13:35:04Z</time>
      </trkpt>
      <trkpt lat="44.66329" lon="2.01382">
        <ele>385.151001</ele>
        <time>2018-05-25T13:35:13Z</time>
      </trkpt>
      <trkpt lat="44.66335" lon="2.01388">
        <ele>385.744995</ele>
        <time>2018-05-25T13:35:19Z</time>
      </trkpt>
      <trkpt lat="44.66342" lon="2.01392">
        <ele>386.730988</ele>
        <time>2018-05-25T13:35:24Z</time>
      </trkpt>
      <trkpt lat="44.66349" lon="2.01396">
        <ele>388.492004</ele>
        <time>2018-05-25T13:35:30Z</time>
      </trkpt>
      <trkpt lat="44.66356" lon="2.01398">
        <ele>389.242004</ele>
        <time>2018-05-25T13:35:38Z</time>
      </trkpt>
      <trkpt lat="44.66364" lon="2.01402">
        <ele>388.812988</ele>
        <time>2018-05-25T13:35:43Z</time>
      </trkpt>
      <trkpt lat="44.66372" lon="2.01402">
        <ele>388.729004</ele>
        <time>2018-05-25T13:36:09Z</time>
      </trkpt>
      <trkpt lat="44.66379" lon="2.01402">
        <ele>388.826996</ele>
        <time>2018-05-25T13:36:20Z</time>
      </trkpt>
      <trkpt lat="44.66387" lon="2.01405">
        <ele>389.803986</ele>
        <time>2018-05-25T13:36:28Z</time>
      </trkpt>
      <trkpt lat="44.66394" lon="2.01406">
        <ele>389.127014</ele>
        <time>2018-05-25T13:36:35Z</time>
      </trkpt>
      <trkpt lat="44.66402" lon="2.01408">
        <ele>387.493011</ele>
        <time>2018-05-25T13:36:43Z</time>
      </trkpt>
      <trkpt lat="44.66409" lon="2.01411">
        <ele>387.901001</ele>
        <time>2018-05-25T13:36:50Z</time>
      </trkpt>
      <trkpt lat="44.66417" lon="2.01415">
        <ele>389.020996</ele>
        <time>2018-05-25T13:36:59Z</time>
      </trkpt>
      <trkpt lat="44.66426" lon="2.01415">
        <ele>391.067993</ele>
        <time>2018-05-25T13:37:05Z</time>
      </trkpt>
      <trkpt lat="44.66433" lon="2.01413">
        <ele>392.523987</ele>
        <time>2018-05-25T13:37:11Z</time>
      </trkpt>
      <trkpt lat="44.66441" lon="2.0141">
        <ele>391.798004</ele>
        <time>2018-05-25T13:37:18Z</time>
      </trkpt>
      <trkpt lat="44.6645" lon="2.01409">
        <ele>392.253998</ele>
        <time>2018-05-25T13:37:24Z</time>
      </trkpt>
      <trkpt lat="44.66457" lon="2.01405">
        <ele>394.442993</ele>
        <time>2018-05-25T13:37:31Z</time>
      </trkpt>
      <trkpt lat="44.66464" lon="2.01401">
        <ele>394.536011</ele>
        <time>2018-05-25T13:37:39Z</time>
      </trkpt>
      <trkpt lat="44.66471" lon="2.01398">
        <ele>393.447998</ele>
        <time>2018-05-25T13:37:46Z</time>
      </trkpt>
      <trkpt lat="44.66476" lon="2.01391">
        <ele>393.053986</ele>
        <time>2018-05-25T13:37:52Z</time>
      </trkpt>
      <trkpt lat="44.66482" lon="2.01386">
        <ele>392.631989</ele>
        <time>2018-05-25T13:37:58Z</time>
      </trkpt>
      <trkpt lat="44.66488" lon="2.01379">
        <ele>393.466003</ele>
        <time>2018-05-25T13:38:04Z</time>
      </trkpt>
      <trkpt lat="44.66494" lon="2.01372">
        <ele>393.367004</ele>
        <time>2018-05-25T13:38:12Z</time>
      </trkpt>
      <trkpt lat="44.66501" lon="2.01368">
        <ele>393.464996</ele>
        <time>2018-05-25T13:38:19Z</time>
      </trkpt>
      <trkpt lat="44.66508" lon="2.01365">
        <ele>394.101013</ele>
        <time>2018-05-25T13:38:27Z</time>
      </trkpt>
      <trkpt lat="44.66516" lon="2.01363">
        <ele>394.963989</ele>
        <time>2018-05-25T13:38:34Z</time>
      </trkpt>
      <trkpt lat="44.66523" lon="2.01363">
        <ele>396.665985</ele>
        <time>2018-05-25T13:38:41Z</time>
      </trkpt>
      <trkpt lat="44.66531" lon="2.01363">
        <ele>398.546997</ele>
        <time>2018-05-25T13:38:47Z</time>
      </trkpt>
      <trkpt lat="44.66538" lon="2.01364">
        <ele>399.962006</ele>
        <time>2018-05-25T13:38:52Z</time>
      </trkpt>
      <trkpt lat="44.66547" lon="2.01364">
        <ele>400.505005</ele>
        <time>2018-05-25T13:39:01Z</time>
      </trkpt>
      <trkpt lat="44.66554" lon="2.01366">
        <ele>400.924988</ele>
        <time>2018-05-25T13:39:09Z</time>
      </trkpt>
      <trkpt lat="44.66561" lon="2.01367">
        <ele>400.066986</ele>
        <time>2018-05-25T13:39:16Z</time>
      </trkpt>
      <trkpt lat="44.66569" lon="2.01368">
        <ele>400.411011</ele>
        <time>2018-05-25T13:39:23Z</time>
      </trkpt>
      <trkpt lat="44.66577" lon="2.01366">
        <ele>400.412994</ele>
        <time>2018-05-25T13:39:30Z</time>
      </trkpt>
      <trkpt lat="44.66585" lon="2.01366">
        <ele>402.141998</ele>
        <time>2018-05-25T13:39:38Z</time>
      </trkpt>
      <trkpt lat="44.66592" lon="2.01369">
        <ele>402.420013</ele>
        <time>2018-05-25T13:39:46Z</time>
      </trkpt>
      <trkpt lat="44.666" lon="2.0137">
        <ele>402.70401</ele>
        <time>2018-05-25T13:39:53Z</time>
      </trkpt>
      <trkpt lat="44.66608" lon="2.01373">
        <ele>402.912994</ele>
        <time>2018-05-25T13:40:00Z</time>
      </trkpt>
      <trkpt lat="44.66615" lon="2.01376">
        <ele>404.05899</ele>
        <time>2018-05-25T13:40:07Z</time>
      </trkpt>
      <trkpt lat="44.66623" lon="2.01377">
        <ele>407.52301</ele>
        <time>2018-05-25T13:40:12Z</time>
      </trkpt>
      <trkpt lat="44.6663" lon="2.01375">
        <ele>408.223999</ele>
        <time>2018-05-25T13:40:19Z</time>
      </trkpt>
      <trkpt lat="44.66638" lon="2.01373">
        <ele>410.046997</ele>
        <time>2018-05-25T13:40:24Z</time>
      </trkpt>
      <trkpt lat="44.66646" lon="2.01376">
        <ele>411.28299</ele>
        <time>2018-05-25T13:40:32Z</time>
      </trkpt>
      <trkpt lat="44.66654" lon="2.01379">
        <ele>411.230011</ele>
        <time>2018-05-25T13:40:38Z</time>
      </trkpt>
      <trkpt lat="44.66661" lon="2.01379">
        <ele>410.522003</ele>
        <time>2018-05-25T13:40:44Z</time>
      </trkpt>
      <trkpt lat="44.66669" lon="2.0138">
        <ele>411.411987</ele>
        <time>2018-05-25T13:40:51Z</time>
      </trkpt>
      <trkpt lat="44.66677" lon="2.01378">
        <ele>412.847992</ele>
        <time>2018-05-25T13:40:59Z</time>
      </trkpt>
      <trkpt lat="44.66685" lon="2.01377">
        <ele>415.070007</ele>
        <time>2018-05-25T13:41:06Z</time>
      </trkpt>
      <trkpt lat="44.66692" lon="2.01379">
        <ele>415.96701</ele>
        <time>2018-05-25T13:41:12Z</time>
      </trkpt>
      <trkpt lat="44.66699" lon="2.0138">
        <ele>416.776001</ele>
        <time>2018-05-25T13:41:20Z</time>
      </trkpt>
      <trkpt lat="44.66707" lon="2.01379">
        <ele>416.855011</ele>
        <time>2018-05-25T13:41:27Z</time>
      </trkpt>
      <trkpt lat="44.66714" lon="2.01374">
        <ele>416.675995</ele>
        <time>2018-05-25T13:41:34Z</time>
      </trkpt>
      <trkpt lat="44.66722" lon="2.01367">
        <ele>413.838989</ele>
        <time>2018-05-25T13:41:54Z</time>
      </trkpt>
      <trkpt lat="44.66728" lon="2.01364">
        <ele>412.989014</ele>
        <time>2018-05-25T13:42:00Z</time>
      </trkpt>
      <trkpt lat="44.66736" lon="2.0136">
        <ele>412.45401</ele>
        <time>2018-05-25T13:42:07Z</time>
      </trkpt>
      <trkpt lat="44.66743" lon="2.01357">
        <ele>413.898987</ele>
        <time>2018-05-25T13:42:17Z</time>
      </trkpt>
      <trkpt lat="44.66753" lon="2.01358">
        <ele>414.347992</ele>
        <time>2018-05-25T13:42:22Z</time>
      </trkpt>
      <trkpt lat="44.6676" lon="2.0136">
        <ele>416.207001</ele>
        <time>2018-05-25T13:42:28Z</time>
      </trkpt>
      <trkpt lat="44.66768" lon="2.01359">
        <ele>417.575012</ele>
        <time>2018-05-25T13:42:35Z</time>
      </trkpt>
      <trkpt lat="44.66775" lon="2.01358">
        <ele>418.089996</ele>
        <time>2018-05-25T13:42:41Z</time>
      </trkpt>
      <trkpt lat="44.66782" lon="2.01359">
        <ele>418.929993</ele>
        <time>2018-05-25T13:42:47Z</time>
      </trkpt>
      <trkpt lat="44.6679" lon="2.01361">
        <ele>422.145996</ele>
        <time>2018-05-25T13:42:57Z</time>
      </trkpt>
      <trkpt lat="44.66797" lon="2.01365">
        <ele>422.518005</ele>
        <time>2018-05-25T13:43:05Z</time>
      </trkpt>
      <trkpt lat="44.66804" lon="2.01369">
        <ele>423.074005</ele>
        <time>2018-05-25T13:43:12Z</time>
      </trkpt>
      <trkpt lat="44.66812" lon="2.01371">
        <ele>423.876007</ele>
        <time>2018-05-25T13:43:18Z</time>
      </trkpt>
      <trkpt lat="44.6682" lon="2.01372">
        <ele>424.169006</ele>
        <time>2018-05-25T13:43:24Z</time>
      </trkpt>
      <trkpt lat="44.66829" lon="2.01373">
        <ele>421.985992</ele>
        <time>2018-05-25T13:43:30Z</time>
      </trkpt>
      <trkpt lat="44.66836" lon="2.01375">
        <ele>419.701996</ele>
        <time>2018-05-25T13:43:36Z</time>
      </trkpt>
      <trkpt lat="44.66844" lon="2.01377">
        <ele>418.777008</ele>
        <time>2018-05-25T13:43:42Z</time>
      </trkpt>
      <trkpt lat="44.66851" lon="2.01381">
        <ele>419.617004</ele>
        <time>2018-05-25T13:43:48Z</time>
      </trkpt>
      <trkpt lat="44.66859" lon="2.01382">
        <ele>419.26001</ele>
        <time>2018-05-25T13:43:56Z</time>
      </trkpt>
      <trkpt lat="44.66867" lon="2.01384">
        <ele>419.700012</ele>
        <time>2018-05-25T13:44:04Z</time>
      </trkpt>
      <trkpt lat="44.66874" lon="2.01389">
        <ele>420.135986</ele>
        <time>2018-05-25T13:44:12Z</time>
      </trkpt>
      <trkpt lat="44.66882" lon="2.01392">
        <ele>420.420013</ele>
        <time>2018-05-25T13:45:03Z</time>
      </trkpt>
      <trkpt lat="44.66891" lon="2.01394">
        <ele>421.286011</ele>
        <time>2018-05-25T13:45:10Z</time>
      </trkpt>
      <trkpt lat="44.66898" lon="2.01395">
        <ele>422.294006</ele>
        <time>2018-05-25T13:45:15Z</time>
      </trkpt>
      <trkpt lat="44.66906" lon="2.01396">
        <ele>423.048004</ele>
        <time>2018-05-25T13:45:20Z</time>
      </trkpt>
      <trkpt lat="44.66913" lon="2.01397">
        <ele>422.819</ele>
        <time>2018-05-25T13:45:25Z</time>
      </trkpt>
      <trkpt lat="44.66921" lon="2.01395">
        <ele>422.083008</ele>
        <time>2018-05-25T13:45:31Z</time>
      </trkpt>
      <trkpt lat="44.66929" lon="2.01394">
        <ele>422.019989</ele>
        <time>2018-05-25T13:45:37Z</time>
      </trkpt>
      <trkpt lat="44.66936" lon="2.01397">
        <ele>423.645996</ele>
        <time>2018-05-25T13:45:42Z</time>
      </trkpt>
      <trkpt lat="44.66943" lon="2.01399">
        <ele>423.294006</ele>
        <time>2018-05-25T13:45:48Z</time>
      </trkpt>
      <trkpt lat="44.66951" lon="2.01401">
        <ele>422.94101</ele>
        <time>2018-05-25T13:45:56Z</time>
      </trkpt>
      <trkpt lat="44.66959" lon="2.01403">
        <ele>423.045013</ele>
        <time>2018-05-25T13:46:03Z</time>
      </trkpt>
      <trkpt lat="44.66965" lon="2.01409">
        <ele>424.526001</ele>
        <time>2018-05-25T13:46:11Z</time>
      </trkpt>
      <trkpt lat="44.66972" lon="2.01416">
        <ele>424.929993</ele>
        <time>2018-05-25T13:46:16Z</time>
      </trkpt>
      <trkpt lat="44.66979" lon="2.01417">
        <ele>424.128998</ele>
        <time>2018-05-25T13:46:22Z</time>
      </trkpt>
      <trkpt lat="44.66987" lon="2.01415">
        <ele>421.371002</ele>
        <time>2018-05-25T13:46:29Z</time>
      </trkpt>
      <trkpt lat="44.66994" lon="2.01415">
        <ele>420.790985</ele>
        <time>2018-05-25T13:46:35Z</time>
      </trkpt>
      <trkpt lat="44.67002" lon="2.01415">
        <ele>419.56601</ele>
        <time>2018-05-25T13:46:42Z</time>
      </trkpt>
      <trkpt lat="44.6701" lon="2.01415">
        <ele>419.363007</ele>
        <time>2018-05-25T13:46:49Z</time>
      </trkpt>
      <trkpt lat="44.67017" lon="2.01416">
        <ele>419.609009</ele>
        <time>2018-05-25T13:46:57Z</time>
      </trkpt>
      <trkpt lat="44.67025" lon="2.01417">
        <ele>419.910004</ele>
        <time>2018-05-25T13:47:03Z</time>
      </trkpt>
      <trkpt lat="44.67033" lon="2.01421">
        <ele>419.47699</ele>
        <time>2018-05-25T13:47:09Z</time>
      </trkpt>
      <trkpt lat="44.6704" lon="2.01424">
        <ele>419.744995</ele>
        <time>2018-05-25T13:47:16Z</time>
      </trkpt>
      <trkpt lat="44.67048" lon="2.01424">
        <ele>419.695007</ele>
        <time>2018-05-25T13:47:21Z</time>
      </trkpt>
      <trkpt lat="44.67056" lon="2.01426">
        <ele>419.773987</ele>
        <time>2018-05-25T13:47:27Z</time>
      </trkpt>
      <trkpt lat="44.67063" lon="2.0143">
        <ele>423.161987</ele>
        <time>2018-05-25T13:47:34Z</time>
      </trkpt>
      <trkpt lat="44.6707" lon="2.01431">
        <ele>423.38501</ele>
        <time>2018-05-25T13:47:40Z</time>
      </trkpt>
      <trkpt lat="44.67078" lon="2.0143">
        <ele>423.062012</ele>
        <time>2018-05-25T13:47:48Z</time>
      </trkpt>
      <trkpt lat="44.67086" lon="2.01431">
        <ele>423.013</ele>
        <time>2018-05-25T13:47:54Z</time>
      </trkpt>
      <trkpt lat="44.67094" lon="2.01432">
        <ele>424.526001</ele>
        <time>2018-05-25T13:48:01Z</time>
      </trkpt>
      <trkpt lat="44.67102" lon="2.01432">
        <ele>426.498993</ele>
        <time>2018-05-25T13:48:09Z</time>
      </trkpt>
      <trkpt lat="44.67109" lon="2.01435">
        <ele>427.914001</ele>
        <time>2018-05-25T13:48:14Z</time>
      </trkpt>
      <trkpt lat="44.67117" lon="2.01434">
        <ele>427.78299</ele>
        <time>2018-05-25T13:48:25Z</time>
      </trkpt>
      <trkpt lat="44.67125" lon="2.01434">
        <ele>429.44101</ele>
        <time>2018-05-25T13:48:34Z</time>
      </trkpt>
      <trkpt lat="44.67133" lon="2.01434">
        <ele>429.101013</ele>
        <time>2018-05-25T13:48:41Z</time>
      </trkpt>
      <trkpt lat="44.67141" lon="2.01436">
        <ele>427.92099</ele>
        <time>2018-05-25T13:48:48Z</time>
      </trkpt>
      <trkpt lat="44.67149" lon="2.01438">
        <ele>428.556</ele>
        <time>2018-05-25T13:48:59Z</time>
      </trkpt>
      <trkpt lat="44.67157" lon="2.01442">
        <ele>429.562012</ele>
        <time>2018-05-25T13:49:05Z</time>
      </trkpt>
      <trkpt lat="44.67164" lon="2.01447">
        <ele>430.915985</ele>
        <time>2018-05-25T13:49:14Z</time>
      </trkpt>
      <trkpt lat="44.67171" lon="2.01449">
        <ele>433.144989</ele>
        <time>2018-05-25T13:49:22Z</time>
      </trkpt>
      <trkpt lat="44.67179" lon="2.01451">
        <ele>433.832001</ele>
        <time>2018-05-25T13:49:28Z</time>
      </trkpt>
      <trkpt lat="44.67188" lon="2.01452">
        <ele>433.98999</ele>
        <time>2018-05-25T13:49:35Z</time>
      </trkpt>
      <trkpt lat="44.67196" lon="2.01452">
        <ele>434.571991</ele>
        <time>2018-05-25T13:49:41Z</time>
      </trkpt>
      <trkpt lat="44.67204" lon="2.01451">
        <ele>433.339996</ele>
        <time>2018-05-25T13:49:47Z</time>
      </trkpt>
      <trkpt lat="44.67211" lon="2.01451">
        <ele>432.007996</ele>
        <time>2018-05-25T13:49:53Z</time>
      </trkpt>
      <trkpt lat="44.6722" lon="2.01451">
        <ele>431.747986</ele>
        <time>2018-05-25T13:50:00Z</time>
      </trkpt>
      <trkpt lat="44.67227" lon="2.01455">
        <ele>432.740997</ele>
        <time>2018-05-25T13:50:06Z</time>
      </trkpt>
      <trkpt lat="44.67235" lon="2.01458">
        <ele>433.718994</ele>
        <time>2018-05-25T13:50:13Z</time>
      </trkpt>
      <trkpt lat="44.67242" lon="2.0146">
        <ele>433.536011</ele>
        <time>2018-05-25T13:50:21Z</time>
      </trkpt>
      <trkpt lat="44.6725" lon="2.01461">
        <ele>433.20401</ele>
        <time>2018-05-25T13:50:27Z</time>
      </trkpt>
      <trkpt lat="44.67258" lon="2.01461">
        <ele>431.661011</ele>
        <time>2018-05-25T13:50:35Z</time>
      </trkpt>
      <trkpt lat="44.67266" lon="2.01461">
        <ele>432.230011</ele>
        <time>2018-05-25T13:50:43Z</time>
      </trkpt>
      <trkpt lat="44.67274" lon="2.01463">
        <ele>433.040985</ele>
        <time>2018-05-25T13:50:49Z</time>
      </trkpt>
      <trkpt lat="44.67281" lon="2.01465">
        <ele>433.437012</ele>
        <time>2018-05-25T13:50:54Z</time>
      </trkpt>
      <trkpt lat="44.67289" lon="2.01464">
        <ele>434.056</ele>
        <time>2018-05-25T13:51:00Z</time>
      </trkpt>
      <trkpt lat="44.67296" lon="2.01462">
        <ele>433.174988</ele>
        <time>2018-05-25T13:51:06Z</time>
      </trkpt>
      <trkpt lat="44.67303" lon="2.01458">
        <ele>434.028992</ele>
        <time>2018-05-25T13:51:12Z</time>
      </trkpt>
      <trkpt lat="44.67311" lon="2.01453">
        <ele>436.303009</ele>
        <time>2018-05-25T13:51:19Z</time>
      </trkpt>
      <trkpt lat="44.67317" lon="2.01446">
        <ele>437.226013</ele>
        <time>2018-05-25T13:51:26Z</time>
      </trkpt>
      <trkpt lat="44.67323" lon="2.01438">
        <ele>436.097992</ele>
        <time>2018-05-25T13:51:33Z</time>
      </trkpt>
      <trkpt lat="44.67328" lon="2.01429">
        <ele>436.020996</ele>
        <time>2018-05-25T13:51:39Z</time>
      </trkpt>
      <trkpt lat="44.67333" lon="2.01421">
        <ele>435.86499</ele>
        <time>2018-05-25T13:51:45Z</time>
      </trkpt>
      <trkpt lat="44.6734" lon="2.01415">
        <ele>435.778015</ele>
        <time>2018-05-25T13:51:52Z</time>
      </trkpt>
      <trkpt lat="44.67347" lon="2.0141">
        <ele>437.820007</ele>
        <time>2018-05-25T13:51:59Z</time>
      </trkpt>
      <trkpt lat="44.67354" lon="2.01406">
        <ele>439.377014</ele>
        <time>2018-05-25T13:52:06Z</time>
      </trkpt>
      <trkpt lat="44.67362" lon="2.01406">
        <ele>439.687988</ele>
        <time>2018-05-25T13:52:14Z</time>
      </trkpt>
      <trkpt lat="44.6737" lon="2.01409">
        <ele>439.378998</ele>
        <time>2018-05-25T13:52:20Z</time>
      </trkpt>
      <trkpt lat="44.67375" lon="2.01416">
        <ele>438.244995</ele>
        <time>2018-05-25T13:52:27Z</time>
      </trkpt>
      <trkpt lat="44.67378" lon="2.01426">
        <ele>439.292999</ele>
        <time>2018-05-25T13:52:35Z</time>
      </trkpt>
      <trkpt lat="44.67378" lon="2.01437">
        <ele>440.737</ele>
        <time>2018-05-25T13:52:43Z</time>
      </trkpt>
      <trkpt lat="44.67376" lon="2.01448">
        <ele>439.96701</ele>
        <time>2018-05-25T13:52:50Z</time>
      </trkpt>
      <trkpt lat="44.67374" lon="2.01459">
        <ele>440.35199</ele>
        <time>2018-05-25T13:52:58Z</time>
      </trkpt>
      <trkpt lat="44.6737" lon="2.01468">
        <ele>442.557007</ele>
        <time>2018-05-25T13:53:05Z</time>
      </trkpt>
      <trkpt lat="44.6737" lon="2.01478">
        <ele>441.837006</ele>
        <time>2018-05-25T13:53:12Z</time>
      </trkpt>
      <trkpt lat="44.67372" lon="2.01488">
        <ele>442.556</ele>
        <time>2018-05-25T13:53:23Z</time>
      </trkpt>
      <trkpt lat="44.67375" lon="2.01498">
        <ele>443.872986</ele>
        <time>2018-05-25T13:53:30Z</time>
      </trkpt>
      <trkpt lat="44.67378" lon="2.01508">
        <ele>445.928986</ele>
        <time>2018-05-25T13:53:35Z</time>
      </trkpt>
      <trkpt lat="44.6738" lon="2.01518">
        <ele>449.093994</ele>
        <time>2018-05-25T13:53:42Z</time>
      </trkpt>
      <trkpt lat="44.67383" lon="2.01528">
        <ele>451.338989</ele>
        <time>2018-05-25T13:53:48Z</time>
      </trkpt>
      <trkpt lat="44.67387" lon="2.01538">
        <ele>453.903992</ele>
        <time>2018-05-25T13:53:56Z</time>
      </trkpt>
      <trkpt lat="44.67394" lon="2.01542">
        <ele>453.772003</ele>
        <time>2018-05-25T13:54:05Z</time>
      </trkpt>
      <trkpt lat="44.67401" lon="2.01549">
        <ele>454.225006</ele>
        <time>2018-05-25T13:54:14Z</time>
      </trkpt>
      <trkpt lat="44.67407" lon="2.01555">
        <ele>454.623993</ele>
        <time>2018-05-25T13:54:20Z</time>
      </trkpt>
      <trkpt lat="44.67411" lon="2.01564">
        <ele>455.520996</ele>
        <time>2018-05-25T13:54:28Z</time>
      </trkpt>
      <trkpt lat="44.67412" lon="2.01574">
        <ele>455.417999</ele>
        <time>2018-05-25T13:54:37Z</time>
      </trkpt>
      <trkpt lat="44.67414" lon="2.01584">
        <ele>455.056</ele>
        <time>2018-05-25T13:54:44Z</time>
      </trkpt>
      <trkpt lat="44.6741" lon="2.01593">
        <ele>455.462006</ele>
        <time>2018-05-25T13:54:54Z</time>
      </trkpt>
      <trkpt lat="44.67407" lon="2.01603">
        <ele>456.070007</ele>
        <time>2018-05-25T13:55:01Z</time>
      </trkpt>
      <trkpt lat="44.67404" lon="2.01613">
        <ele>456.791992</ele>
        <time>2018-05-25T13:55:09Z</time>
      </trkpt>
      <trkpt lat="44.67402" lon="2.01625">
        <ele>458.011993</ele>
        <time>2018-05-25T13:55:23Z</time>
      </trkpt>
      <trkpt lat="44.67402" lon="2.01635">
        <ele>459.040009</ele>
        <time>2018-05-25T13:55:56Z</time>
      </trkpt>
      <trkpt lat="44.67399" lon="2.01645">
        <ele>458.184998</ele>
        <time>2018-05-25T13:56:05Z</time>
      </trkpt>
      <trkpt lat="44.67394" lon="2.01653">
        <ele>458.066986</ele>
        <time>2018-05-25T13:56:11Z</time>
      </trkpt>
      <trkpt lat="44.67391" lon="2.01663">
        <ele>458.079987</ele>
        <time>2018-05-25T13:56:18Z</time>
      </trkpt>
      <trkpt lat="44.6739" lon="2.01675">
        <ele>458.773987</ele>
        <time>2018-05-25T13:56:24Z</time>
      </trkpt>
      <trkpt lat="44.67389" lon="2.01686">
        <ele>459.921997</ele>
        <time>2018-05-25T13:56:30Z</time>
      </trkpt>
      <trkpt lat="44.67389" lon="2.01696">
        <ele>459.644989</ele>
        <time>2018-05-25T13:56:36Z</time>
      </trkpt>
      <trkpt lat="44.67388" lon="2.01706">
        <ele>460.144989</ele>
        <time>2018-05-25T13:56:42Z</time>
      </trkpt>
      <trkpt lat="44.67387" lon="2.01717">
        <ele>460.851013</ele>
        <time>2018-05-25T13:56:49Z</time>
      </trkpt>
      <trkpt lat="44.67384" lon="2.01727">
        <ele>461.494995</ele>
        <time>2018-05-25T13:56:55Z</time>
      </trkpt>
      <trkpt lat="44.67381" lon="2.01736">
        <ele>461.658997</ele>
        <time>2018-05-25T13:57:04Z</time>
      </trkpt>
      <trkpt lat="44.67379" lon="2.01748">
        <ele>458.334991</ele>
        <time>2018-05-25T13:57:19Z</time>
      </trkpt>
      <trkpt lat="44.67378" lon="2.01758">
        <ele>458.881989</ele>
        <time>2018-05-25T13:57:26Z</time>
      </trkpt>
      <trkpt lat="44.67379" lon="2.01769">
        <ele>459.649994</ele>
        <time>2018-05-25T13:57:32Z</time>
      </trkpt>
      <trkpt lat="44.67379" lon="2.0178">
        <ele>459.906006</ele>
        <time>2018-05-25T13:57:38Z</time>
      </trkpt>
      <trkpt lat="44.67381" lon="2.01791">
        <ele>459.51001</ele>
        <time>2018-05-25T13:57:46Z</time>
      </trkpt>
      <trkpt lat="44.6738" lon="2.01801">
        <ele>459.575012</ele>
        <time>2018-05-25T13:57:55Z</time>
      </trkpt>
      <trkpt lat="44.67379" lon="2.01812">
        <ele>461.011993</ele>
        <time>2018-05-25T13:58:03Z</time>
      </trkpt>
      <trkpt lat="44.67378" lon="2.01823">
        <ele>463.19101</ele>
        <time>2018-05-25T13:58:12Z</time>
      </trkpt>
      <trkpt lat="44.67377" lon="2.01833">
        <ele>465.539001</ele>
        <time>2018-05-25T13:58:17Z</time>
      </trkpt>
      <trkpt lat="44.67379" lon="2.01845">
        <ele>467.138</ele>
        <time>2018-05-25T13:58:23Z</time>
      </trkpt>
      <trkpt lat="44.67378" lon="2.01855">
        <ele>468.569</ele>
        <time>2018-05-25T13:58:30Z</time>
      </trkpt>
      <trkpt lat="44.67378" lon="2.01866">
        <ele>468.679993</ele>
        <time>2018-05-25T13:58:38Z</time>
      </trkpt>
      <trkpt lat="44.67376" lon="2.01877">
        <ele>470.562012</ele>
        <time>2018-05-25T13:58:46Z</time>
      </trkpt>
      <trkpt lat="44.67377" lon="2.01887">
        <ele>470.980011</ele>
        <time>2018-05-25T13:58:54Z</time>
      </trkpt>
      <trkpt lat="44.67379" lon="2.01898">
        <ele>473.481995</ele>
        <time>2018-05-25T13:59:03Z</time>
      </trkpt>
      <trkpt lat="44.67382" lon="2.01908">
        <ele>477.449005</ele>
        <time>2018-05-25T13:59:12Z</time>
      </trkpt>
      <trkpt lat="44.67384" lon="2.01917">
        <ele>477.497009</ele>
        <time>2018-05-25T13:59:32Z</time>
      </trkpt>
      <trkpt lat="44.67385" lon="2.01928">
        <ele>477.446014</ele>
        <time>2018-05-25T13:59:38Z</time>
      </trkpt>
      <trkpt lat="44.67386" lon="2.01939">
        <ele>478.013</ele>
        <time>2018-05-25T13:59:56Z</time>
      </trkpt>
      <trkpt lat="44.67385" lon="2.01951">
        <ele>477.677002</ele>
        <time>2018-05-25T14:00:11Z</time>
      </trkpt>
      <trkpt lat="44.67384" lon="2.01962">
        <ele>477.36499</ele>
        <time>2018-05-25T14:00:17Z</time>
      </trkpt>
      <trkpt lat="44.67383" lon="2.01973">
        <ele>477.571014</ele>
        <time>2018-05-25T14:00:23Z</time>
      </trkpt>
      <trkpt lat="44.67381" lon="2.01984">
        <ele>477.878998</ele>
        <time>2018-05-25T14:00:29Z</time>
      </trkpt>
      <trkpt lat="44.6738" lon="2.01995">
        <ele>477.813995</ele>
        <time>2018-05-25T14:00:35Z</time>
      </trkpt>
      <trkpt lat="44.6738" lon="2.02007">
        <ele>477.464996</ele>
        <time>2018-05-25T14:00:41Z</time>
      </trkpt>
      <trkpt lat="44.6738" lon="2.02018">
        <ele>477.971985</ele>
        <time>2018-05-25T14:00:57Z</time>
      </trkpt>
      <trkpt lat="44.67383" lon="2.02029">
        <ele>480.476013</ele>
        <time>2018-05-25T14:01:07Z</time>
      </trkpt>
      <trkpt lat="44.67387" lon="2.0204">
        <ele>483.520996</ele>
        <time>2018-05-25T14:01:14Z</time>
      </trkpt>
      <trkpt lat="44.67392" lon="2.02047">
        <ele>485.63501</ele>
        <time>2018-05-25T14:01:21Z</time>
      </trkpt>
      <trkpt lat="44.67399" lon="2.02052">
        <ele>486.734009</ele>
        <time>2018-05-25T14:01:29Z</time>
      </trkpt>
      <trkpt lat="44.67408" lon="2.02053">
        <ele>486.399994</ele>
        <time>2018-05-25T14:01:36Z</time>
      </trkpt>
      <trkpt lat="44.67416" lon="2.02056">
        <ele>488.006012</ele>
        <time>2018-05-25T14:01:43Z</time>
      </trkpt>
      <trkpt lat="44.67423" lon="2.02059">
        <ele>490.246002</ele>
        <time>2018-05-25T14:01:49Z</time>
      </trkpt>
      <trkpt lat="44.67431" lon="2.02063">
        <ele>492.440002</ele>
        <time>2018-05-25T14:01:56Z</time>
      </trkpt>
      <trkpt lat="44.67438" lon="2.02067">
        <ele>493.855988</ele>
        <time>2018-05-25T14:02:03Z</time>
      </trkpt>
      <trkpt lat="44.67445" lon="2.02072">
        <ele>494.79599</ele>
        <time>2018-05-25T14:02:10Z</time>
      </trkpt>
      <trkpt lat="44.67452" lon="2.02077">
        <ele>493.859985</ele>
        <time>2018-05-25T14:02:16Z</time>
      </trkpt>
      <trkpt lat="44.6746" lon="2.02081">
        <ele>492.532013</ele>
        <time>2018-05-25T14:02:23Z</time>
      </trkpt>
      <trkpt lat="44.67467" lon="2.02086">
        <ele>492.497009</ele>
        <time>2018-05-25T14:02:30Z</time>
      </trkpt>
      <trkpt lat="44.67473" lon="2.02093">
        <ele>493.110992</ele>
        <time>2018-05-25T14:02:37Z</time>
      </trkpt>
      <trkpt lat="44.6748" lon="2.02098">
        <ele>492.569</ele>
        <time>2018-05-25T14:02:44Z</time>
      </trkpt>
      <trkpt lat="44.67488" lon="2.02103">
        <ele>490.341003</ele>
        <time>2018-05-25T14:02:50Z</time>
      </trkpt>
      <trkpt lat="44.67495" lon="2.02103">
        <ele>488.119995</ele>
        <time>2018-05-25T14:02:55Z</time>
      </trkpt>
      <trkpt lat="44.67502" lon="2.02105">
        <ele>486.34201</ele>
        <time>2018-05-25T14:03:05Z</time>
      </trkpt>
      <trkpt lat="44.67509" lon="2.02107">
        <ele>487.52301</ele>
        <time>2018-05-25T14:03:11Z</time>
      </trkpt>
      <trkpt lat="44.67517" lon="2.0211">
        <ele>489.678986</ele>
        <time>2018-05-25T14:03:18Z</time>
      </trkpt>
      <trkpt lat="44.67523" lon="2.02114">
        <ele>490.520996</ele>
        <time>2018-05-25T14:03:25Z</time>
      </trkpt>
      <trkpt lat="44.67531" lon="2.02116">
        <ele>490.414001</ele>
        <time>2018-05-25T14:03:32Z</time>
      </trkpt>
      <trkpt lat="44.67538" lon="2.0212">
        <ele>491.895996</ele>
        <time>2018-05-25T14:03:39Z</time>
      </trkpt>
      <trkpt lat="44.67545" lon="2.02126">
        <ele>491.539001</ele>
        <time>2018-05-25T14:03:47Z</time>
      </trkpt>
      <trkpt lat="44.67552" lon="2.02129">
        <ele>490.787994</ele>
        <time>2018-05-25T14:03:54Z</time>
      </trkpt>
      <trkpt lat="44.67559" lon="2.02133">
        <ele>490.825989</ele>
        <time>2018-05-25T14:04:02Z</time>
      </trkpt>
      <trkpt lat="44.67566" lon="2.02139">
        <ele>491.588013</ele>
        <time>2018-05-25T14:04:09Z</time>
      </trkpt>
      <trkpt lat="44.67573" lon="2.02141">
        <ele>488.588013</ele>
        <time>2018-05-25T14:04:32Z</time>
      </trkpt>
      <trkpt lat="44.6758" lon="2.02144">
        <ele>490.209991</ele>
        <time>2018-05-25T14:04:39Z</time>
      </trkpt>
      <trkpt lat="44.67587" lon="2.02149">
        <ele>490.915985</ele>
        <time>2018-05-25T14:04:46Z</time>
      </trkpt>
      <trkpt lat="44.67594" lon="2.02153">
        <ele>490.944</ele>
        <time>2018-05-25T14:04:54Z</time>
      </trkpt>
      <trkpt lat="44.67601" lon="2.02158">
        <ele>491.203003</ele>
        <time>2018-05-25T14:05:00Z</time>
      </trkpt>
      <trkpt lat="44.67607" lon="2.02163">
        <ele>491.498993</ele>
        <time>2018-05-25T14:05:08Z</time>
      </trkpt>
      <trkpt lat="44.67614" lon="2.02167">
        <ele>492.674011</ele>
        <time>2018-05-25T14:05:17Z</time>
      </trkpt>
      <trkpt lat="44.6762" lon="2.02173">
        <ele>494.171997</ele>
        <time>2018-05-25T14:05:24Z</time>
      </trkpt>
      <trkpt lat="44.67627" lon="2.02178">
        <ele>495.746002</ele>
        <time>2018-05-25T14:05:33Z</time>
      </trkpt>
      <trkpt lat="44.67632" lon="2.02185">
        <ele>496.97699</ele>
        <time>2018-05-25T14:05:51Z</time>
      </trkpt>
      <trkpt lat="44.67639" lon="2.02189">
        <ele>497.535004</ele>
        <time>2018-05-25T14:05:57Z</time>
      </trkpt>
      <trkpt lat="44.67645" lon="2.02196">
        <ele>499.089996</ele>
        <time>2018-05-25T14:06:03Z</time>
      </trkpt>
      <trkpt lat="44.67653" lon="2.02198">
        <ele>501.006012</ele>
        <time>2018-05-25T14:06:14Z</time>
      </trkpt>
      <trkpt lat="44.67659" lon="2.02204">
        <ele>502.821991</ele>
        <time>2018-05-25T14:06:22Z</time>
      </trkpt>
      <trkpt lat="44.67666" lon="2.02209">
        <ele>504.303986</ele>
        <time>2018-05-25T14:06:39Z</time>
      </trkpt>
      <trkpt lat="44.67672" lon="2.02216">
        <ele>505.46701</ele>
        <time>2018-05-25T14:06:46Z</time>
      </trkpt>
      <trkpt lat="44.67678" lon="2.02225">
        <ele>505.295013</ele>
        <time>2018-05-25T14:06:58Z</time>
      </trkpt>
      <trkpt lat="44.67684" lon="2.02232">
        <ele>505.027008</ele>
        <time>2018-05-25T14:07:05Z</time>
      </trkpt>
      <trkpt lat="44.6769" lon="2.02238">
        <ele>505.716003</ele>
        <time>2018-05-25T14:07:13Z</time>
      </trkpt>
      <trkpt lat="44.67696" lon="2.02245">
        <ele>507.94101</ele>
        <time>2018-05-25T14:07:21Z</time>
      </trkpt>
      <trkpt lat="44.67703" lon="2.0225">
        <ele>509.455994</ele>
        <time>2018-05-25T14:07:30Z</time>
      </trkpt>
      <trkpt lat="44.6771" lon="2.02255">
        <ele>510.058014</ele>
        <time>2018-05-25T14:07:39Z</time>
      </trkpt>
      <trkpt lat="44.67717" lon="2.02258">
        <ele>510.09201</ele>
        <time>2018-05-25T14:07:46Z</time>
      </trkpt>
      <trkpt lat="44.67724" lon="2.02264">
        <ele>511.28299</ele>
        <time>2018-05-25T14:07:53Z</time>
      </trkpt>
      <trkpt lat="44.67731" lon="2.0227">
        <ele>510.835999</ele>
        <time>2018-05-25T14:08:01Z</time>
      </trkpt>
      <trkpt lat="44.67738" lon="2.02275">
        <ele>512.700012</ele>
        <time>2018-05-25T14:08:10Z</time>
      </trkpt>
      <trkpt lat="44.67744" lon="2.02282">
        <ele>514.218018</ele>
        <time>2018-05-25T14:08:19Z</time>
      </trkpt>
      <trkpt lat="44.67751" lon="2.02287">
        <ele>514.325012</ele>
        <time>2018-05-25T14:08:48Z</time>
      </trkpt>
      <trkpt lat="44.67757" lon="2.02292">
        <ele>513.807983</ele>
        <time>2018-05-25T14:08:55Z</time>
      </trkpt>
      <trkpt lat="44.67764" lon="2.02296">
        <ele>513.960999</ele>
        <time>2018-05-25T14:09:02Z</time>
      </trkpt>
      <trkpt lat="44.67754" lon="2.0229">
        <ele>518.72699</ele>
        <time>2018-05-25T14:26:32Z</time>
      </trkpt>
      <trkpt lat="44.67761" lon="2.02294">
        <ele>517.057007</ele>
        <time>2018-05-25T14:27:25Z</time>
      </trkpt>
      <trkpt lat="44.67767" lon="2.02301">
        <ele>517.283997</ele>
        <time>2018-05-25T14:30:53Z</time>
      </trkpt>
      <trkpt lat="44.67774" lon="2.02304">
        <ele>518.031982</ele>
        <time>2018-05-25T14:30:59Z</time>
      </trkpt>
      <trkpt lat="44.67782" lon="2.02309">
        <ele>518.070007</ele>
        <time>2018-05-25T14:31:07Z</time>
      </trkpt>
      <trkpt lat="44.6779" lon="2.02312">
        <ele>518.536011</ele>
        <time>2018-05-25T14:31:14Z</time>
      </trkpt>
      <trkpt lat="44.67797" lon="2.02316">
        <ele>519.965027</ele>
        <time>2018-05-25T14:31:21Z</time>
      </trkpt>
      <trkpt lat="44.67804" lon="2.0232">
        <ele>519.398987</ele>
        <time>2018-05-25T14:31:29Z</time>
      </trkpt>
      <trkpt lat="44.67812" lon="2.02323">
        <ele>519.25</ele>
        <time>2018-05-25T14:31:37Z</time>
      </trkpt>
      <trkpt lat="44.67819" lon="2.02326">
        <ele>518.65802</ele>
        <time>2018-05-25T14:31:45Z</time>
      </trkpt>
      <trkpt lat="44.67826" lon="2.0233">
        <ele>519.075012</ele>
        <time>2018-05-25T14:31:54Z</time>
      </trkpt>
      <trkpt lat="44.67833" lon="2.02335">
        <ele>518.919006</ele>
        <time>2018-05-25T14:32:10Z</time>
      </trkpt>
      <trkpt lat="44.67839" lon="2.02342">
        <ele>518.632996</ele>
        <time>2018-05-25T14:32:17Z</time>
      </trkpt>
      <trkpt lat="44.67846" lon="2.02346">
        <ele>517.687988</ele>
        <time>2018-05-25T14:32:23Z</time>
      </trkpt>
      <trkpt lat="44.67854" lon="2.02345">
        <ele>517.06897</ele>
        <time>2018-05-25T14:32:30Z</time>
      </trkpt>
      <trkpt lat="44.67862" lon="2.02342">
        <ele>517.187988</ele>
        <time>2018-05-25T14:32:35Z</time>
      </trkpt>
      <trkpt lat="44.67868" lon="2.02336">
        <ele>516.934998</ele>
        <time>2018-05-25T14:32:41Z</time>
      </trkpt>
      <trkpt lat="44.67875" lon="2.02329">
        <ele>516.737</ele>
        <time>2018-05-25T14:32:47Z</time>
      </trkpt>
      <trkpt lat="44.67881" lon="2.02323">
        <ele>516.890991</ele>
        <time>2018-05-25T14:32:52Z</time>
      </trkpt>
      <trkpt lat="44.67887" lon="2.02317">
        <ele>518.177002</ele>
        <time>2018-05-25T14:32:58Z</time>
      </trkpt>
      <trkpt lat="44.67893" lon="2.02311">
        <ele>518.156982</ele>
        <time>2018-05-25T14:33:05Z</time>
      </trkpt>
      <trkpt lat="44.67901" lon="2.02307">
        <ele>519.919006</ele>
        <time>2018-05-25T14:33:12Z</time>
      </trkpt>
      <trkpt lat="44.67907" lon="2.02302">
        <ele>520.39801</ele>
        <time>2018-05-25T14:33:18Z</time>
      </trkpt>
      <trkpt lat="44.67914" lon="2.02297">
        <ele>521.72998</ele>
        <time>2018-05-25T14:33:25Z</time>
      </trkpt>
      <trkpt lat="44.67921" lon="2.02289">
        <ele>520.492004</ele>
        <time>2018-05-25T14:33:31Z</time>
      </trkpt>
      <trkpt lat="44.67928" lon="2.02284">
        <ele>519.815002</ele>
        <time>2018-05-25T14:33:37Z</time>
      </trkpt>
      <trkpt lat="44.67934" lon="2.02278">
        <ele>519.39801</ele>
        <time>2018-05-25T14:33:43Z</time>
      </trkpt>
      <trkpt lat="44.67941" lon="2.02273">
        <ele>519.713989</ele>
        <time>2018-05-25T14:33:49Z</time>
      </trkpt>
      <trkpt lat="44.67946" lon="2.02265">
        <ele>520.169006</ele>
        <time>2018-05-25T14:33:55Z</time>
      </trkpt>
      <trkpt lat="44.67953" lon="2.0226">
        <ele>520.732971</ele>
        <time>2018-05-25T14:34:01Z</time>
      </trkpt>
      <trkpt lat="44.6796" lon="2.02254">
        <ele>521.255005</ele>
        <time>2018-05-25T14:34:09Z</time>
      </trkpt>
      <trkpt lat="44.67967" lon="2.02249">
        <ele>520.687988</ele>
        <time>2018-05-25T14:34:16Z</time>
      </trkpt>
      <trkpt lat="44.67974" lon="2.02243">
        <ele>520.013977</ele>
        <time>2018-05-25T14:34:22Z</time>
      </trkpt>
      <trkpt lat="44.6798" lon="2.02236">
        <ele>520.411987</ele>
        <time>2018-05-25T14:34:29Z</time>
      </trkpt>
      <trkpt lat="44.67986" lon="2.0223">
        <ele>521.203003</ele>
        <time>2018-05-25T14:34:35Z</time>
      </trkpt>
      <trkpt lat="44.67993" lon="2.02224">
        <ele>521.718018</ele>
        <time>2018-05-25T14:34:42Z</time>
      </trkpt>
      <trkpt lat="44.67999" lon="2.02215">
        <ele>520.906982</ele>
        <time>2018-05-25T14:34:48Z</time>
      </trkpt>
      <trkpt lat="44.68004" lon="2.02206">
        <ele>520.184021</ele>
        <time>2018-05-25T14:34:54Z</time>
      </trkpt>
      <trkpt lat="44.68008" lon="2.02198">
        <ele>520.840027</ele>
        <time>2018-05-25T14:35:00Z</time>
      </trkpt>
      <trkpt lat="44.68014" lon="2.0219">
        <ele>522.926025</ele>
        <time>2018-05-25T14:35:07Z</time>
      </trkpt>
      <trkpt lat="44.6802" lon="2.02182">
        <ele>522.77002</ele>
        <time>2018-05-25T14:35:13Z</time>
      </trkpt>
      <trkpt lat="44.68025" lon="2.02175">
        <ele>522.732971</ele>
        <time>2018-05-25T14:35:19Z</time>
      </trkpt>
      <trkpt lat="44.68029" lon="2.02165">
        <ele>520.513977</ele>
        <time>2018-05-25T14:35:25Z</time>
      </trkpt>
      <trkpt lat="44.68035" lon="2.02157">
        <ele>520.711975</ele>
        <time>2018-05-25T14:35:31Z</time>
      </trkpt>
      <trkpt lat="44.68042" lon="2.02151">
        <ele>520.648987</ele>
        <time>2018-05-25T14:35:36Z</time>
      </trkpt>
      <trkpt lat="44.68048" lon="2.02144">
        <ele>521.33197</ele>
        <time>2018-05-25T14:35:43Z</time>
      </trkpt>
      <trkpt lat="44.68055" lon="2.02141">
        <ele>521.179016</ele>
        <time>2018-05-25T14:35:49Z</time>
      </trkpt>
      <trkpt lat="44.68062" lon="2.02137">
        <ele>521.057007</ele>
        <time>2018-05-25T14:35:55Z</time>
      </trkpt>
      <trkpt lat="44.68069" lon="2.02133">
        <ele>520.609985</ele>
        <time>2018-05-25T14:36:00Z</time>
      </trkpt>
      <trkpt lat="44.68076" lon="2.02129">
        <ele>520.864014</ele>
        <time>2018-05-25T14:36:06Z</time>
      </trkpt>
      <trkpt lat="44.68083" lon="2.02123">
        <ele>521.903015</ele>
        <time>2018-05-25T14:36:12Z</time>
      </trkpt>
      <trkpt lat="44.68091" lon="2.02119">
        <ele>521.783997</ele>
        <time>2018-05-25T14:36:18Z</time>
      </trkpt>
      <trkpt lat="44.68098" lon="2.02114">
        <ele>522.150024</ele>
        <time>2018-05-25T14:36:25Z</time>
      </trkpt>
      <trkpt lat="44.68104" lon="2.02109">
        <ele>521.463989</ele>
        <time>2018-05-25T14:36:31Z</time>
      </trkpt>
      <trkpt lat="44.68111" lon="2.02102">
        <ele>519.289978</ele>
        <time>2018-05-25T14:36:37Z</time>
      </trkpt>
      <trkpt lat="44.68117" lon="2.02096">
        <ele>519.148987</ele>
        <time>2018-05-25T14:36:43Z</time>
      </trkpt>
      <trkpt lat="44.68123" lon="2.02088">
        <ele>518.953003</ele>
        <time>2018-05-25T14:36:51Z</time>
      </trkpt>
      <trkpt lat="44.6813" lon="2.02081">
        <ele>517.346985</ele>
        <time>2018-05-25T14:36:58Z</time>
      </trkpt>
      <trkpt lat="44.68135" lon="2.02074">
        <ele>515.213013</ele>
        <time>2018-05-25T14:37:03Z</time>
      </trkpt>
      <trkpt lat="44.68142" lon="2.02066">
        <ele>514.762024</ele>
        <time>2018-05-25T14:37:08Z</time>
      </trkpt>
      <trkpt lat="44.68147" lon="2.02059">
        <ele>516.197021</ele>
        <time>2018-05-25T14:37:13Z</time>
      </trkpt>
      <trkpt lat="44.68154" lon="2.02051">
        <ele>516.107971</ele>
        <time>2018-05-25T14:37:19Z</time>
      </trkpt>
      <trkpt lat="44.68159" lon="2.02043">
        <ele>517.052979</ele>
        <time>2018-05-25T14:37:26Z</time>
      </trkpt>
      <trkpt lat="44.68165" lon="2.02035">
        <ele>517.656982</ele>
        <time>2018-05-25T14:37:32Z</time>
      </trkpt>
      <trkpt lat="44.6817" lon="2.02026">
        <ele>517.90802</ele>
        <time>2018-05-25T14:37:38Z</time>
      </trkpt>
      <trkpt lat="44.68176" lon="2.02019">
        <ele>517.518005</ele>
        <time>2018-05-25T14:37:43Z</time>
      </trkpt>
      <trkpt lat="44.68181" lon="2.02012">
        <ele>517.672974</ele>
        <time>2018-05-25T14:37:49Z</time>
      </trkpt>
      <trkpt lat="44.68186" lon="2.02004">
        <ele>520.241028</ele>
        <time>2018-05-25T14:37:56Z</time>
      </trkpt>
      <trkpt lat="44.68192" lon="2.01997">
        <ele>520.570984</ele>
        <time>2018-05-25T14:38:02Z</time>
      </trkpt>
      <trkpt lat="44.68197" lon="2.0199">
        <ele>520.007019</ele>
        <time>2018-05-25T14:38:08Z</time>
      </trkpt>
      <trkpt lat="44.68204" lon="2.01982">
        <ele>520.263977</ele>
        <time>2018-05-25T14:38:15Z</time>
      </trkpt>
      <trkpt lat="44.6821" lon="2.01976">
        <ele>521.44397</ele>
        <time>2018-05-25T14:38:22Z</time>
      </trkpt>
      <trkpt lat="44.68216" lon="2.01969">
        <ele>521.247986</ele>
        <time>2018-05-25T14:38:28Z</time>
      </trkpt>
      <trkpt lat="44.68223" lon="2.01964">
        <ele>522.197998</ele>
        <time>2018-05-25T14:38:34Z</time>
      </trkpt>
      <trkpt lat="44.6823" lon="2.01959">
        <ele>523.098022</ele>
        <time>2018-05-25T14:38:40Z</time>
      </trkpt>
      <trkpt lat="44.68237" lon="2.01955">
        <ele>524.463013</ele>
        <time>2018-05-25T14:38:47Z</time>
      </trkpt>
      <trkpt lat="44.68244" lon="2.01952">
        <ele>524.570984</ele>
        <time>2018-05-25T14:38:53Z</time>
      </trkpt>
      <trkpt lat="44.68251" lon="2.01947">
        <ele>525.039001</ele>
        <time>2018-05-25T14:38:59Z</time>
      </trkpt>
      <trkpt lat="44.68258" lon="2.01944">
        <ele>525.526978</ele>
        <time>2018-05-25T14:39:06Z</time>
      </trkpt>
      <trkpt lat="44.68265" lon="2.01939">
        <ele>525.552979</ele>
        <time>2018-05-25T14:39:13Z</time>
      </trkpt>
      <trkpt lat="44.68272" lon="2.01935">
        <ele>525.05603</ele>
        <time>2018-05-25T14:39:20Z</time>
      </trkpt>
      <trkpt lat="44.68279" lon="2.01931">
        <ele>524.765015</ele>
        <time>2018-05-25T14:39:25Z</time>
      </trkpt>
      <trkpt lat="44.68286" lon="2.01928">
        <ele>524.487</ele>
        <time>2018-05-25T14:39:33Z</time>
      </trkpt>
      <trkpt lat="44.68294" lon="2.01925">
        <ele>524.221008</ele>
        <time>2018-05-25T14:39:38Z</time>
      </trkpt>
      <trkpt lat="44.68303" lon="2.01921">
        <ele>523.271973</ele>
        <time>2018-05-25T14:39:43Z</time>
      </trkpt>
      <trkpt lat="44.6831" lon="2.01916">
        <ele>522.473022</ele>
        <time>2018-05-25T14:39:48Z</time>
      </trkpt>
      <trkpt lat="44.68317" lon="2.01914">
        <ele>521.166016</ele>
        <time>2018-05-25T14:39:54Z</time>
      </trkpt>
      <trkpt lat="44.68324" lon="2.01912">
        <ele>521.005005</ele>
        <time>2018-05-25T14:39:59Z</time>
      </trkpt>
      <trkpt lat="44.68331" lon="2.01911">
        <ele>520.507019</ele>
        <time>2018-05-25T14:40:05Z</time>
      </trkpt>
      <trkpt lat="44.68339" lon="2.01916">
        <ele>519.718018</ele>
        <time>2018-05-25T14:40:10Z</time>
      </trkpt>
      <trkpt lat="44.68348" lon="2.01918">
        <ele>519.125</ele>
        <time>2018-05-25T14:40:15Z</time>
      </trkpt>
      <trkpt lat="44.68356" lon="2.01918">
        <ele>518.700012</ele>
        <time>2018-05-25T14:40:20Z</time>
      </trkpt>
      <trkpt lat="44.68364" lon="2.01917">
        <ele>518.616028</ele>
        <time>2018-05-25T14:40:27Z</time>
      </trkpt>
      <trkpt lat="44.68372" lon="2.01916">
        <ele>518.34198</ele>
        <time>2018-05-25T14:40:34Z</time>
      </trkpt>
      <trkpt lat="44.68379" lon="2.01912">
        <ele>517.242004</ele>
        <time>2018-05-25T14:40:40Z</time>
      </trkpt>
      <trkpt lat="44.68386" lon="2.01908">
        <ele>514.64502</ele>
        <time>2018-05-25T14:40:47Z</time>
      </trkpt>
      <trkpt lat="44.68393" lon="2.01902">
        <ele>512.33197</ele>
        <time>2018-05-25T14:40:53Z</time>
      </trkpt>
      <trkpt lat="44.684" lon="2.01897">
        <ele>511.894989</ele>
        <time>2018-05-25T14:41:00Z</time>
      </trkpt>
      <trkpt lat="44.68406" lon="2.0189">
        <ele>510.230011</ele>
        <time>2018-05-25T14:41:07Z</time>
      </trkpt>
      <trkpt lat="44.68413" lon="2.01883">
        <ele>508.929993</ele>
        <time>2018-05-25T14:41:18Z</time>
      </trkpt>
      <trkpt lat="44.68418" lon="2.01875">
        <ele>508.222992</ele>
        <time>2018-05-25T14:41:24Z</time>
      </trkpt>
      <trkpt lat="44.68424" lon="2.01867">
        <ele>507.872009</ele>
        <time>2018-05-25T14:41:30Z</time>
      </trkpt>
      <trkpt lat="44.68428" lon="2.01858">
        <ele>506.566986</ele>
        <time>2018-05-25T14:41:36Z</time>
      </trkpt>
      <trkpt lat="44.68433" lon="2.0185">
        <ele>505.537994</ele>
        <time>2018-05-25T14:41:42Z</time>
      </trkpt>
      <trkpt lat="44.68438" lon="2.01843">
        <ele>504.645996</ele>
        <time>2018-05-25T14:41:47Z</time>
      </trkpt>
      <trkpt lat="44.68445" lon="2.01837">
        <ele>503.036987</ele>
        <time>2018-05-25T14:41:53Z</time>
      </trkpt>
      <trkpt lat="44.68451" lon="2.0183">
        <ele>501.449005</ele>
        <time>2018-05-25T14:42:00Z</time>
      </trkpt>
      <trkpt lat="44.68458" lon="2.01824">
        <ele>499.821991</ele>
        <time>2018-05-25T14:42:07Z</time>
      </trkpt>
      <trkpt lat="44.68466" lon="2.01821">
        <ele>499.069</ele>
        <time>2018-05-25T14:42:13Z</time>
      </trkpt>
      <trkpt lat="44.68474" lon="2.0182">
        <ele>500.604004</ele>
        <time>2018-05-25T14:42:19Z</time>
      </trkpt>
      <trkpt lat="44.68481" lon="2.01819">
        <ele>501.075012</ele>
        <time>2018-05-25T14:42:25Z</time>
      </trkpt>
      <trkpt lat="44.68489" lon="2.01816">
        <ele>500.136993</ele>
        <time>2018-05-25T14:42:31Z</time>
      </trkpt>
      <trkpt lat="44.68497" lon="2.01814">
        <ele>498.989014</ele>
        <time>2018-05-25T14:42:38Z</time>
      </trkpt>
      <trkpt lat="44.68505" lon="2.01811">
        <ele>498.139008</ele>
        <time>2018-05-25T14:42:45Z</time>
      </trkpt>
      <trkpt lat="44.68513" lon="2.01808">
        <ele>496.937988</ele>
        <time>2018-05-25T14:42:51Z</time>
      </trkpt>
      <trkpt lat="44.6852" lon="2.01805">
        <ele>495.67099</ele>
        <time>2018-05-25T14:42:57Z</time>
      </trkpt>
      <trkpt lat="44.68527" lon="2.01803">
        <ele>495.541992</ele>
        <time>2018-05-25T14:43:02Z</time>
      </trkpt>
      <trkpt lat="44.68535" lon="2.018">
        <ele>496.013</ele>
        <time>2018-05-25T14:43:08Z</time>
      </trkpt>
      <trkpt lat="44.68542" lon="2.01797">
        <ele>496.739014</ele>
        <time>2018-05-25T14:43:14Z</time>
      </trkpt>
      <trkpt lat="44.6855" lon="2.01795">
        <ele>497.002991</ele>
        <time>2018-05-25T14:43:20Z</time>
      </trkpt>
      <trkpt lat="44.68558" lon="2.01792">
        <ele>496.20401</ele>
        <time>2018-05-25T14:43:27Z</time>
      </trkpt>
      <trkpt lat="44.68565" lon="2.01787">
        <ele>495.696014</ele>
        <time>2018-05-25T14:43:33Z</time>
      </trkpt>
      <trkpt lat="44.68572" lon="2.01783">
        <ele>495.266998</ele>
        <time>2018-05-25T14:43:39Z</time>
      </trkpt>
      <trkpt lat="44.68579" lon="2.01779">
        <ele>494.98999</ele>
        <time>2018-05-25T14:43:46Z</time>
      </trkpt>
      <trkpt lat="44.68587" lon="2.01778">
        <ele>493.393005</ele>
        <time>2018-05-25T14:43:53Z</time>
      </trkpt>
      <trkpt lat="44.68594" lon="2.01778">
        <ele>494.020996</ele>
        <time>2018-05-25T14:43:58Z</time>
      </trkpt>
      <trkpt lat="44.68602" lon="2.01778">
        <ele>493.980988</ele>
        <time>2018-05-25T14:44:04Z</time>
      </trkpt>
      <trkpt lat="44.68611" lon="2.01776">
        <ele>493.468994</ele>
        <time>2018-05-25T14:44:11Z</time>
      </trkpt>
      <trkpt lat="44.68618" lon="2.01774">
        <ele>491.23999</ele>
        <time>2018-05-25T14:44:17Z</time>
      </trkpt>
      <trkpt lat="44.68626" lon="2.01774">
        <ele>489.096008</ele>
        <time>2018-05-25T14:44:23Z</time>
      </trkpt>
      <trkpt lat="44.68634" lon="2.01774">
        <ele>488.783997</ele>
        <time>2018-05-25T14:44:30Z</time>
      </trkpt>
      <trkpt lat="44.68641" lon="2.01772">
        <ele>489.29599</ele>
        <time>2018-05-25T14:44:36Z</time>
      </trkpt>
      <trkpt lat="44.68648" lon="2.01769">
        <ele>488.93399</ele>
        <time>2018-05-25T14:44:42Z</time>
      </trkpt>
      <trkpt lat="44.68656" lon="2.01768">
        <ele>488.966003</ele>
        <time>2018-05-25T14:44:47Z</time>
      </trkpt>
      <trkpt lat="44.68663" lon="2.01765">
        <ele>489.514008</ele>
        <time>2018-05-25T14:44:52Z</time>
      </trkpt>
      <trkpt lat="44.68671" lon="2.01761">
        <ele>490.401001</ele>
        <time>2018-05-25T14:44:57Z</time>
      </trkpt>
      <trkpt lat="44.68679" lon="2.01759">
        <ele>490.464996</ele>
        <time>2018-05-25T14:45:04Z</time>
      </trkpt>
      <trkpt lat="44.68686" lon="2.01754">
        <ele>491.095001</ele>
        <time>2018-05-25T14:45:11Z</time>
      </trkpt>
      <trkpt lat="44.68694" lon="2.01751">
        <ele>492.191986</ele>
        <time>2018-05-25T14:45:18Z</time>
      </trkpt>
      <trkpt lat="44.68701" lon="2.01745">
        <ele>492.458008</ele>
        <time>2018-05-25T14:45:25Z</time>
      </trkpt>
      <trkpt lat="44.68708" lon="2.01739">
        <ele>492.402008</ele>
        <time>2018-05-25T14:45:32Z</time>
      </trkpt>
      <trkpt lat="44.68714" lon="2.01734">
        <ele>492.554993</ele>
        <time>2018-05-25T14:45:37Z</time>
      </trkpt>
      <trkpt lat="44.68721" lon="2.01728">
        <ele>492.789001</ele>
        <time>2018-05-25T14:45:42Z</time>
      </trkpt>
      <trkpt lat="44.68728" lon="2.01724">
        <ele>492.882996</ele>
        <time>2018-05-25T14:45:47Z</time>
      </trkpt>
      <trkpt lat="44.68735" lon="2.01718">
        <ele>492.742004</ele>
        <time>2018-05-25T14:45:53Z</time>
      </trkpt>
      <trkpt lat="44.68741" lon="2.01711">
        <ele>492.226013</ele>
        <time>2018-05-25T14:45:58Z</time>
      </trkpt>
      <trkpt lat="44.68747" lon="2.01704">
        <ele>491.502991</ele>
        <time>2018-05-25T14:46:04Z</time>
      </trkpt>
      <trkpt lat="44.68754" lon="2.01696">
        <ele>490.848999</ele>
        <time>2018-05-25T14:46:10Z</time>
      </trkpt>
      <trkpt lat="44.6876" lon="2.01689">
        <ele>490.13501</ele>
        <time>2018-05-25T14:46:16Z</time>
      </trkpt>
      <trkpt lat="44.68765" lon="2.01682">
        <ele>490.105988</ele>
        <time>2018-05-25T14:46:22Z</time>
      </trkpt>
      <trkpt lat="44.68772" lon="2.01675">
        <ele>491.563995</ele>
        <time>2018-05-25T14:46:29Z</time>
      </trkpt>
      <trkpt lat="44.68778" lon="2.01669">
        <ele>493.802002</ele>
        <time>2018-05-25T14:46:36Z</time>
      </trkpt>
      <trkpt lat="44.68785" lon="2.01663">
        <ele>495.536011</ele>
        <time>2018-05-25T14:46:42Z</time>
      </trkpt>
      <trkpt lat="44.68791" lon="2.01656">
        <ele>495.536011</ele>
        <time>2018-05-25T14:46:48Z</time>
      </trkpt>
      <trkpt lat="44.68797" lon="2.01649">
        <ele>495.080994</ele>
        <time>2018-05-25T14:46:54Z</time>
      </trkpt>
      <trkpt lat="44.68802" lon="2.01643">
        <ele>494.664001</ele>
        <time>2018-05-25T14:46:59Z</time>
      </trkpt>
      <trkpt lat="44.68808" lon="2.01636">
        <ele>495.312988</ele>
        <time>2018-05-25T14:47:05Z</time>
      </trkpt>
      <trkpt lat="44.68814" lon="2.01628">
        <ele>495.575012</ele>
        <time>2018-05-25T14:47:11Z</time>
      </trkpt>
      <trkpt lat="44.68821" lon="2.01621">
        <ele>496.617004</ele>
        <time>2018-05-25T14:47:18Z</time>
      </trkpt>
      <trkpt lat="44.68826" lon="2.01615">
        <ele>497.605011</ele>
        <time>2018-05-25T14:47:24Z</time>
      </trkpt>
      <trkpt lat="44.68833" lon="2.01609">
        <ele>497.536987</ele>
        <time>2018-05-25T14:47:29Z</time>
      </trkpt>
      <trkpt lat="44.68839" lon="2.01603">
        <ele>496.570007</ele>
        <time>2018-05-25T14:47:36Z</time>
      </trkpt>
      <trkpt lat="44.68846" lon="2.01597">
        <ele>495.873993</ele>
        <time>2018-05-25T14:47:43Z</time>
      </trkpt>
      <trkpt lat="44.68853" lon="2.0159">
        <ele>495.194</ele>
        <time>2018-05-25T14:47:49Z</time>
      </trkpt>
      <trkpt lat="44.6886" lon="2.01586">
        <ele>495.497009</ele>
        <time>2018-05-25T14:48:02Z</time>
      </trkpt>
      <trkpt lat="44.68866" lon="2.01578">
        <ele>496.869995</ele>
        <time>2018-05-25T14:48:08Z</time>
      </trkpt>
      <trkpt lat="44.68871" lon="2.01572">
        <ele>497.240997</ele>
        <time>2018-05-25T14:48:14Z</time>
      </trkpt>
      <trkpt lat="44.68877" lon="2.01564">
        <ele>493.67099</ele>
        <time>2018-05-25T14:48:20Z</time>
      </trkpt>
      <trkpt lat="44.68883" lon="2.01556">
        <ele>492.928009</ele>
        <time>2018-05-25T14:48:27Z</time>
      </trkpt>
      <trkpt lat="44.68889" lon="2.01549">
        <ele>492.631012</ele>
        <time>2018-05-25T14:48:33Z</time>
      </trkpt>
      <trkpt lat="44.68895" lon="2.01543">
        <ele>492.85199</ele>
        <time>2018-05-25T14:48:39Z</time>
      </trkpt>
      <trkpt lat="44.68901" lon="2.01537">
        <ele>493.735992</ele>
        <time>2018-05-25T14:48:46Z</time>
      </trkpt>
      <trkpt lat="44.68908" lon="2.01531">
        <ele>493.958008</ele>
        <time>2018-05-25T14:48:53Z</time>
      </trkpt>
      <trkpt lat="44.68914" lon="2.01524">
        <ele>492.324005</ele>
        <time>2018-05-25T14:49:00Z</time>
      </trkpt>
      <trkpt lat="44.68922" lon="2.01523">
        <ele>491.653015</ele>
        <time>2018-05-25T14:49:05Z</time>
      </trkpt>
      <trkpt lat="44.68929" lon="2.01519">
        <ele>491.559998</ele>
        <time>2018-05-25T14:49:10Z</time>
      </trkpt>
      <trkpt lat="44.68936" lon="2.01514">
        <ele>491.563995</ele>
        <time>2018-05-25T14:49:15Z</time>
      </trkpt>
      <trkpt lat="44.68942" lon="2.0151">
        <ele>491.127014</ele>
        <time>2018-05-25T14:49:20Z</time>
      </trkpt>
      <trkpt lat="44.6895" lon="2.01505">
        <ele>491.088013</ele>
        <time>2018-05-25T14:49:27Z</time>
      </trkpt>
      <trkpt lat="44.68956" lon="2.01499">
        <ele>491.074005</ele>
        <time>2018-05-25T14:49:33Z</time>
      </trkpt>
      <trkpt lat="44.68962" lon="2.01493">
        <ele>492.140015</ele>
        <time>2018-05-25T14:49:40Z</time>
      </trkpt>
      <trkpt lat="44.68969" lon="2.01488">
        <ele>493.380005</ele>
        <time>2018-05-25T14:49:45Z</time>
      </trkpt>
      <trkpt lat="44.68976" lon="2.01482">
        <ele>493.397003</ele>
        <time>2018-05-25T14:49:51Z</time>
      </trkpt>
      <trkpt lat="44.68983" lon="2.01476">
        <ele>492.329987</ele>
        <time>2018-05-25T14:49:57Z</time>
      </trkpt>
      <trkpt lat="44.68989" lon="2.0147">
        <ele>491.20401</ele>
        <time>2018-05-25T14:50:04Z</time>
      </trkpt>
      <trkpt lat="44.68996" lon="2.01466">
        <ele>492.227997</ele>
        <time>2018-05-25T14:50:09Z</time>
      </trkpt>
      <trkpt lat="44.69001" lon="2.01459">
        <ele>491.766998</ele>
        <time>2018-05-25T14:50:14Z</time>
      </trkpt>
      <trkpt lat="44.69007" lon="2.01452">
        <ele>492.571991</ele>
        <time>2018-05-25T14:50:22Z</time>
      </trkpt>
      <trkpt lat="44.69012" lon="2.01445">
        <ele>492.463989</ele>
        <time>2018-05-25T14:50:28Z</time>
      </trkpt>
      <trkpt lat="44.69019" lon="2.01436">
        <ele>492.276001</ele>
        <time>2018-05-25T14:50:35Z</time>
      </trkpt>
      <trkpt lat="44.69024" lon="2.01428">
        <ele>492.428986</ele>
        <time>2018-05-25T14:50:40Z</time>
      </trkpt>
      <trkpt lat="44.6903" lon="2.01421">
        <ele>493.890991</ele>
        <time>2018-05-25T14:50:47Z</time>
      </trkpt>
      <trkpt lat="44.69035" lon="2.01411">
        <ele>495.230988</ele>
        <time>2018-05-25T14:50:53Z</time>
      </trkpt>
      <trkpt lat="44.6904" lon="2.01403">
        <ele>495.473999</ele>
        <time>2018-05-25T14:50:59Z</time>
      </trkpt>
      <trkpt lat="44.69046" lon="2.01397">
        <ele>494.938995</ele>
        <time>2018-05-25T14:51:06Z</time>
      </trkpt>
      <trkpt lat="44.69052" lon="2.01389">
        <ele>494.419006</ele>
        <time>2018-05-25T14:51:12Z</time>
      </trkpt>
      <trkpt lat="44.69056" lon="2.0138">
        <ele>494.02301</ele>
        <time>2018-05-25T14:51:17Z</time>
      </trkpt>
      <trkpt lat="44.69062" lon="2.01372">
        <ele>494.372986</ele>
        <time>2018-05-25T14:51:24Z</time>
      </trkpt>
      <trkpt lat="44.69067" lon="2.01366">
        <ele>493.700012</ele>
        <time>2018-05-25T14:51:30Z</time>
      </trkpt>
      <trkpt lat="44.69073" lon="2.01358">
        <ele>493.346985</ele>
        <time>2018-05-25T14:51:36Z</time>
      </trkpt>
      <trkpt lat="44.69078" lon="2.01351">
        <ele>493.386993</ele>
        <time>2018-05-25T14:51:41Z</time>
      </trkpt>
      <trkpt lat="44.69084" lon="2.01343">
        <ele>492.841003</ele>
        <time>2018-05-25T14:51:48Z</time>
      </trkpt>
      <trkpt lat="44.69089" lon="2.01334">
        <ele>490.585999</ele>
        <time>2018-05-25T14:51:57Z</time>
      </trkpt>
      <trkpt lat="44.69095" lon="2.01326">
        <ele>490.993011</ele>
        <time>2018-05-25T14:52:03Z</time>
      </trkpt>
      <trkpt lat="44.69102" lon="2.01321">
        <ele>491.362</ele>
        <time>2018-05-25T14:52:11Z</time>
      </trkpt>
      <trkpt lat="44.69109" lon="2.01319">
        <ele>490.932007</ele>
        <time>2018-05-25T14:52:18Z</time>
      </trkpt>
      <trkpt lat="44.69117" lon="2.01323">
        <ele>490.406006</ele>
        <time>2018-05-25T14:52:25Z</time>
      </trkpt>
      <trkpt lat="44.69125" lon="2.01322">
        <ele>490.190002</ele>
        <time>2018-05-25T14:52:34Z</time>
      </trkpt>
      <trkpt lat="44.69141" lon="2.01319">
        <ele>489.988007</ele>
        <time>2018-05-25T14:52:42Z</time>
      </trkpt>
      <trkpt lat="44.69149" lon="2.01318">
        <ele>491.256989</ele>
        <time>2018-05-25T14:52:52Z</time>
      </trkpt>
      <trkpt lat="44.69157" lon="2.0132">
        <ele>491.536011</ele>
        <time>2018-05-25T14:53:03Z</time>
      </trkpt>
      <trkpt lat="44.69175" lon="2.01322">
        <ele>492.071991</ele>
        <time>2018-05-25T14:53:12Z</time>
      </trkpt>
      <trkpt lat="44.69183" lon="2.01321">
        <ele>492.208008</ele>
        <time>2018-05-25T14:53:18Z</time>
      </trkpt>
      <trkpt lat="44.69198" lon="2.01311">
        <ele>490.897003</ele>
        <time>2018-05-25T14:53:27Z</time>
      </trkpt>
      <trkpt lat="44.69205" lon="2.01306">
        <ele>491.306</ele>
        <time>2018-05-25T14:53:32Z</time>
      </trkpt>
      <trkpt lat="44.69212" lon="2.01299">
        <ele>493.385986</ele>
        <time>2018-05-25T14:53:38Z</time>
      </trkpt>
      <trkpt lat="44.69215" lon="2.01288">
        <ele>493.376007</ele>
        <time>2018-05-25T14:53:46Z</time>
      </trkpt>
      <trkpt lat="44.69215" lon="2.01277">
        <ele>492.971008</ele>
        <time>2018-05-25T14:53:51Z</time>
      </trkpt>
      <trkpt lat="44.6921" lon="2.01269">
        <ele>495.065002</ele>
        <time>2018-05-25T14:53:57Z</time>
      </trkpt>
      <trkpt lat="44.69203" lon="2.01264">
        <ele>494.287994</ele>
        <time>2018-05-25T14:54:07Z</time>
      </trkpt>
      <trkpt lat="44.69196" lon="2.0126">
        <ele>494.009003</ele>
        <time>2018-05-25T14:54:13Z</time>
      </trkpt>
      <trkpt lat="44.69181" lon="2.01251">
        <ele>494.395996</ele>
        <time>2018-05-25T14:54:22Z</time>
      </trkpt>
      <trkpt lat="44.69177" lon="2.01243">
        <ele>494.36499</ele>
        <time>2018-05-25T14:54:28Z</time>
      </trkpt>
      <trkpt lat="44.69173" lon="2.01234">
        <ele>492.153015</ele>
        <time>2018-05-25T14:54:37Z</time>
      </trkpt>
      <trkpt lat="44.69166" lon="2.01226">
        <ele>491.199005</ele>
        <time>2018-05-25T14:54:43Z</time>
      </trkpt>
      <trkpt lat="44.69161" lon="2.01218">
        <ele>490.893005</ele>
        <time>2018-05-25T14:54:48Z</time>
      </trkpt>
      <trkpt lat="44.69155" lon="2.0121">
        <ele>490.994995</ele>
        <time>2018-05-25T14:54:54Z</time>
      </trkpt>
      <trkpt lat="44.69149" lon="2.01202">
        <ele>492.519012</ele>
        <time>2018-05-25T14:55:02Z</time>
      </trkpt>
      <trkpt lat="44.69143" lon="2.01194">
        <ele>493.053986</ele>
        <time>2018-05-25T14:55:11Z</time>
      </trkpt>
      <trkpt lat="44.69139" lon="2.01185">
        <ele>492.57901</ele>
        <time>2018-05-25T14:55:16Z</time>
      </trkpt>
      <trkpt lat="44.69134" lon="2.01176">
        <ele>492.01001</ele>
        <time>2018-05-25T14:55:22Z</time>
      </trkpt>
      <trkpt lat="44.6913" lon="2.01167">
        <ele>490.080994</ele>
        <time>2018-05-25T14:55:29Z</time>
      </trkpt>
      <trkpt lat="44.69124" lon="2.01159">
        <ele>487.153015</ele>
        <time>2018-05-25T14:55:39Z</time>
      </trkpt>
      <trkpt lat="44.69117" lon="2.01151">
        <ele>488.359009</ele>
        <time>2018-05-25T14:55:46Z</time>
      </trkpt>
      <trkpt lat="44.69111" lon="2.01144">
        <ele>490.571991</ele>
        <time>2018-05-25T14:55:51Z</time>
      </trkpt>
      <trkpt lat="44.69105" lon="2.01137">
        <ele>493.511993</ele>
        <time>2018-05-25T14:55:56Z</time>
      </trkpt>
      <trkpt lat="44.69099" lon="2.01131">
        <ele>493.914001</ele>
        <time>2018-05-25T14:56:59Z</time>
      </trkpt>
      <trkpt lat="44.69093" lon="2.01125">
        <ele>495.221985</ele>
        <time>2018-05-25T14:57:07Z</time>
      </trkpt>
      <trkpt lat="44.69086" lon="2.01119">
        <ele>495.389008</ele>
        <time>2018-05-25T14:57:13Z</time>
      </trkpt>
      <trkpt lat="44.69078" lon="2.01112">
        <ele>495.600006</ele>
        <time>2018-05-25T14:57:18Z</time>
      </trkpt>
      <trkpt lat="44.69072" lon="2.01107">
        <ele>495.674011</ele>
        <time>2018-05-25T14:57:23Z</time>
      </trkpt>
      <trkpt lat="44.69065" lon="2.01102">
        <ele>496.773987</ele>
        <time>2018-05-25T14:57:30Z</time>
      </trkpt>
      <trkpt lat="44.69059" lon="2.01095">
        <ele>499.391998</ele>
        <time>2018-05-25T14:57:36Z</time>
      </trkpt>
      <trkpt lat="44.69053" lon="2.0109">
        <ele>499.683014</ele>
        <time>2018-05-25T14:57:42Z</time>
      </trkpt>
      <trkpt lat="44.69047" lon="2.01081">
        <ele>499.605988</ele>
        <time>2018-05-25T14:57:49Z</time>
      </trkpt>
      <trkpt lat="44.6904" lon="2.01076">
        <ele>499.571991</ele>
        <time>2018-05-25T14:57:55Z</time>
      </trkpt>
      <trkpt lat="44.69033" lon="2.01071">
        <ele>499.002014</ele>
        <time>2018-05-25T14:58:01Z</time>
      </trkpt>
      <trkpt lat="44.69026" lon="2.01064">
        <ele>497.993988</ele>
        <time>2018-05-25T14:58:07Z</time>
      </trkpt>
      <trkpt lat="44.69021" lon="2.01057">
        <ele>498.057007</ele>
        <time>2018-05-25T14:58:14Z</time>
      </trkpt>
      <trkpt lat="44.69016" lon="2.0105">
        <ele>497.089996</ele>
        <time>2018-05-25T14:58:20Z</time>
      </trkpt>
      <trkpt lat="44.6901" lon="2.0104">
        <ele>495.113007</ele>
        <time>2018-05-25T14:58:27Z</time>
      </trkpt>
      <trkpt lat="44.69003" lon="2.01034">
        <ele>494.687988</ele>
        <time>2018-05-25T14:58:33Z</time>
      </trkpt>
      <trkpt lat="44.68996" lon="2.01029">
        <ele>495.411011</ele>
        <time>2018-05-25T14:58:39Z</time>
      </trkpt>
      <trkpt lat="44.68989" lon="2.01024">
        <ele>497.070007</ele>
        <time>2018-05-25T14:58:44Z</time>
      </trkpt>
      <trkpt lat="44.68981" lon="2.01019">
        <ele>498.101013</ele>
        <time>2018-05-25T14:58:50Z</time>
      </trkpt>
      <trkpt lat="44.68974" lon="2.01014">
        <ele>498.779999</ele>
        <time>2018-05-25T14:58:57Z</time>
      </trkpt>
      <trkpt lat="44.68966" lon="2.01011">
        <ele>499.197998</ele>
        <time>2018-05-25T14:59:06Z</time>
      </trkpt>
      <trkpt lat="44.68959" lon="2.01008">
        <ele>499.404999</ele>
        <time>2018-05-25T14:59:14Z</time>
      </trkpt>
      <trkpt lat="44.68952" lon="2.01004">
        <ele>499.089996</ele>
        <time>2018-05-25T14:59:22Z</time>
      </trkpt>
      <trkpt lat="44.68948" lon="2.00993">
        <ele>498.20401</ele>
        <time>2018-05-25T14:59:31Z</time>
      </trkpt>
      <trkpt lat="44.68939" lon="2.00974">
        <ele>498.356995</ele>
        <time>2018-05-25T14:59:41Z</time>
      </trkpt>
      <trkpt lat="44.68936" lon="2.00962">
        <ele>498.865997</ele>
        <time>2018-05-25T14:59:47Z</time>
      </trkpt>
      <trkpt lat="44.68933" lon="2.00953">
        <ele>498.397003</ele>
        <time>2018-05-25T14:59:52Z</time>
      </trkpt>
      <trkpt lat="44.68928" lon="2.00944">
        <ele>498.364014</ele>
        <time>2018-05-25T14:59:58Z</time>
      </trkpt>
      <trkpt lat="44.68921" lon="2.00937">
        <ele>497.205994</ele>
        <time>2018-05-25T15:00:06Z</time>
      </trkpt>
      <trkpt lat="44.68915" lon="2.00932">
        <ele>494.627014</ele>
        <time>2018-05-25T15:00:13Z</time>
      </trkpt>
      <trkpt lat="44.68908" lon="2.0093">
        <ele>493.106995</ele>
        <time>2018-05-25T15:00:18Z</time>
      </trkpt>
      <trkpt lat="44.689" lon="2.00928">
        <ele>492.188995</ele>
        <time>2018-05-25T15:00:23Z</time>
      </trkpt>
      <trkpt lat="44.68891" lon="2.00927">
        <ele>491.709015</ele>
        <time>2018-05-25T15:00:28Z</time>
      </trkpt>
      <trkpt lat="44.68884" lon="2.00925">
        <ele>491.502991</ele>
        <time>2018-05-25T15:00:33Z</time>
      </trkpt>
      <trkpt lat="44.68878" lon="2.00918">
        <ele>491.074005</ele>
        <time>2018-05-25T15:00:38Z</time>
      </trkpt>
      <trkpt lat="44.68872" lon="2.00911">
        <ele>490.854004</ele>
        <time>2018-05-25T15:00:44Z</time>
      </trkpt>
      <trkpt lat="44.68868" lon="2.00902">
        <ele>489.971985</ele>
        <time>2018-05-25T15:00:50Z</time>
      </trkpt>
      <trkpt lat="44.68865" lon="2.00891">
        <ele>488.907013</ele>
        <time>2018-05-25T15:00:56Z</time>
      </trkpt>
      <trkpt lat="44.68863" lon="2.00881">
        <ele>489.118988</ele>
        <time>2018-05-25T15:01:03Z</time>
      </trkpt>
      <trkpt lat="44.6886" lon="2.0087">
        <ele>488.260986</ele>
        <time>2018-05-25T15:01:10Z</time>
      </trkpt>
      <trkpt lat="44.68858" lon="2.00859">
        <ele>488.5</ele>
        <time>2018-05-25T15:01:16Z</time>
      </trkpt>
      <trkpt lat="44.68851" lon="2.00853">
        <ele>487.15799</ele>
        <time>2018-05-25T15:01:21Z</time>
      </trkpt>
      <trkpt lat="44.68845" lon="2.00849">
        <ele>486.618011</ele>
        <time>2018-05-25T15:01:27Z</time>
      </trkpt>
      <trkpt lat="44.68836" lon="2.00847">
        <ele>486.492004</ele>
        <time>2018-05-25T15:01:37Z</time>
      </trkpt>
      <trkpt lat="44.68828" lon="2.00847">
        <ele>486.028992</ele>
        <time>2018-05-25T15:01:44Z</time>
      </trkpt>
      <trkpt lat="44.6882" lon="2.00847">
        <ele>486.195007</ele>
        <time>2018-05-25T15:01:49Z</time>
      </trkpt>
      <trkpt lat="44.68811" lon="2.00846">
        <ele>487.186005</ele>
        <time>2018-05-25T15:01:54Z</time>
      </trkpt>
      <trkpt lat="44.68803" lon="2.00845">
        <ele>487.846008</ele>
        <time>2018-05-25T15:02:00Z</time>
      </trkpt>
      <trkpt lat="44.68795" lon="2.00844">
        <ele>488.558014</ele>
        <time>2018-05-25T15:02:08Z</time>
      </trkpt>
      <trkpt lat="44.68786" lon="2.00844">
        <ele>488.834991</ele>
        <time>2018-05-25T15:02:15Z</time>
      </trkpt>
      <trkpt lat="44.68779" lon="2.00842">
        <ele>488.613007</ele>
        <time>2018-05-25T15:02:20Z</time>
      </trkpt>
      <trkpt lat="44.68772" lon="2.0084">
        <ele>487.993988</ele>
        <time>2018-05-25T15:02:26Z</time>
      </trkpt>
      <trkpt lat="44.68763" lon="2.0084">
        <ele>488.21701</ele>
        <time>2018-05-25T15:02:35Z</time>
      </trkpt>
      <trkpt lat="44.68756" lon="2.00839">
        <ele>487.665985</ele>
        <time>2018-05-25T15:02:41Z</time>
      </trkpt>
      <trkpt lat="44.68749" lon="2.00843">
        <ele>485.14801</ele>
        <time>2018-05-25T15:02:49Z</time>
      </trkpt>
      <trkpt lat="44.6874" lon="2.00845">
        <ele>486.377014</ele>
        <time>2018-05-25T15:02:54Z</time>
      </trkpt>
      <trkpt lat="44.68733" lon="2.00842">
        <ele>486.664001</ele>
        <time>2018-05-25T15:03:00Z</time>
      </trkpt>
      <trkpt lat="44.68726" lon="2.00838">
        <ele>486.330994</ele>
        <time>2018-05-25T15:03:07Z</time>
      </trkpt>
      <trkpt lat="44.68718" lon="2.00834">
        <ele>485.21701</ele>
        <time>2018-05-25T15:03:13Z</time>
      </trkpt>
      <trkpt lat="44.68711" lon="2.0083">
        <ele>484.050995</ele>
        <time>2018-05-25T15:03:21Z</time>
      </trkpt>
      <trkpt lat="44.68703" lon="2.00826">
        <ele>482.446991</ele>
        <time>2018-05-25T15:03:29Z</time>
      </trkpt>
      <trkpt lat="44.68696" lon="2.00823">
        <ele>484.325989</ele>
        <time>2018-05-25T15:03:37Z</time>
      </trkpt>
      <trkpt lat="44.68688" lon="2.00821">
        <ele>484.80899</ele>
        <time>2018-05-25T15:03:44Z</time>
      </trkpt>
      <trkpt lat="44.6868" lon="2.00817">
        <ele>484.274994</ele>
        <time>2018-05-25T15:03:50Z</time>
      </trkpt>
      <trkpt lat="44.68673" lon="2.00812">
        <ele>483.696014</ele>
        <time>2018-05-25T15:03:58Z</time>
      </trkpt>
      <trkpt lat="44.68668" lon="2.00805">
        <ele>482.337006</ele>
        <time>2018-05-25T15:04:04Z</time>
      </trkpt>
      <trkpt lat="44.68663" lon="2.00796">
        <ele>480.27301</ele>
        <time>2018-05-25T15:04:15Z</time>
      </trkpt>
      <trkpt lat="44.6866" lon="2.00786">
        <ele>479.643005</ele>
        <time>2018-05-25T15:04:24Z</time>
      </trkpt>
      <trkpt lat="44.68655" lon="2.00776">
        <ele>479.903015</ele>
        <time>2018-05-25T15:04:30Z</time>
      </trkpt>
      <trkpt lat="44.6865" lon="2.00766">
        <ele>480.019989</ele>
        <time>2018-05-25T15:04:49Z</time>
      </trkpt>
      <trkpt lat="44.68643" lon="2.00757">
        <ele>479.506012</ele>
        <time>2018-05-25T15:04:51Z</time>
      </trkpt>
      <trkpt lat="44.6863" lon="2.00742">
        <ele>479.502991</ele>
        <time>2018-05-25T15:04:56Z</time>
      </trkpt>
      <trkpt lat="44.68623" lon="2.00734">
        <ele>478.246002</ele>
        <time>2018-05-25T15:05:03Z</time>
      </trkpt>
      <trkpt lat="44.68619" lon="2.00726">
        <ele>476.170013</ele>
        <time>2018-05-25T15:05:13Z</time>
      </trkpt>
      <trkpt lat="44.68615" lon="2.00717">
        <ele>474.022003</ele>
        <time>2018-05-25T15:05:19Z</time>
      </trkpt>
      <trkpt lat="44.68612" lon="2.00707">
        <ele>473.656006</ele>
        <time>2018-05-25T15:05:26Z</time>
      </trkpt>
      <trkpt lat="44.6861" lon="2.00697">
        <ele>470.989014</ele>
        <time>2018-05-25T15:05:34Z</time>
      </trkpt>
      <trkpt lat="44.68606" lon="2.00686">
        <ele>469.244995</ele>
        <time>2018-05-25T15:05:41Z</time>
      </trkpt>
      <trkpt lat="44.68602" lon="2.00674">
        <ele>467.89801</ele>
        <time>2018-05-25T15:05:47Z</time>
      </trkpt>
      <trkpt lat="44.68592" lon="2.00659">
        <ele>468.915009</ele>
        <time>2018-05-25T15:05:58Z</time>
      </trkpt>
      <trkpt lat="44.68584" lon="2.00654">
        <ele>469.261993</ele>
        <time>2018-05-25T15:06:11Z</time>
      </trkpt>
      <trkpt lat="44.68578" lon="2.0065">
        <ele>467.752014</ele>
        <time>2018-05-25T15:06:26Z</time>
      </trkpt>
      <trkpt lat="44.68572" lon="2.00641">
        <ele>466.338013</ele>
        <time>2018-05-25T15:07:09Z</time>
      </trkpt>
      <trkpt lat="44.68568" lon="2.00633">
        <ele>465.562988</ele>
        <time>2018-05-25T15:07:23Z</time>
      </trkpt>
      <trkpt lat="44.68565" lon="2.00622">
        <ele>464.841003</ele>
        <time>2018-05-25T15:07:30Z</time>
      </trkpt>
      <trkpt lat="44.68557" lon="2.00604">
        <ele>464.43399</ele>
        <time>2018-05-25T15:07:40Z</time>
      </trkpt>
      <trkpt lat="44.68555" lon="2.00594">
        <ele>462.371002</ele>
        <time>2018-05-25T15:07:48Z</time>
      </trkpt>
      <trkpt lat="44.68555" lon="2.00584">
        <ele>459.686005</ele>
        <time>2018-05-25T15:07:56Z</time>
      </trkpt>
      <trkpt lat="44.6855" lon="2.00576">
        <ele>459.330994</ele>
        <time>2018-05-25T15:08:03Z</time>
      </trkpt>
      <trkpt lat="44.68545" lon="2.00567">
        <ele>458.388</ele>
        <time>2018-05-25T15:08:08Z</time>
      </trkpt>
      <trkpt lat="44.6854" lon="2.0056">
        <ele>458.22699</ele>
        <time>2018-05-25T15:08:13Z</time>
      </trkpt>
      <trkpt lat="44.68534" lon="2.00553">
        <ele>458.519012</ele>
        <time>2018-05-25T15:08:18Z</time>
      </trkpt>
      <trkpt lat="44.68528" lon="2.00546">
        <ele>458.532013</ele>
        <time>2018-05-25T15:08:24Z</time>
      </trkpt>
      <trkpt lat="44.6852" lon="2.00538">
        <ele>459.062012</ele>
        <time>2018-05-25T15:08:29Z</time>
      </trkpt>
      <trkpt lat="44.68505" lon="2.00532">
        <ele>456.798004</ele>
        <time>2018-05-25T15:08:40Z</time>
      </trkpt>
      <trkpt lat="44.68504" lon="2.00521">
        <ele>454.524994</ele>
        <time>2018-05-25T15:08:48Z</time>
      </trkpt>
      <trkpt lat="44.68507" lon="2.00512">
        <ele>451.554993</ele>
        <time>2018-05-25T15:08:57Z</time>
      </trkpt>
      <trkpt lat="44.6851" lon="2.00502">
        <ele>450.480011</ele>
        <time>2018-05-25T15:09:11Z</time>
      </trkpt>
      <trkpt lat="44.68515" lon="2.00492">
        <ele>449.737</ele>
        <time>2018-05-25T15:09:20Z</time>
      </trkpt>
      <trkpt lat="44.68516" lon="2.00481">
        <ele>448.877014</ele>
        <time>2018-05-25T15:09:27Z</time>
      </trkpt>
      <trkpt lat="44.68522" lon="2.00474">
        <ele>448.302002</ele>
        <time>2018-05-25T15:09:32Z</time>
      </trkpt>
      <trkpt lat="44.68528" lon="2.00468">
        <ele>447.372009</ele>
        <time>2018-05-25T15:09:38Z</time>
      </trkpt>
      <trkpt lat="44.68536" lon="2.00463">
        <ele>446.540009</ele>
        <time>2018-05-25T15:09:45Z</time>
      </trkpt>
      <trkpt lat="44.68548" lon="2.00448">
        <ele>447.290009</ele>
        <time>2018-05-25T15:09:56Z</time>
      </trkpt>
      <trkpt lat="44.68554" lon="2.00442">
        <ele>448.760986</ele>
        <time>2018-05-25T15:10:02Z</time>
      </trkpt>
      <trkpt lat="44.6856" lon="2.00435">
        <ele>447.817993</ele>
        <time>2018-05-25T15:10:08Z</time>
      </trkpt>
      <trkpt lat="44.68566" lon="2.00427">
        <ele>447.910004</ele>
        <time>2018-05-25T15:10:14Z</time>
      </trkpt>
      <trkpt lat="44.68572" lon="2.0042">
        <ele>448.285004</ele>
        <time>2018-05-25T15:10:22Z</time>
      </trkpt>
      <trkpt lat="44.68578" lon="2.00413">
        <ele>448.527008</ele>
        <time>2018-05-25T15:10:29Z</time>
      </trkpt>
      <trkpt lat="44.68582" lon="2.00405">
        <ele>446.410004</ele>
        <time>2018-05-25T15:10:35Z</time>
      </trkpt>
      <trkpt lat="44.68579" lon="2.00395">
        <ele>444.438995</ele>
        <time>2018-05-25T15:10:41Z</time>
      </trkpt>
      <trkpt lat="44.68574" lon="2.00386">
        <ele>443.299011</ele>
        <time>2018-05-25T15:10:46Z</time>
      </trkpt>
      <trkpt lat="44.68566" lon="2.00381">
        <ele>443.876007</ele>
        <time>2018-05-25T15:10:51Z</time>
      </trkpt>
      <trkpt lat="44.68557" lon="2.0038">
        <ele>444.322998</ele>
        <time>2018-05-25T15:10:56Z</time>
      </trkpt>
      <trkpt lat="44.6855" lon="2.0038">
        <ele>444.109985</ele>
        <time>2018-05-25T15:11:03Z</time>
      </trkpt>
      <trkpt lat="44.68541" lon="2.00379">
        <ele>445.542999</ele>
        <time>2018-05-25T15:11:08Z</time>
      </trkpt>
      <trkpt lat="44.68533" lon="2.0038">
        <ele>445.881012</ele>
        <time>2018-05-25T15:11:15Z</time>
      </trkpt>
      <trkpt lat="44.68525" lon="2.00381">
        <ele>445.286987</ele>
        <time>2018-05-25T15:11:20Z</time>
      </trkpt>
      <trkpt lat="44.68517" lon="2.00382">
        <ele>444.682007</ele>
        <time>2018-05-25T15:11:27Z</time>
      </trkpt>
      <trkpt lat="44.6851" lon="2.00385">
        <ele>443.709015</ele>
        <time>2018-05-25T15:11:34Z</time>
      </trkpt>
      <trkpt lat="44.68503" lon="2.00392">
        <ele>443.596985</ele>
        <time>2018-05-25T15:11:46Z</time>
      </trkpt>
      <trkpt lat="44.68495" lon="2.00393">
        <ele>444.890015</ele>
        <time>2018-05-25T15:11:52Z</time>
      </trkpt>
      <trkpt lat="44.68487" lon="2.00393">
        <ele>444.324005</ele>
        <time>2018-05-25T15:11:58Z</time>
      </trkpt>
      <trkpt lat="44.68479" lon="2.00393">
        <ele>437.494995</ele>
        <time>2018-05-25T15:13:06Z</time>
      </trkpt>
      <trkpt lat="44.68472" lon="2.00388">
        <ele>433.287994</ele>
        <time>2018-05-25T15:13:18Z</time>
      </trkpt>
      <trkpt lat="44.68464" lon="2.00385">
        <ele>431.076996</ele>
        <time>2018-05-25T15:13:25Z</time>
      </trkpt>
      <trkpt lat="44.68458" lon="2.00379">
        <ele>429.403992</ele>
        <time>2018-05-25T15:13:31Z</time>
      </trkpt>
      <trkpt lat="44.68451" lon="2.00374">
        <ele>428.125</ele>
        <time>2018-05-25T15:14:13Z</time>
      </trkpt>
      <trkpt lat="44.68445" lon="2.00368">
        <ele>427.153015</ele>
        <time>2018-05-25T15:14:29Z</time>
      </trkpt>
      <trkpt lat="44.6844" lon="2.0036">
        <ele>427.238007</ele>
        <time>2018-05-25T15:14:35Z</time>
      </trkpt>
      <trkpt lat="44.68436" lon="2.00351">
        <ele>428.147003</ele>
        <time>2018-05-25T15:14:42Z</time>
      </trkpt>
      <trkpt lat="44.68433" lon="2.00341">
        <ele>427.239014</ele>
        <time>2018-05-25T15:14:49Z</time>
      </trkpt>
      <trkpt lat="44.68431" lon="2.0033">
        <ele>426.299011</ele>
        <time>2018-05-25T15:14:55Z</time>
      </trkpt>
      <trkpt lat="44.68433" lon="2.00319">
        <ele>423.738007</ele>
        <time>2018-05-25T15:15:06Z</time>
      </trkpt>
      <trkpt lat="44.68436" lon="2.00308">
        <ele>422.81601</ele>
        <time>2018-05-25T15:15:12Z</time>
      </trkpt>
      <trkpt lat="44.6844" lon="2.00298">
        <ele>422.085999</ele>
        <time>2018-05-25T15:15:23Z</time>
      </trkpt>
      <trkpt lat="44.68443" lon="2.00289">
        <ele>421.845001</ele>
        <time>2018-05-25T15:15:30Z</time>
      </trkpt>
      <trkpt lat="44.68447" lon="2.0028">
        <ele>420.972992</ele>
        <time>2018-05-25T15:15:36Z</time>
      </trkpt>
      <trkpt lat="44.6845" lon="2.0027">
        <ele>420.171997</ele>
        <time>2018-05-25T15:15:42Z</time>
      </trkpt>
      <trkpt lat="44.68453" lon="2.0026">
        <ele>419.278015</ele>
        <time>2018-05-25T15:15:49Z</time>
      </trkpt>
      <trkpt lat="44.68453" lon="2.00249">
        <ele>417.665985</ele>
        <time>2018-05-25T15:15:55Z</time>
      </trkpt>
      <trkpt lat="44.68452" lon="2.00237">
        <ele>415.815002</ele>
        <time>2018-05-25T15:16:03Z</time>
      </trkpt>
      <trkpt lat="44.68449" lon="2.00227">
        <ele>415.147003</ele>
        <time>2018-05-25T15:16:09Z</time>
      </trkpt>
      <trkpt lat="44.68445" lon="2.00217">
        <ele>416.378998</ele>
        <time>2018-05-25T15:16:16Z</time>
      </trkpt>
      <trkpt lat="44.68433" lon="2.002">
        <ele>417.627014</ele>
        <time>2018-05-25T15:16:34Z</time>
      </trkpt>
      <trkpt lat="44.68428" lon="2.00192">
        <ele>417.674011</ele>
        <time>2018-05-25T15:16:39Z</time>
      </trkpt>
      <trkpt lat="44.68422" lon="2.00184">
        <ele>419.299011</ele>
        <time>2018-05-25T15:16:47Z</time>
      </trkpt>
      <trkpt lat="44.68416" lon="2.00177">
        <ele>418.552002</ele>
        <time>2018-05-25T15:16:55Z</time>
      </trkpt>
      <trkpt lat="44.6841" lon="2.00169">
        <ele>414.561005</ele>
        <time>2018-05-25T15:17:03Z</time>
      </trkpt>
      <trkpt lat="44.68405" lon="2.00162">
        <ele>412.690002</ele>
        <time>2018-05-25T15:17:09Z</time>
      </trkpt>
      <trkpt lat="44.684" lon="2.00154">
        <ele>410.841003</ele>
        <time>2018-05-25T15:17:15Z</time>
      </trkpt>
      <trkpt lat="44.68396" lon="2.00145">
        <ele>409.483002</ele>
        <time>2018-05-25T15:17:21Z</time>
      </trkpt>
      <trkpt lat="44.68392" lon="2.00135">
        <ele>407.85199</ele>
        <time>2018-05-25T15:17:28Z</time>
      </trkpt>
      <trkpt lat="44.68388" lon="2.00126">
        <ele>406.024994</ele>
        <time>2018-05-25T15:17:35Z</time>
      </trkpt>
      <trkpt lat="44.68384" lon="2.00116">
        <ele>404.408997</ele>
        <time>2018-05-25T15:17:41Z</time>
      </trkpt>
      <trkpt lat="44.68381" lon="2.00107">
        <ele>403.35199</ele>
        <time>2018-05-25T15:17:47Z</time>
      </trkpt>
      <trkpt lat="44.68377" lon="2.00098">
        <ele>402.289001</ele>
        <time>2018-05-25T15:17:53Z</time>
      </trkpt>
      <trkpt lat="44.68371" lon="2.00091">
        <ele>401.539001</ele>
        <time>2018-05-25T15:17:59Z</time>
      </trkpt>
      <trkpt lat="44.68365" lon="2.00085">
        <ele>402.014008</ele>
        <time>2018-05-25T15:18:04Z</time>
      </trkpt>
      <trkpt lat="44.68359" lon="2.00078">
        <ele>402.045013</ele>
        <time>2018-05-25T15:18:10Z</time>
      </trkpt>
      <trkpt lat="44.68352" lon="2.00073">
        <ele>402.019989</ele>
        <time>2018-05-25T15:18:20Z</time>
      </trkpt>
      <trkpt lat="44.68339" lon="2.00061">
        <ele>400.06601</ele>
        <time>2018-05-25T15:18:31Z</time>
      </trkpt>
      <trkpt lat="44.68331" lon="2.00055">
        <ele>399.156006</ele>
        <time>2018-05-25T15:18:38Z</time>
      </trkpt>
      <trkpt lat="44.68324" lon="2.00049">
        <ele>398.872009</ele>
        <time>2018-05-25T15:18:44Z</time>
      </trkpt>
      <trkpt lat="44.68316" lon="2.00047">
        <ele>397.178009</ele>
        <time>2018-05-25T15:18:58Z</time>
      </trkpt>
      <trkpt lat="44.68309" lon="2.00045">
        <ele>396.867004</ele>
        <time>2018-05-25T15:19:03Z</time>
      </trkpt>
      <trkpt lat="44.68301" lon="2.00042">
        <ele>397.154999</ele>
        <time>2018-05-25T15:19:09Z</time>
      </trkpt>
      <trkpt lat="44.68294" lon="2.00037">
        <ele>397.417999</ele>
        <time>2018-05-25T15:19:15Z</time>
      </trkpt>
      <trkpt lat="44.68287" lon="2.00033">
        <ele>396.023987</ele>
        <time>2018-05-25T15:19:22Z</time>
      </trkpt>
      <trkpt lat="44.68279" lon="2.00031">
        <ele>398.574005</ele>
        <time>2018-05-25T15:19:37Z</time>
      </trkpt>
      <trkpt lat="44.68273" lon="2.00025">
        <ele>399.299988</ele>
        <time>2018-05-25T15:19:55Z</time>
      </trkpt>
      <trkpt lat="44.68269" lon="2.00015">
        <ele>397.528015</ele>
        <time>2018-05-25T15:20:02Z</time>
      </trkpt>
      <trkpt lat="44.68263" lon="2.00007">
        <ele>396.21701</ele>
        <time>2018-05-25T15:20:08Z</time>
      </trkpt>
      <trkpt lat="44.68258" lon="1.99999">
        <ele>394.226013</ele>
        <time>2018-05-25T15:20:14Z</time>
      </trkpt>
      <trkpt lat="44.68254" lon="1.99991">
        <ele>392.979004</ele>
        <time>2018-05-25T15:20:20Z</time>
      </trkpt>
      <trkpt lat="44.68247" lon="1.99982">
        <ele>392.860992</ele>
        <time>2018-05-25T15:20:26Z</time>
      </trkpt>
      <trkpt lat="44.68241" lon="1.99975">
        <ele>392.803009</ele>
        <time>2018-05-25T15:20:36Z</time>
      </trkpt>
      <trkpt lat="44.68236" lon="1.99966">
        <ele>391.730988</ele>
        <time>2018-05-25T15:20:42Z</time>
      </trkpt>
      <trkpt lat="44.68231" lon="1.99958">
        <ele>390.923004</ele>
        <time>2018-05-25T15:20:48Z</time>
      </trkpt>
      <trkpt lat="44.68226" lon="1.9995">
        <ele>389.545013</ele>
        <time>2018-05-25T15:20:55Z</time>
      </trkpt>
      <trkpt lat="44.68222" lon="1.99941">
        <ele>388.821014</ele>
        <time>2018-05-25T15:21:10Z</time>
      </trkpt>
      <trkpt lat="44.68216" lon="1.99934">
        <ele>389.321014</ele>
        <time>2018-05-25T15:21:16Z</time>
      </trkpt>
      <trkpt lat="44.6821" lon="1.99927">
        <ele>388.447998</ele>
        <time>2018-05-25T15:21:22Z</time>
      </trkpt>
      <trkpt lat="44.68204" lon="1.99918">
        <ele>388.248993</ele>
        <time>2018-05-25T15:21:28Z</time>
      </trkpt>
      <trkpt lat="44.68199" lon="1.99911">
        <ele>387.506012</ele>
        <time>2018-05-25T15:21:34Z</time>
      </trkpt>
      <trkpt lat="44.68193" lon="1.99905">
        <ele>386.075012</ele>
        <time>2018-05-25T15:21:40Z</time>
      </trkpt>
      <trkpt lat="44.68187" lon="1.99898">
        <ele>384.302002</ele>
        <time>2018-05-25T15:21:45Z</time>
      </trkpt>
      <trkpt lat="44.68181" lon="1.99892">
        <ele>385.216003</ele>
        <time>2018-05-25T15:21:56Z</time>
      </trkpt>
      <trkpt lat="44.68175" lon="1.99885">
        <ele>385.679993</ele>
        <time>2018-05-25T15:22:02Z</time>
      </trkpt>
      <trkpt lat="44.6817" lon="1.99878">
        <ele>384.875</ele>
        <time>2018-05-25T15:22:08Z</time>
      </trkpt>
      <trkpt lat="44.68164" lon="1.99871">
        <ele>384.588013</ele>
        <time>2018-05-25T15:22:16Z</time>
      </trkpt>
      <trkpt lat="44.68157" lon="1.99864">
        <ele>383.269989</ele>
        <time>2018-05-25T15:22:22Z</time>
      </trkpt>
      <trkpt lat="44.68152" lon="1.99856">
        <ele>382.885986</ele>
        <time>2018-05-25T15:22:28Z</time>
      </trkpt>
      <trkpt lat="44.68145" lon="1.99849">
        <ele>381.403992</ele>
        <time>2018-05-25T15:22:34Z</time>
      </trkpt>
      <trkpt lat="44.68139" lon="1.99842">
        <ele>381.617004</ele>
        <time>2018-05-25T15:22:39Z</time>
      </trkpt>
      <trkpt lat="44.68134" lon="1.99834">
        <ele>381.527008</ele>
        <time>2018-05-25T15:22:45Z</time>
      </trkpt>
      <trkpt lat="44.68129" lon="1.99826">
        <ele>379.730011</ele>
        <time>2018-05-25T15:22:52Z</time>
      </trkpt>
      <trkpt lat="44.68122" lon="1.9982">
        <ele>378.695007</ele>
        <time>2018-05-25T15:22:58Z</time>
      </trkpt>
      <trkpt lat="44.68117" lon="1.99812">
        <ele>377.404999</ele>
        <time>2018-05-25T15:23:06Z</time>
      </trkpt>
      <trkpt lat="44.68111" lon="1.99805">
        <ele>376.688995</ele>
        <time>2018-05-25T15:23:12Z</time>
      </trkpt>
      <trkpt lat="44.68105" lon="1.99798">
        <ele>376.050995</ele>
        <time>2018-05-25T15:23:17Z</time>
      </trkpt>
      <trkpt lat="44.681" lon="1.99792">
        <ele>376.406006</ele>
        <time>2018-05-25T15:23:25Z</time>
      </trkpt>
      <trkpt lat="44.68093" lon="1.99787">
        <ele>376.72699</ele>
        <time>2018-05-25T15:23:31Z</time>
      </trkpt>
      <trkpt lat="44.68085" lon="1.99782">
        <ele>376.57901</ele>
        <time>2018-05-25T15:23:38Z</time>
      </trkpt>
      <trkpt lat="44.6807" lon="1.99772">
        <ele>374.402008</ele>
        <time>2018-05-25T15:23:47Z</time>
      </trkpt>
      <trkpt lat="44.68063" lon="1.99769">
        <ele>374.591003</ele>
        <time>2018-05-25T15:23:56Z</time>
      </trkpt>
      <trkpt lat="44.68055" lon="1.99766">
        <ele>375.292999</ele>
        <time>2018-05-25T15:24:02Z</time>
      </trkpt>
      <trkpt lat="44.68042" lon="1.99752">
        <ele>377.475006</ele>
        <time>2018-05-25T15:24:31Z</time>
      </trkpt>
      <trkpt lat="44.68036" lon="1.99747">
        <ele>376.95401</ele>
        <time>2018-05-25T15:24:40Z</time>
      </trkpt>
      <trkpt lat="44.68029" lon="1.99744">
        <ele>376.382996</ele>
        <time>2018-05-25T15:24:46Z</time>
      </trkpt>
      <trkpt lat="44.68015" lon="1.99737">
        <ele>376.470001</ele>
        <time>2018-05-25T15:24:57Z</time>
      </trkpt>
      <trkpt lat="44.68009" lon="1.9973">
        <ele>375.243988</ele>
        <time>2018-05-25T15:25:03Z</time>
      </trkpt>
      <trkpt lat="44.68002" lon="1.99724">
        <ele>374.384003</ele>
        <time>2018-05-25T15:25:10Z</time>
      </trkpt>
      <trkpt lat="44.68004" lon="1.99712">
        <ele>372.829987</ele>
        <time>2018-05-25T15:25:51Z</time>
      </trkpt>
      <trkpt lat="44.68005" lon="1.99702">
        <ele>372.834991</ele>
        <time>2018-05-25T15:25:56Z</time>
      </trkpt>
      <trkpt lat="44.68002" lon="1.99692">
        <ele>372.282013</ele>
        <time>2018-05-25T15:26:01Z</time>
      </trkpt>
      <trkpt lat="44.68005" lon="1.99683">
        <ele>372.313995</ele>
        <time>2018-05-25T15:26:06Z</time>
      </trkpt>
      <trkpt lat="44.6801" lon="1.99674">
        <ele>371.509003</ele>
        <time>2018-05-25T15:26:17Z</time>
      </trkpt>
      <trkpt lat="44.68011" lon="1.99664">
        <ele>372.304993</ele>
        <time>2018-05-25T15:26:23Z</time>
      </trkpt>
      <trkpt lat="44.68014" lon="1.99644">
        <ele>372.084015</ele>
        <time>2018-05-25T15:26:33Z</time>
      </trkpt>
      <trkpt lat="44.68018" lon="1.99635">
        <ele>372.013</ele>
        <time>2018-05-25T15:26:40Z</time>
      </trkpt>
      <trkpt lat="44.68016" lon="1.99624">
        <ele>374.618988</ele>
        <time>2018-05-25T15:26:50Z</time>
      </trkpt>
      <trkpt lat="44.68012" lon="1.99615">
        <ele>373.295013</ele>
        <time>2018-05-25T15:26:57Z</time>
      </trkpt>
      <trkpt lat="44.68009" lon="1.99603">
        <ele>373.329987</ele>
        <time>2018-05-25T15:27:25Z</time>
      </trkpt>
      <trkpt lat="44.68006" lon="1.99593">
        <ele>373.850006</ele>
        <time>2018-05-25T15:27:36Z</time>
      </trkpt>
      <trkpt lat="44.67997" lon="1.99576">
        <ele>373.910004</ele>
        <time>2018-05-25T15:27:45Z</time>
      </trkpt>
      <trkpt lat="44.67992" lon="1.99567">
        <ele>374.368988</ele>
        <time>2018-05-25T15:27:50Z</time>
      </trkpt>
      <trkpt lat="44.67988" lon="1.99557">
        <ele>376.016998</ele>
        <time>2018-05-25T15:27:56Z</time>
      </trkpt>
      <trkpt lat="44.6798" lon="1.99539">
        <ele>376.045013</ele>
        <time>2018-05-25T15:28:04Z</time>
      </trkpt>
      <trkpt lat="44.67976" lon="1.9953">
        <ele>376.371002</ele>
        <time>2018-05-25T15:28:12Z</time>
      </trkpt>
      <trkpt lat="44.67968" lon="1.99527">
        <ele>374.670013</ele>
        <time>2018-05-25T15:28:35Z</time>
      </trkpt>
      <trkpt lat="44.67964" lon="1.99519">
        <ele>372.574005</ele>
        <time>2018-05-25T15:28:44Z</time>
      </trkpt>
      <trkpt lat="44.67961" lon="1.99508">
        <ele>372.213013</ele>
        <time>2018-05-25T15:28:50Z</time>
      </trkpt>
      <trkpt lat="44.67954" lon="1.99504">
        <ele>371.105011</ele>
        <time>2018-05-25T15:28:56Z</time>
      </trkpt>
      <trkpt lat="44.67948" lon="1.99497">
        <ele>370.988007</ele>
        <time>2018-05-25T15:29:01Z</time>
      </trkpt>
      <trkpt lat="44.67946" lon="1.99487">
        <ele>372.38501</ele>
        <time>2018-05-25T15:29:08Z</time>
      </trkpt>
      <trkpt lat="44.67951" lon="1.99478">
        <ele>371.997009</ele>
        <time>2018-05-25T15:29:14Z</time>
      </trkpt>
      <trkpt lat="44.67956" lon="1.99471">
        <ele>371.026001</ele>
        <time>2018-05-25T15:29:20Z</time>
      </trkpt>
    </trkseg>
  </trk>
</gpx>